[[{"header":{"parameterUnit":"m.s-1","parameterCategory":1,"la1":31.0,"la2":29.5877,"lo1":-88.7671,"lo2":-86.6584,"dy":0.0162,"dx":0.0185,"nx":115,"ny":88,"refTime":"2023-09-29T06:00:00:Z","depth":0,"parameterNumber":2,"parameterNumberName":"U-component_of_WINDS"},"data":[0.0,0.0,0.0,0.0,0.0,0.0,0.0,0.0,0.0,0.0,0.0,0.0,0.0,0.0,0.0,0.0,0.0,0.0,0.0,0.0,0.0,0.0,0.0,0.0,0.0,0.0,0.0,0.0,0.0,0.0,0.0,0.0,0.0,0.0,0.0,0.0,0.0,0.0,0.0,0.0,0.0,0.0,0.0,0.0,0.0,0.0,0.0,0.0,0.0,0.0,0.0,0.0,0.0,0.0,0.0,0.0,0.0,0.0,0.0,0.0,0.0,0.0,0.0,0.0,0.0,0.0,0.0,0.0,0.0,0.0,0.0,0.0,0.0,0.0,0.0,0.0,0.0,0.0,0.0,0.0,0.0,0.0,0.0,0.0,0.0,0.0,0.0,0.0,0.0,0.0,0.0,0.0,0.0,0.0,0.0,0.0,0.0,0.0,0.0,0.0,0.0,0.0,0.0,0.0,0.0,0.0,0.0,0.0,0.0,0.0,0.0,0.0,0.0,0.0,0.0,0.0,0.0,0.0,0.0,0.0,0.0,0.0,0.0,0.0,0.0,0.0,0.0,0.0,0.0,0.0,0.0,0.0,0.0,0.0,0.0,0.0,0.0,0.0,0.0,0.0,0.0,0.0,0.0,0.0,0.0,0.0,0.0,0.0,0.0,0.0,0.0,0.0,0.0,0.0,0.0,0.0,0.0,0.0,0.0,0.0,0.0,0.0,0.0,0.0,0.0,0.0,0.0,0.0,0.0,0.0,0.0,0.0,0.0,0.0,0.0,0.0,0.0,0.0,0.0,0.0,0.0,0.0,0.0,0.0,0.0,0.0,0.0,0.0,0.0,0.0,0.0,0.0,0.0,0.0,0.0,0.0,0.0,0.0,0.0,0.0,0.0,0.0,0.0,0.0,0.0,0.0,0.0,0.0,0.0,0.0,0.0,0.0,0.0,0.0,0.0,0.0,0.0,0.0,0.0,0.0,0.0,0.0,0.0,0.0,0.0,0.0,0.0,0.0,0.0,0.0,0.0,0.0,0.0,0.0,0.0,0.0,0.0,0.0,0.0,0.0,0.0,0.0,0.0,0.0,0.0,0.0,0.0,0.0,0.0,0.0,0.0,0.0,0.0,0.0,0.0,0.0,0.0,0.0,0.0,0.0,0.0,0.0,0.0,0.0,0.0,0.0,0.0,0.0,0.0,0.0,0.0,0.0,0.0,0.0,0.0,0.0,0.0,0.0,0.0,0.0,0.0,0.0,0.0,0.0,0.0,0.0,0.0,0.0,0.0,0.0,0.0,0.0,0.0,0.0,0.0,0.0,0.0,0.0,0.0,0.0,0.0,0.0,0.0,0.0,0.0,0.0,0.0,0.0,0.0,0.0,0.0,0.0,0.0,0.0,0.0,0.0,0.0,0.0,0.0,0.0,0.0,0.0,0.0,0.0,0.0,0.0,0.0,0.0,0.0,0.0,0.0,0.0,0.0,0.0,0.0,0.0,0.0,0.0,0.0,0.0,0.0,0.0,0.0,0.0,0.0,0.0,0.0,0.0,0.0,0.0,0.0,0.0,0.0,0.0,0.0,0.0,0.0,0.0,0.0,0.0,0.0,0.0,0.0,0.0,0.0,0.0,0.0,0.0,0.0,0.0,0.0,0.0,0.0,0.0,0.0,0.0,0.0,0.0,0.0,0.0,0.0,0.0,0.0,0.0,0.0,0.0,0.0,0.0,0.0,0.0,0.0,0.0,0.0,0.0,0.0,0.0,0.0,0.0,0.0,0.0,0.0,0.0,0.0,0.0,0.0,0.0,0.0,0.0,0.0,0.0,0.0,0.0,0.0,0.0,0.0,0.0,0.0,0.0,0.0,0.0,0.0,0.0,0.0,0.0,0.0,0.0,0.0,0.0,0.0,0.0,0.0,0.0,0.0,0.0,0.0,0.0,0.0,0.0,0.0,0.0,0.0,0.0,0.0,0.0,0.0,0.0,0.0,0.0,0.0,0.0,0.0,0.0,0.0,0.0,0.0,0.0,0.0,0.0,0.0,0.0,0.0,0.0,0.0,0.0,0.0,0.0,0.0,0.0,0.0,0.0,0.0,0.0,0.0,0.0,0.0,0.0,0.0,0.0,0.0,0.0,0.0,0.0,0.0,0.0,0.0,0.0,0.0,0.0,0.0,0.0,0.0,0.0,0.0,0.0,0.0,0.0,0.0,0.0,0.0,0.0,0.0,0.0,0.0,0.0,0.0,0.0,0.0,0.0,0.0,0.0,0.0,0.0,0.0,0.0,0.0,0.0,0.0,0.0,0.0,0.0,0.0,0.0,0.0,0.0,0.0,0.0,0.0,0.0,0.0,0.0,0.0,0.0,0.0,0.0,0.0,0.0,0.0,0.0,0.0,0.0,0.0,0.0,0.0,0.0,0.0,0.0,0.0,0.0,0.0,0.0,0.0,0.0,0.0,0.0,0.0,0.0,0.0,0.0,0.0,0.0,0.0,0.0,0.0,0.0,0.0,0.0,0.0,0.0,0.0,0.0,0.0,0.0,0.0,0.0,0.0,0.0,0.0,0.0,0.0,0.0,0.0,0.0,0.0,0.0,0.0,0.0,0.0,0.0,0.0,0.0,0.0,0.0,0.0,0.0,0.0,0.0,0.0,0.0,0.0,0.0,0.0,0.0,0.0,0.0,0.0,0.0,0.0,0.0,0.0,0.0,0.0,0.0,0.0,0.0,0.0,0.0,0.0,0.0,0.0,0.0,0.0,0.0,0.0,0.0,0.0,0.0,0.0,0.0,0.0,0.0,0.0,0.0,0.0,0.0,0.0,0.0,0.0,0.0,0.0,0.0,0.0,0.0,0.0,0.0,0.0,0.0,0.0,0.0,0.0,0.0,0.0,0.0,0.0,0.0,0.0,0.0,0.0,0.0,0.0,0.0,0.0,0.0,0.0,0.0,0.0,0.0,0.0,0.0,0.0,0.0,0.0,0.0,0.0,0.0,0.0,0.0,0.0,0.0,0.0,0.0,0.0,0.0,0.0,0.0,0.0,0.0,0.0,0.0,0.0,0.0,0.0,0.0,0.0,0.0,0.0,0.0,0.0,0.0,0.0,0.0,0.0,0.0,0.0,0.0,0.0,0.0,0.0,0.0,0.0,0.0,0.0,0.0,0.0,0.0,0.0,0.0,0.0,0.0,0.0,0.0,0.0,0.0,0.0,0.0,0.0,0.0,0.0,0.0,0.0,0.0,0.0,0.0,0.0,0.0,0.0,0.0,0.0,0.0,0.0,0.0,0.0,0.0,0.0,0.0,0.0,0.0,0.0,0.0,0.0,0.0,0.0,0.0,0.0,0.0,0.0,0.0,0.0,0.0,0.0,0.0,0.0,0.0,0.0,0.0,0.0,0.0,0.0,0.0,0.0,0.0,0.0,0.0,0.0,0.0,0.0,0.0,0.0,0.0,0.0,0.0,0.0,0.0,0.0,0.0,0.0,0.0,0.0,0.0,0.0,0.0,0.0,0.0,0.0,0.0,0.0,0.0,0.0,0.0,0.0,0.0,0.0,0.0,0.0,0.0,0.0,0.0,0.0,0.0,0.0,0.0,0.0,0.0,0.0,0.0,0.0,0.0,0.0,0.0,0.0,0.0,0.0,0.0,0.0,0.0,0.0,0.0,0.0,0.0,0.0,0.0,0.0,0.0,0.0,0.0,0.0,0.0,0.0,0.0,0.0,0.0,0.0,0.0,0.0,0.0,0.0,0.0,0.0,0.0,0.0,0.0,0.0,0.0,0.0,0.0,0.0,0.0,0.0,0.0,0.0,0.0,0.0,0.0,0.0,0.0,0.0,0.0,0.0,0.0,0.0,0.0,0.0,0.0,0.0,0.0,0.0,0.0,0.0,0.0,0.0,0.0,0.0,0.0,0.0,0.0,0.0,0.0,0.0,0.0,0.0,0.0,0.0,0.0,0.0,0.0,0.0,0.0,0.0,0.0,0.0,0.0,0.0,0.0,0.0,0.0,0.0,0.0,0.0,0.0,0.0,0.0,0.0,0.0,0.0,0.0,0.0,0.0,0.0,0.0,0.0,0.0,0.0,0.0,0.0,0.0,0.0,0.0,0.0,0.0,0.0,0.0,0.0,0.0,0.0,0.0,0.0,0.0,0.0,0.0,0.0,0.0,0.0,0.0,0.0,0.0,0.0,0.0,0.0,0.0,0.0,0.0,0.0,0.0,0.0,0.0,0.0,0.0,0.0,0.0,0.0,0.0,0.0,0.0,0.0,0.0,0.0,0.0,0.741,0.0,0.0,0.0,0.0,0.0,0.0,0.0,0.0,0.0,0.0,0.0,0.0,0.0,0.0,0.0,0.0,0.0,0.0,0.0,0.0,0.0,0.0,0.0,0.0,0.0,0.0,0.0,0.0,0.0,0.0,0.0,0.0,0.0,0.0,0.0,0.0,0.0,0.0,0.0,0.0,0.0,0.0,0.0,0.0,0.0,0.0,0.0,0.0,0.0,0.0,0.0,0.0,0.0,0.0,0.0,0.0,0.0,0.0,0.0,0.0,0.0,0.0,0.0,0.0,0.0,0.0,0.0,0.0,0.0,0.0,0.0,0.0,0.0,0.0,0.0,0.0,0.0,0.0,0.0,0.0,0.0,0.0,0.0,0.0,0.0,0.0,0.0,0.0,0.0,0.0,0.0,0.0,0.0,0.0,0.0,0.0,0.0,0.0,0.0,0.0,0.0,0.0,0.0,0.0,0.0,0.0,0.0,0.0,0.0,0.0,0.7979,0.7912,0.7912,0.7834,0.7617,0.0,0.0,0.0,0.0,0.0,0.0,0.0,0.0,0.0,0.0,0.0,0.0,0.0,0.0,0.0,0.0,0.0,0.0,0.0,0.0,0.0,0.0,0.0,0.0,0.0,0.0,0.0,0.0,0.0,0.0,0.0,0.0,0.0,0.0,0.0,0.0,0.0,0.0,0.0,0.0,0.0,0.0,0.0,0.0,0.0,0.0,0.0,0.0,0.0,0.0,0.0,0.0,0.0,0.0,0.0,0.0,0.0,0.0,0.0,0.0,0.0,0.0,0.0,0.0,0.0,0.0,0.0,0.0,0.0,0.0,0.0,0.0,0.0,0.0,0.0,0.0,0.0,0.0,0.0,0.0,0.0,0.0,0.0,0.0,0.0,0.0,0.0,0.0,0.0,0.0,0.0,0.0,0.0,0.0,0.0,0.0,0.0,0.0,0.0,0.0,0.0,0.0,0.0,0.0,0.0,0.0,0.0,0.0,0.0,0.0,0.0,0.0,0.7988,0.7925,0.7767,0.0,0.0,0.0,0.0,0.0,0.0,0.0,0.0,0.0,0.0,0.0,0.0,0.0,0.0,0.0,0.0,0.0,0.0,0.0,0.0,0.0,0.0,0.0,0.0,0.0,0.0,0.0,0.0,0.0,0.0,0.0,0.0,0.0,0.0,0.0,0.0,0.0,0.0,0.0,0.0,0.0,0.0,0.0,0.0,0.0,0.0,0.0,0.0,0.0,0.0,0.0,0.0,0.0,0.0,0.0,0.0,0.0,0.0,0.0,0.0,0.0,0.0,0.0,0.0,0.0,0.0,0.0,0.0,0.0,0.0,0.0,0.0,0.0,0.0,0.0,0.0,0.0,0.0,0.0,0.0,0.0,0.0,0.0,0.0,0.0,0.0,0.0,0.0,0.0,0.0,0.0,0.0,0.0,0.0,0.0,0.0,0.0,0.0,0.0,0.0,0.0,0.0,0.0,0.0,0.0,0.0,0.0,0.0,0.0,0.0,0.7988,0.7988,0.7988,0.0,0.7607,0.0,0.0,0.0,0.0,0.0,0.0,0.0,0.0,0.0,0.0,0.0,0.0,0.0,0.0,0.0,0.0,0.0,0.0,0.0,0.0,0.0,0.0,0.0,0.0,0.0,0.0,0.0,0.0,0.0,0.0,0.0,0.0,0.0,0.0,0.0,0.0,0.0,0.0,0.0,0.0,0.0,0.0,0.0,0.0,0.0,0.0,0.0,0.0,0.0,0.0,0.0,0.0,0.0,0.0,0.0,0.0,0.0,0.0,0.0,0.0,0.0,0.0,0.0,0.0,0.0,0.0,0.0,0.0,0.0,0.0,0.0,0.0,0.0,0.0,0.0,0.0,0.0,0.0,0.0,0.0,0.0,0.0,0.0,0.0,0.0,0.0,0.0,0.0,0.0,0.0,0.0,0.0,0.0,0.0,0.0,0.0,0.0,0.0,0.0,0.0,0.0,0.0,0.0,0.0,0.0,0.0,0.0,0.0,0.0,0.0,0.7988,0.7988,0.7988,0.7878,0.0,0.0,0.0,0.0,0.0,0.0,0.0,0.0,0.0,0.0,0.0,0.0,0.0,0.0,0.0,0.0,0.0,0.0,0.0,0.0,0.0,0.0,0.0,0.0,0.0,0.0,0.0,0.0,0.0,0.0,0.0,0.0,0.0,0.0,0.0,0.0,0.0,0.0,0.0,0.0,0.0,0.0,0.0,0.0,0.0,0.0,0.0,0.0,0.0,0.0,0.0,0.0,0.0,0.0,0.0,0.0,0.0,0.0,0.0,0.0,0.0,0.0,0.0,0.0,0.0,0.0,0.0,0.0,0.0,0.0,0.0,0.0,0.0,0.0,0.0,0.0,0.0,0.0,0.0,0.0,0.0,0.0,0.0,0.0,0.0,0.0,0.0,0.0,0.0,0.0,0.0,0.0,0.0,0.0,0.0,0.0,0.0,0.0,0.0,0.0,0.0,0.0,0.0,0.0,0.0,0.0,0.0,0.0,0.0,0.0,0.7889,0.7914,0.7988,0.7988,0.7878,0.7611,0.0,0.0,0.0,0.0,0.0,0.0,0.0,0.0,0.0,0.0,0.0,0.0,0.0,0.0,0.0,0.0,0.0,0.0,0.0,0.0,0.0,0.0,0.0,0.0,0.0,0.0,0.0,0.0,0.0,0.0,0.0,0.0,0.0,0.0,0.0,0.0,0.0,0.0,0.0,0.0,0.0,0.0,0.0,0.0,0.0,0.0,0.0,0.0,0.0,0.0,0.0,0.0,0.0,0.0,0.0,0.0,0.0,0.0,0.0,0.0,0.0,0.0,0.0,0.0,0.0,0.0,0.0,0.0,0.0,0.0,0.0,0.0,0.0,0.0,0.0,0.0,0.0,0.0,0.0,0.0,0.0,0.0,0.0,0.0,0.0,0.0,0.0,0.0,0.0,0.0,0.0,0.0,0.0,0.0,0.0,0.0,0.0,0.0,0.0,0.0,0.0,0.0,0.0,0.0,0.0,0.0,0.0,0.0,0.7596,0.7621,0.7746,0.7995,0.7988,0.7878,0.0,0.0,0.0,0.0,0.0,0.0,0.0,0.0,0.0,0.0,0.0,0.0,0.0,0.0,0.0,0.0,0.0,0.0,0.0,0.0,0.0,0.0,0.0,0.0,0.0,0.0,0.0,0.0,0.0,0.0,0.0,0.0,0.0,0.0,0.0,0.0,0.0,0.0,0.0,0.0,0.0,0.0,0.0,0.0,0.0,0.0,0.0,0.0,0.0,0.0,0.0,0.0,0.0,0.0,0.0,0.0,0.0,0.0,0.0,0.0,0.0,0.0,0.0,0.0,0.0,0.0,0.0,0.0,0.0,0.0,0.0,0.0,0.0,0.0,0.0,0.0,0.0,0.0,0.0,0.0,0.0,0.0,0.0,0.0,0.0,0.0,0.0,0.0,0.0,0.0,0.0,0.0,0.0,0.0,0.0,0.0,0.0,0.0,0.0,0.0,0.0,0.0,0.0,0.0,0.0,0.0,0.0,0.0,0.0,0.7596,0.7771,0.7967,0.818,0.8067,0.7878,0.0,0.0,0.0,0.0,0.0,0.0,0.0,0.0,0.0,0.0,0.0,0.0,0.0,0.0,0.0,0.0,0.0,0.0,0.0,0.0,0.0,0.0,0.0,0.0,0.0,0.0,0.0,0.0,0.0,0.0,0.0,0.0,0.0,0.0,0.0,0.0,0.0,0.0,0.0,0.0,0.0,0.0,0.0,0.0,0.0,0.0,0.0,0.0,0.0,0.0,0.0,0.0,0.0,0.0,0.0,0.0,0.0,0.0,0.0,0.0,0.0,0.0,0.0,0.0,0.0,0.0,0.0,0.0,0.0,0.0,0.0,0.0,0.0,0.0,0.0,0.0,0.0,0.0,0.0,0.0,0.0,0.0,0.0,0.0,0.0,0.0,0.0,0.0,0.0,0.0,0.0,0.0,0.0,0.0,0.0,0.0,0.0,0.0,0.0,0.0,0.0,0.0,0.0,0.0,0.0,0.0,0.0,0.0,0.0,0.7535,0.0,0.8087,0.8287,0.8167,0.7946,0.0,0.0,0.0,0.0,0.0,0.0,0.0,0.0,0.0,0.0,0.0,0.0,0.0,0.0,0.0,0.0,0.0,0.0,0.0,0.0,0.0,0.0,0.0,0.0,0.0,0.0,0.0,0.0,0.0,0.0,0.0,0.0,0.0,0.0,0.0,0.0,0.0,0.0,0.0,0.0,0.0,0.0,0.0,0.0,0.0,0.0,0.0,0.0,0.0,0.0,0.0,0.0,0.0,0.0,0.0,0.0,0.0,0.0,0.0,0.0,0.0,0.0,0.0,0.0,0.0,0.0,0.0,0.0,0.0,0.0,0.0,0.0,0.0,0.0,0.0,0.0,0.0,0.0,0.0,0.0,0.0,0.0,0.0,0.0,0.0,0.0,0.0,0.0,0.0,0.0,0.0,0.0,0.0,0.0,0.0,0.0,0.0,0.0,0.0,0.0,0.0,0.0,0.0,0.0,0.0,0.0,0.0,0.0,0.6482,0.7468,0.7858,0.8151,0.8308,0.832,0.8145,0.0,0.0,0.0,0.0,0.0,0.0,0.0,0.0,0.0,0.0,0.0,0.0,0.0,0.0,0.0,0.0,0.0,0.0,0.0,0.0,0.0,0.0,0.0,0.0,0.0,0.0,0.0,0.0,0.0,0.0,0.0,0.0,0.0,0.0,0.0,0.0,0.0,0.0,0.0,0.0,0.0,0.0,0.0,0.0,0.0,0.0,0.0,0.0,0.0,0.0,0.0,0.0,0.0,0.0,0.0,0.0,0.0,0.0,0.0,0.0,0.0,0.0,0.0,0.0,0.0,0.0,0.0,0.0,0.0,0.0,0.0,0.0,0.0,0.0,0.0,0.0,0.0,0.0,0.0,0.0,0.0,0.0,0.0,0.0,0.0,0.0,0.0,0.0,0.0,0.0,0.0,0.0,0.0,0.0,0.0,0.0,0.0,0.0,0.0,0.0,0.0,0.0,0.0,0.0,0.0,0.0,0.0,0.0,0.0,0.7871,0.838,0.8795,0.9169,0.8784,0.8502,0.0,0.0,0.0,0.0,0.0,0.0,0.0,0.0,0.0,0.0,0.0,0.0,0.0,0.0,0.0,0.0,0.0,0.0,0.0,0.0,0.0,0.0,0.0,0.0,0.0,0.0,0.0,0.0,0.0,0.0,0.0,0.0,0.0,0.0,0.0,0.0,0.0,0.0,0.0,0.0,0.0,0.0,0.0,0.0,0.0,0.0,0.0,0.0,0.0,0.0,0.0,0.0,0.0,0.0,0.0,0.0,0.0,0.0,0.0,0.0,0.0,0.0,0.0,0.0,0.0,0.0,0.0,0.0,0.0,0.0,0.0,0.0,0.0,0.0,0.0,0.0,0.0,0.0,0.0,0.0,0.0,0.0,0.0,0.0,0.0,0.0,0.0,0.0,0.0,0.0,0.0,0.0,0.0,0.0,0.0,0.0,0.0,0.0,0.0,0.0,0.0,0.0,0.0,0.0,0.0,0.0,0.0,0.0,0.0,0.7771,0.8301,0.8823,0.9455,0.8917,0.8608,0.8553,0.0,0.0,0.0,0.0,0.0,0.0,0.0,0.0,0.0,0.0,0.0,0.0,0.0,0.0,0.0,0.0,0.0,0.0,0.0,0.0,0.0,0.0,0.0,0.0,0.0,0.0,0.0,0.0,0.0,0.0,0.0,0.0,0.0,0.0,0.0,0.0,0.0,0.0,0.0,0.0,0.0,0.0,0.0,0.0,0.0,0.0,0.0,0.0,0.0,0.0,0.0,0.0,0.0,0.0,0.0,0.0,0.0,0.0,0.0,0.0,0.0,0.0,0.0,0.0,0.0,0.0,0.0,0.0,0.0,0.0,0.0,0.0,0.0,0.0,0.0,0.0,0.0,0.0,0.0,0.0,0.0,0.0,0.0,0.0,0.0,0.0,0.0,0.0,0.0,0.0,0.0,0.0,0.0,0.0,0.0,0.0,0.0,0.0,0.0,0.0,0.0,0.0,0.0,0.0,0.0,0.0,0.0,0.0,0.7284,0.7733,0.8365,0.9189,0.8759,0.8581,0.0,0.0,0.0,0.0,0.0,0.0,0.0,0.0,0.0,0.0,0.0,0.0,0.0,0.0,0.0,0.0,0.0,0.0,0.0,0.0,0.0,0.0,0.0,0.0,0.0,0.0,0.0,0.0,0.0,0.0,0.0,0.0,0.0,0.0,0.0,0.0,0.0,0.0,0.0,0.0,0.0,0.0,0.0,0.0,0.0,0.0,0.0,0.0,0.0,0.0,0.0,0.0,0.0,0.0,0.0,0.0,0.0,0.0,0.0,0.0,0.0,0.0,0.0,0.0,0.0,0.0,0.0,0.0,0.0,0.0,0.0,0.0,0.0,0.0,0.0,0.0,0.0,0.0,0.0,0.0,0.0,0.0,0.0,0.0,0.0,0.0,0.0,0.0,0.0,0.0,0.0,0.0,0.0,0.0,0.0,0.0,0.0,0.0,0.0,0.0,0.0,0.0,0.0,0.0,0.0,0.0,0.0,0.0,0.0,0.619,0.7,0.8029,0.9291,0.8892,0.8607,0.0,0.0,0.0,0.0,0.0,0.0,0.0,0.0,0.0,0.0,0.0,0.0,0.0,0.0,0.0,0.0,0.0,0.0,0.0,0.0,0.0,0.0,0.0,0.0,0.0,0.0,0.0,0.0,0.0,0.0,0.0,0.0,0.0,0.0,0.0,0.0,0.0,0.0,0.0,0.0,0.0,0.0,0.0,0.0,0.0,0.0,0.0,0.0,0.0,0.0,0.0,0.0,0.0,0.0,0.0,0.0,0.0,0.0,0.0,0.0,0.0,0.0,0.0,0.0,0.0,0.0,0.0,0.0,0.0,0.0,0.0,0.0,0.0,0.0,0.0,0.0,0.0,0.0,0.0,0.0,0.0,0.0,0.0,0.0,0.0,0.0,0.0,0.0,0.0,0.0,0.0,0.0,0.0,0.0,0.0,0.0,0.0,0.0,0.0,0.0,0.0,0.0,0.0,0.0,0.0,0.0,0.0,0.0,0.4516,0.562,0.6154,0.7015,0.8235,0.8295,0.8341,0.0,0.0,0.0,0.0,0.0,0.0,0.0,0.0,0.0,0.0,0.0,0.0,0.0,0.0,0.0,0.0,0.0,0.0,0.0,0.0,0.0,0.0,0.0,0.0,0.0,0.0,0.0,0.0,0.0,0.0,0.0,0.0,0.0,0.0,0.0,0.0,0.0,0.0,0.0,0.0,0.0,0.0,0.0,0.0,0.0,0.0,0.0,0.0,0.0,0.0,0.0,0.0,0.0,0.0,0.0,0.0,0.0,0.0,0.0,0.0,0.0,0.0,0.0,0.0,0.0,0.0,0.0,0.0,0.0,0.0,0.0,0.0,0.0,0.0,0.0,0.0,0.0,0.0,0.0,0.0,0.0,0.0,0.0,0.0,0.0,0.0,0.0,0.0,0.0,0.0,0.0,0.0,0.0,0.0,0.0,0.0,0.0,0.0,0.0,0.0,0.0,0.0,0.0,0.0,0.0,0.0,0.0,0.0,0.403,0.5174,0.529,0.5736,0.6543,0.7325,0.7791,0.0,0.0,0.0,0.0,0.0,0.0,0.0,0.0,0.0,0.0,0.0,0.0,0.0,0.0,0.0,0.0,0.0,0.0,0.0,0.0,0.0,0.0,0.0,0.0,0.0,0.0,0.0,0.0,0.0,0.0,0.0,0.0,0.0,0.0,0.0,0.0,0.0,0.0,0.0,0.0,0.0,0.0,0.0,0.0,0.0,0.0,0.0,0.0,0.0,0.0,0.0,0.0,0.0,0.0,0.0,0.0,0.0,0.0,0.0,0.0,0.0,0.0,0.0,0.0,0.0,0.0,0.0,0.0,0.0,0.0,0.0,0.0,0.0,0.0,0.0,0.0,0.0,0.0,0.0,0.0,0.0,0.0,0.0,0.0,0.0,0.0,0.0,0.0,0.0,0.0,0.0,0.0,0.0,0.0,0.0,0.0,0.0,0.0,0.0,0.0,0.0,0.0,0.0,0.0,0.0,0.0,0.0,0.0,0.3385,0.3974,0.4648,0.5206,0.568,0.674,0.7149,0.0,0.0,0.0,0.0,0.0,0.0,0.0,0.0,0.0,0.0,0.0,0.0,0.0,0.0,0.0,0.0,0.0,0.0,0.0,0.0,0.0,0.0,0.0,0.0,0.0,0.0,0.0,0.0,0.0,0.0,0.0,0.0,0.0,0.0,0.0,0.0,0.0,0.0,0.0,0.0,0.0,0.0,0.0,0.0,0.0,0.0,0.0,0.0,1.6984,0.0,0.0,0.0,0.0,0.0,0.0,0.0,0.0,0.0,0.0,0.0,0.0,0.0,0.0,0.0,0.0,0.0,0.0,0.0,0.0,0.0,0.0,0.0,0.0,0.0,0.0,0.0,0.0,0.0,0.0,0.0,0.0,0.0,0.0,0.0,0.0,0.0,0.0,0.0,0.0,0.0,0.0,0.0,0.0,0.0,0.0,0.0,0.0,0.0,0.0,0.0,0.0,0.0,0.0,0.0,0.0,0.0,0.0,0.0,0.2655,0.3161,0.3894,0.4424,0.476,0.5624,0.6165,0.0,0.0,0.0,0.0,0.0,0.0,0.0,0.0,0.0,0.0,0.0,0.0,0.0,0.0,0.0,0.0,0.0,0.0,0.0,0.0,0.0,0.0,0.0,0.0,0.0,0.0,0.0,0.0,0.0,0.0,0.0,0.0,0.0,0.0,0.0,0.0,0.0,0.0,0.0,0.0,0.0,0.0,0.0,0.0,0.0,0.0,0.0,0.0,0.0,0.0,0.0,0.0,0.0,0.0,0.0,0.0,0.0,0.0,0.0,0.0,0.0,0.0,0.0,0.0,0.0,0.0,0.0,0.0,0.0,0.0,0.0,0.0,0.0,0.0,0.0,0.0,0.0,0.0,0.0,0.0,0.0,0.0,0.0,0.0,0.0,0.0,0.0,0.0,0.0,0.0,0.0,0.0,0.0,0.0,0.0,0.0,0.0,0.0,0.0,0.0,0.0,0.0,0.0,0.0,0.0,0.0,0.0,0.1198,0.1949,0.2545,0.311,0.3561,0.3924,0.4456,0.5045,0.57,0.0,0.0,0.0,0.0,0.0,0.0,0.0,0.0,0.0,0.0,0.0,0.0,0.0,0.0,0.0,0.0,0.0,0.0,0.0,0.0,0.0,0.0,0.0,0.0,0.0,0.0,0.0,0.0,0.0,0.0,0.0,0.0,0.0,0.0,0.0,0.0,0.0,0.0,1.1378,1.3098,0.0,0.0,0.0,0.0,0.0,0.0,0.0,0.0,1.7069,0.0,0.0,0.0,0.0,0.0,0.0,0.0,0.0,0.0,0.0,0.0,0.0,0.0,0.0,0.0,0.0,0.0,0.0,0.0,0.0,0.0,0.0,0.0,0.0,0.0,0.0,0.0,0.0,0.0,0.0,0.0,0.0,0.0,0.0,0.0,0.0,0.0,0.0,0.0,0.0,0.0,0.0,0.0,0.0,0.0,0.0,0.0,0.0,0.0,0.0,0.0,0.0,0.0,0.0,0.0,0.0,-0.0585,0.0506,0.1327,0.1933,0.2244,0.2805,0.3645,0.3757,0.4055,0.4566,0.0,0.0,0.0,0.0,0.0,0.0,0.0,0.0,0.0,0.0,0.0,0.0,0.0,0.0,0.0,0.0,0.0,0.0,0.0,0.0,0.0,0.0,0.0,0.0,0.0,0.0,0.0,0.0,0.0,0.0,0.0,0.0,0.0,0.0,0.0,0.0,0.0,0.0,0.0,1.3418,1.4441,0.0,0.0,0.0,0.0,0.0,0.0,0.0,0.0,1.7033,0.0,0.0,0.0,0.0,0.0,0.0,0.0,0.0,0.0,0.0,0.0,0.0,0.0,0.0,0.0,0.0,0.0,0.0,0.0,0.0,0.0,0.0,0.0,0.0,0.0,0.0,0.0,0.0,0.0,0.0,0.0,0.0,0.0,0.0,0.0,0.0,0.0,0.0,0.0,0.0,0.0,0.0,0.0,0.0,0.0,0.0,0.0,0.0,0.0,0.0,0.0,0.0,0.0,0.0,0.0,-0.1461,-0.0479,0.0298,0.0868,0.129,0.1878,0.2636,0.2805,0.3035,0.0,0.0,0.0,0.0,0.0,0.0,0.0,0.0,0.0,0.0,0.0,0.0,0.0,0.0,0.0,0.0,0.0,0.0,0.0,0.0,0.0,0.0,0.0,0.0,0.0,0.0,0.0,0.0,0.0,0.0,0.0,0.0,0.0,0.0,0.0,0.0,0.0,0.0,0.0,0.0,1.3539,1.449,1.4975,0.0,0.0,0.0,0.0,0.0,0.0,1.6811,1.6861,0.0,0.0,0.0,0.0,0.0,0.0,0.0,0.0,0.0,0.0,0.0,0.0,0.0,0.0,0.0,0.0,0.0,0.0,0.0,0.0,0.0,0.0,0.0,0.0,0.0,0.0,0.0,0.0,0.0,0.0,0.0,0.0,0.0,0.0,0.0,0.0,0.0,0.0,0.0,0.0,0.0,0.0,0.0,0.0,0.0,0.0,0.0,0.0,0.0,0.0,0.0,0.0,0.0,0.0,0.0,-0.2259,-0.1411,-0.0731,-0.0196,0.0393,0.1009,0.1598,0.1874,0.2146,0.0,0.0,0.0,0.0,0.0,0.0,0.0,0.0,0.0,0.0,0.0,0.0,0.0,0.0,0.0,0.0,0.0,0.0,0.0,0.0,0.0,0.0,0.0,0.0,0.0,0.0,0.0,0.0,0.0,0.0,0.0,0.0,0.0,0.0,0.0,0.0,0.0,0.0,0.0,0.0,0.0,1.4439,1.4872,1.5274,0.0,0.0,0.0,0.0,1.6549,1.6647,0.0,0.0,0.0,0.0,0.0,0.0,0.0,0.0,0.0,0.0,0.0,0.0,0.0,0.0,0.0,0.0,0.0,0.0,0.0,0.0,0.0,0.0,0.0,0.0,0.0,0.0,0.0,0.0,0.0,0.0,0.0,0.0,0.0,0.0,0.0,0.0,0.0,0.0,0.0,0.0,0.0,0.0,0.0,0.0,0.0,0.0,0.0,0.0,0.0,0.0,0.0,0.0,0.0,0.0,0.0,0.0,-0.2815,-0.1997,-0.1327,-0.0811,-0.0196,0.0393,0.0981,0.1243,0.1522,0.0,0.0,0.0,0.0,0.0,0.0,0.0,0.0,0.0,0.0,0.0,0.0,0.0,0.0,0.0,0.0,0.0,0.0,0.0,0.0,0.0,0.0,0.0,0.0,0.0,0.0,0.0,0.0,0.0,0.0,0.0,0.0,0.0,0.0,0.0,0.0,0.0,0.0,0.0,0.0,0.0,1.425,1.5271,1.527,1.5248,0.0,0.0,1.5867,1.5929,1.6005,0.0,0.0,0.0,0.0,0.0,0.0,0.0,0.0,0.0,0.0,0.0,0.0,0.0,0.0,0.0,0.0,0.0,0.0,0.0,0.0,0.0,0.0,0.0,0.0,0.0,0.0,0.0,0.0,0.0,0.0,0.0,0.0,0.0,0.0,0.0,0.0,0.0,0.0,0.0,0.0,0.0,0.0,0.0,0.0,0.0,0.0,0.0,0.0,0.0,0.0,0.0,0.0,0.0,0.0,0.0,-0.4311,-0.3642,-0.3007,-0.233,-0.1651,-0.1234,-0.0757,-0.014,0.0167,0.0465,0.0,0.0,0.0,0.0,0.0,0.0,0.0,0.0,0.0,0.0,0.0,0.0,0.0,0.0,0.0,0.0,0.0,0.0,0.0,0.0,0.0,0.0,0.0,0.0,0.0,0.0,0.0,0.0,0.0,0.0,0.0,0.0,0.0,0.0,0.0,0.0,0.0,0.0,0.0,0.0,0.0,0.0,1.4744,1.4953,0.0,0.0,0.0,1.5691,1.5872,0.0,0.0,0.0,0.0,0.0,0.0,0.0,0.0,0.0,0.0,0.0,0.0,0.0,0.0,0.0,0.0,0.0,0.0,0.0,0.0,0.0,0.0,0.0,0.0,0.0,0.0,0.0,0.0,0.0,0.0,0.0,0.0,0.0,0.0,0.0,0.0,0.0,0.0,0.0,0.0,0.0,0.0,0.0,0.0,0.0,0.0,0.0,0.0,0.0,0.0,0.0,0.0,0.0,0.0,0.0,0.0,0.0,-0.4441,-0.3823,-0.3208,-0.2576,-0.2214,-0.1766,-0.1234,-0.0922,0.0,0.0,0.0,0.0,0.0,0.0,0.0,0.0,0.0,0.0,0.0,0.0,0.0,0.0,0.0,0.0,0.0,0.0,0.0,0.0,0.0,0.0,0.0,0.0,0.0,0.0,0.0,0.5902,0.0,0.0,0.0,0.0,0.0,0.0,0.0,0.0,0.0,0.0,0.0,0.0,0.0,0.0,1.3467,1.4279,1.4604,1.4898,0.0,0.0,1.5593,1.5844,1.5759,1.568,0.0,0.0,0.0,0.0,0.0,0.0,0.0,0.0,0.0,0.0,0.0,0.0,0.0,0.0,0.0,0.0,0.0,0.0,0.0,0.0,0.0,0.0,0.0,0.0,0.0,0.0,0.0,0.0,0.0,0.0,0.0,0.0,0.0,0.0,0.0,0.0,0.0,0.0,0.0,0.0,0.0,0.0,0.0,0.0,0.0,0.0,0.0,0.0,0.0,0.0,0.0,0.0,0.0,0.0,0.0,-0.5028,-0.4246,-0.3743,-0.3499,-0.294,-0.2466,-0.2102,-0.1851,-0.1696,0.0,0.0,0.0,0.0,0.0,0.0,0.0,0.0,0.0,0.0,0.0,0.0,0.0,0.0,0.0,0.0,0.0,0.0,0.0,0.0,0.0,0.0,0.0,0.0,0.0,0.0,0.0,0.0,0.0,0.0,0.0,0.0,0.0,0.0,0.0,0.0,0.0,0.0,0.0,0.0,0.0,1.3213,1.4255,1.4408,1.4539,0.0,0.0,1.5528,1.5538,1.5409,1.5328,1.5338,0.0,0.0,0.0,0.0,0.0,0.0,0.0,0.0,0.0,0.0,0.0,0.0,0.0,0.0,0.0,0.0,0.0,0.0,0.0,0.0,0.0,0.0,0.0,0.0,0.0,0.0,0.0,0.0,0.0,0.0,0.0,0.0,0.0,0.0,0.0,0.0,0.0,0.0,0.0,0.0,0.0,0.0,0.0,0.0,0.0,0.0,0.0,0.0,0.0,0.0,0.0,0.0,0.0,-0.5976,-0.5342,-0.4901,-0.4515,-0.417,-0.3726,-0.3362,-0.3085,-0.2758,-0.2514,0.0,0.0,0.0,0.0,0.0,0.0,0.0,0.0,0.0,0.0,0.0,0.0,0.0,0.0,0.0,0.0,0.0,0.0,0.0,0.0,0.0,0.0,0.0,0.0,0.0,0.0,0.0,0.0,0.5921,0.6055,0.6004,0.0,0.0,0.0,0.0,0.0,0.0,0.0,0.0,0.0,0.0,1.3054,1.37,1.4146,0.0,0.0,1.4898,1.5137,1.5137,1.5059,1.4995,1.4995,1.46,0.0,0.0,0.0,0.0,0.0,0.0,0.0,0.0,0.0,0.0,0.0,0.0,0.0,0.0,0.0,0.0,0.0,0.0,0.0,0.0,0.0,0.0,0.0,0.0,0.0,0.0,0.0,0.0,0.0,0.0,0.0,0.0,0.0,0.0,0.0,0.0,0.0,0.0,0.0,0.0,0.0,0.0,0.0,0.0,0.0,0.0,0.0,0.0,0.0,0.0,0.0,0.0,-0.6532,-0.5945,-0.5673,-0.5285,-0.4784,-0.4536,-0.4232,-0.3894,-0.3642,-0.3372,0.0,0.0,0.0,0.0,0.0,0.0,0.0,0.0,0.0,0.0,0.0,0.0,0.0,0.0,0.0,0.0,0.0,0.0,0.0,0.0,0.0,0.0,0.0,0.0,0.0,0.0,0.0,0.0,0.532,0.5457,0.5179,0.0,0.0,0.0,0.0,0.0,0.0,0.0,0.0,0.0,0.0,1.2739,1.3152,1.3728,1.4146,1.4235,1.4539,1.4768,1.4735,1.4734,1.4726,1.4726,0.0,0.0,0.0,0.0,0.0,0.0,0.0,0.0,0.0,0.0,0.0,0.0,0.0,0.0,0.0,0.0,0.0,0.0,0.0,0.0,0.0,0.0,0.0,0.0,0.0,0.0,0.0,0.0,0.0,0.0,-1.1465,0.0,0.0,0.0,0.0,0.0,0.0,0.0,0.0,0.0,0.0,0.0,0.0,0.0,0.0,0.0,0.0,0.0,0.0,0.0,0.0,0.0,0.0,-0.724,-0.698,-0.6493,-0.5991,-0.5401,-0.5373,-0.507,-0.4512,-0.448,-0.4313,-0.398,0.0,0.0,0.0,0.0,0.0,0.0,0.0,0.0,0.0,0.0,0.0,0.0,0.0,0.0,0.0,0.0,0.0,0.0,0.0,0.0,0.0,0.0,0.0,0.0,0.0,0.0,0.4707,0.48,0.4766,0.0,0.0,0.0,0.0,0.0,0.0,0.0,0.0,0.0,0.0,1.1417,1.22,1.2742,1.3169,1.3531,1.3851,1.4202,1.4408,1.4408,1.4493,1.4597,0.0,0.0,0.0,0.0,0.0,0.0,0.0,0.0,0.0,0.0,0.0,0.0,0.0,0.0,0.0,0.0,0.0,0.0,0.0,0.0,0.0,0.0,0.0,0.0,0.0,0.0,0.0,-1.2191,-1.1962,0.0,0.0,0.0,0.0,0.0,0.0,0.0,0.0,0.0,0.0,0.0,-0.9375,-0.9375,0.0,0.0,0.0,0.0,0.0,0.0,0.0,0.0,0.0,0.0,0.0,0.0,-0.7441,-0.7018,-0.6819,-0.6516,-0.6087,-0.5954,-0.5668,-0.5322,-0.5092,-0.4782,-0.4417,0.0,0.0,0.0,0.0,0.0,0.0,0.0,0.0,0.0,0.0,0.0,0.0,0.0,0.0,0.0,0.0,0.0,0.0,0.0,0.0,0.0,0.0,0.0,0.0,0.0,0.3681,0.0,0.0,0.0,0.0,0.0,0.0,0.0,0.0,0.0,0.0,0.0,0.9361,1.028,1.1133,1.1875,1.2413,1.2766,1.3137,0.0,0.0,0.0,0.0,0.0,0.0,0.0,0.0,0.0,0.0,0.0,0.0,0.0,0.0,1.5677,1.5838,1.6124,1.6542,1.7142,0.0,0.0,0.0,0.0,0.0,0.0,0.0,0.0,0.0,0.0,0.0,0.0,0.0,0.0,-1.1988,0.0,-1.17,0.0,0.0,0.0,0.0,0.0,0.0,0.0,0.0,-0.9813,-0.9723,-0.9686,-0.9639,-0.9612,0.0,-0.9716,-0.9652,0.0,0.0,0.0,0.0,0.0,0.0,0.0,0.0,-0.7922,-0.7504,-0.7351,-0.7083,-0.6652,-0.6517,-0.632,-0.5994,-0.5588,-0.5181,-0.481,-0.4503,-0.4261,0.0,0.0,0.0,0.0,0.0,0.0,0.0,0.0,0.0,0.0,0.0,0.0,0.0,0.0,0.0,0.0,0.0,0.0,0.0,0.0,0.0,0.0,0.0,0.3296,0.0,0.0,0.0,0.0,0.0,0.0,0.0,0.0,0.0,0.6446,0.7655,0.8796,0.9697,1.0635,1.1323,1.1696,0.0,0.0,0.0,0.0,0.0,0.0,0.0,1.3902,1.4098,1.4056,1.4111,1.4461,1.4684,1.4884,1.5011,0.0,0.0,1.5888,1.6276,1.6785,1.7353,1.7943,1.849,1.8977,1.9691,2.0245,0.0,0.0,0.0,0.0,0.0,0.0,0.0,0.0,-1.1941,-1.1585,0.0,-1.1113,0.0,0.0,0.0,0.0,0.0,-1.0292,0.0,0.0,-1.0295,-1.0308,-1.0263,-1.0082,-0.999,-0.9977,-0.9768,-0.9632,-0.9641,-0.9882,0.0,0.0,0.0,0.0,0.0,0.0,-0.8603,-0.8369,-0.8125,-0.7723,-0.7139,-0.7086,-0.694,-0.6593,-0.6036,-0.5567,-0.5244,-0.4976,-0.4727,-0.455,-0.4487,0.0,0.0,0.0,0.0,0.0,0.0,0.0,0.0,0.0,0.0,0.0,0.0,0.0,0.0,0.0,0.0,0.0,0.0,0.0,0.0,0.2505,0.0,0.0,0.0,0.0,0.0,0.0,0.0,0.0,0.0,0.0,0.6078,0.7024,0.7891,0.8741,0.0,0.0,0.0,0.0,1.209,1.2494,1.2966,1.3412,1.3763,1.4018,1.4123,1.4156,0.0,0.0,1.4824,1.4898,1.502,1.5398,1.5535,1.5748,1.619,1.6775,1.7411,1.8025,1.8856,1.9698,2.0123,2.0738,2.1485,-1.3653,0.0,0.0,0.0,0.0,-1.2659,-1.2314,-1.1863,-1.1773,-1.147,-1.1063,-1.1134,0.0,0.0,0.0,0.0,0.0,0.0,-1.0321,-1.0308,-1.0308,-1.0308,-1.0276,-1.0236,-1.0215,-1.0209,-1.0127,-1.0086,-1.0111,-1.0043,-0.9799,-0.9418,0.0,0.0,0.0,0.0,-0.8698,-0.8387,-0.8219,-0.794,-0.7525,-0.7365,-0.714,-0.6808,-0.641,-0.6138,-0.5979,-0.5469,-0.5097,-0.4998,-0.4817,0.0,0.0,0.0,0.0,0.0,0.0,0.0,0.0,0.0,0.0,0.0,0.0,0.0,0.0,0.0,0.0,0.0,0.0,0.0,0.2217,0.2377,0.2413,0.0,0.0,0.0,0.0,0.0,0.0,0.0,0.0,0.0,0.473,0.6122,0.7228,0.0,0.0,0.9685,1.0019,1.0625,1.1263,1.1781,1.2274,0.0,1.2861,1.3069,1.3311,1.3575,1.405,1.4441,1.4539,1.4735,1.4931,1.5071,1.5316,1.5637,1.6007,1.6559,1.7128,1.7784,1.8318,1.89,1.9694,2.0258,2.0772,-1.392,-1.3673,-1.3388,-1.3073,-1.2716,-1.2489,-1.2135,-1.1701,-1.1701,-1.1476,-1.1084,-1.1157,-1.1018,-1.0769,-1.081,0.0,0.0,0.0,-1.0399,-1.0453,-1.0453,-1.0453,-1.0453,-1.0392,-1.0397,-1.0365,-1.031,-1.0308,-1.0276,-1.0188,-0.9974,-0.9771,0.0,0.0,-0.9469,-0.9264,-0.9026,-0.8752,-0.857,-0.8334,-0.8022,-0.7835,-0.7552,-0.724,-0.7017,-0.6771,-0.6465,-0.6057,-0.5722,-0.5492,-0.5305,-0.5101,0.0,0.0,0.0,0.0,0.0,0.0,0.0,0.0,0.0,0.0,0.0,-0.0294,-0.0027,0.0,0.0,0.0,0.0973,0.15,0.1912,0.2074,0.0,0.0,0.0,0.0,0.0,0.0,0.0,0.2692,0.3095,0.3584,0.4136,0.539,0.6436,0.6898,0.8076,0.9012,0.9288,0.0,1.0766,1.1289,1.1748,1.2176,1.2546,1.2657,1.288,1.3309,1.3728,1.4113,1.4375,1.4572,1.4735,1.4898,1.5234,1.5593,1.5941,1.636,1.6928,1.7713,1.8246,1.8851,1.9691,2.0248,2.0759,-1.4151,-1.3718,-1.3056,-1.2793,-1.2735,-1.239,-1.1995,-1.1662,-1.1662,-1.1483,-1.12,-1.12,-1.1009,-1.0744,-1.0506,0.0,-1.0541,-1.0574,-1.0622,-1.0725,-1.0718,-1.0718,-1.0698,-1.0595,-1.0521,-1.054,-1.0378,-1.0349,-1.0349,-1.0304,-1.0329,-1.0315,-0.9876,-0.9666,-0.9659,-0.9666,-0.9546,-0.9337,-0.9068,-0.8786,-0.85,-0.8303,-0.8071,-0.7746,-0.7714,-0.7395,-0.6791,-0.6643,-0.6398,-0.5941,-0.5851,-0.5646,-0.5241,0.0,0.0,0.0,0.0,0.0,0.0,0.0,0.0,0.0,0.0,0.0,0.0,0.0,0.0,0.0,0.0978,0.0,0.1395,0.1714,0.0,0.0,0.0,0.1952,0.2012,0.2015,0.2287,0.2964,0.0,0.0,0.4092,0.4872,0.5647,0.6317,0.7584,0.849,0.85,0.949,1.042,1.0826,1.1323,1.1881,1.2509,1.2658,1.2794,1.3227,1.3367,1.3663,1.4211,1.4408,1.4539,1.4866,1.5202,1.5561,1.5909,1.6246,1.6753,1.7753,1.8472,1.9188,1.9897,2.0531,2.1119,-1.4038,-1.3728,-1.2971,-1.2583,-1.2503,-1.2395,-1.2044,-1.1482,-1.1475,-1.1378,-1.12,-1.12,-1.1159,-1.1091,-1.1023,-1.1002,-1.1036,-1.1036,-1.1057,-1.1091,-1.1091,-1.1002,-1.086,-1.0826,-1.0745,-1.067,-1.0629,-1.0583,-1.0609,-1.05,-1.0439,-1.0432,-1.0229,-1.0152,-1.0152,-1.012,-0.9977,-0.9689,-0.9374,-0.8919,-0.8314,-0.822,-0.814,-0.8071,-0.7842,-0.7527,-0.7111,-0.6837,-0.6496,-0.6148,-0.6035,-0.5823,-0.5521,-0.5019,0.0,0.0,0.0,0.0,0.0,0.0,0.0,0.0,0.0,-0.0565,-0.0029,0.0,0.003,0.0,0.0717,0.12,0.1452,0.1806,0.0,0.0,0.2059,0.2067,0.2074,0.2074,0.2251,0.2684,0.2994,0.3377,0.3844,0.4766,0.5446,0.5647,0.6648,0.7512,0.7892,0.8526,0.9339,1.0182,1.0711,1.1243,1.2052,1.2517,1.279,1.2906,1.3202,1.3531,1.3973,1.4235,1.4497,1.4833,1.4973,1.53,1.5876,1.6071,1.6494,1.74,1.798,1.8655,1.9807,2.0234,2.0679,-1.3854,-1.3542,-1.3043,-1.262,-1.2368,-1.2298,-1.2063,-1.173,-1.1687,-1.1606,-1.145,-1.1356,-1.1302,-1.1295,-1.1227,-1.12,-1.12,-1.12,-1.12,-1.12,-1.12,-1.1152,-1.1043,-1.1043,-1.1002,-1.0921,-1.0914,-1.0887,-1.0786,-1.0704,-1.0663,-1.0595,-1.0514,-1.0473,-1.0473,-1.0376,-1.0213,-1.0015,-0.9569,-0.9086,-0.8544,-0.8432,-0.8388,-0.8394,-0.8193,-0.7867,-0.735,-0.7113,-0.6794,-0.6271,-0.5966,-0.576,-0.5601,-0.5015,-0.4505,0.0,0.0,0.0,0.0,0.0,0.0,0.0,0.0,0.0,0.0,0.0,0.0,0.0,0.0607,0.1064,0.1258,0.1784,0.2111,0.2098,0.2109,0.2116,0.2117,0.2247,0.2457,0.2822,0.3227,0.367,0.4199,0.491,0.5446,0.5614,0.6414,0.7139,0.7593,0.8293,0.9102,0.9777,1.0229,1.0811,1.1777,1.2408,1.2799,1.2807,1.3005,1.3301,1.3809,1.4039,1.4333,1.4768,1.4898,1.5127,1.5844,1.6006,1.6331,1.7238,1.7787,1.8451,1.9616,1.9998,2.0488,-1.3712,-1.3336,-1.3163,-1.2797,-1.2366,-1.221,-1.2152,-1.2098,-1.2098,-1.1986,-1.1807,-1.1514,-1.1393,-1.1366,-1.1203,-1.1135,-1.1115,-1.1115,-1.1115,-1.1115,-1.1115,-1.1108,-1.1054,-1.1054,-1.1082,-1.102,-1.1061,-1.096,-1.0805,-1.0805,-1.0739,-1.0618,-1.0612,-1.0612,-1.0598,-1.0358,-1.025,-1.021,-0.9682,-0.9255,-0.8863,-0.8734,-0.8656,-0.8623,-0.8551,-0.8189,-0.7488,-0.7337,-0.6961,-0.6234,-0.5764,-0.5526,-0.549,-0.4814,-0.4276,0.0,-0.3246,0.0,0.0,0.0,0.0,0.0,0.0,0.0,0.0,0.0,0.0,0.0065,0.0648,0.1038,0.1069,0.1706,0.2105,0.2113,0.2099,0.2116,0.2182,0.2445,0.2789,0.3224,0.3564,0.407,0.4672,0.5144,0.5547,0.5949,0.6619,0.7221,0.7593,0.839,0.9162,0.9628,1.0127,1.089,1.1659,1.2379,1.2799,1.2799,1.2807,1.3062,1.3777,1.3908,1.4104,1.4735,1.4898,1.516,1.5876,1.6006,1.6299,1.7206,1.7723,1.8323,1.9296,1.9839,2.052,-1.3619,-1.3539,-1.316,-1.294,-1.286,-1.2671,-1.24,-1.2098,-1.2098,-1.2084,-1.2013,-1.1589,-1.1386,-1.1276,-1.0886,-1.0703,-1.0632,-1.0632,-1.0626,-1.0626,-1.0626,-1.0534,-1.0399,-1.0399,-1.0337,-1.0231,-1.0225,-1.0213,-1.016,-1.016,-1.0141,-1.0116,-1.0151,-1.0116,-1.0116,0.0,0.0,0.0,-0.9711,-0.932,-0.869,-0.8906,-0.8884,-0.8623,-0.8323,0.0,-0.7121,-0.684,-0.6327,-0.5626,-0.5386,0.0,0.0,0.0,0.0,0.0,0.0,0.0,0.0,0.0,0.0,0.0,-0.0573,-0.0414,0.0,0.0,0.0098,0.0394,0.0796,0.1202,0.1469,0.1908,0.2178,0.2172,0.2177,0.228,0.255,0.2648,0.2922,0.3598,0.3768,0.407,0.4705,0.5144,0.5681,0.6317,0.6991,0.7522,0.7922,0.8423,0.8956,0.9628,1.0658,1.1486,1.1784,1.2379,1.2799,1.2799,1.2799,1.3095,1.3711,1.3908,1.4137,1.4768,1.4898,1.5127,1.5834,1.6006,1.6234,1.6947,1.7582,1.8226,1.904,1.9679,2.0425,-1.3421,-1.3374,-1.2869,-1.2642,0.0,-1.2277,-1.2043,-1.1876,-1.1963,-1.182,-1.1529,-1.1233,-1.1083,-1.1057,-1.0798,-1.0687,-1.0657,-1.0657,-1.062,-1.0553,-1.0553,-1.048,-1.0358,-1.0358,-1.0321,-1.0218,-1.0254,-1.0182,-1.0092,-1.0092,-1.0056,-1.0024,-1.0024,-1.0024,-0.9989,-0.985,-0.9785,-0.9857,-0.9687,-0.9415,-0.9041,-0.8837,-0.8667,-0.8497,-0.7952,0.0,0.0,0.0,0.0,0.0,0.0,0.0,0.0,-0.3988,0.0,-0.3128,-0.2784,-0.2356,-0.1806,-0.1419,-0.1035,-0.0554,-0.0328,-0.0197,0.0,0.0,0.0133,0.0466,0.0872,0.1245,0.1582,0.1953,0.2189,0.2223,0.2357,0.2526,0.2694,0.303,0.3365,0.3734,0.4101,0.4504,0.5044,0.5614,0.615,0.6686,0.7355,0.7922,0.8289,0.8617,0.9123,0.9861,1.0989,1.1784,1.1883,1.2379,1.2799,1.2807,1.2972,1.3293,1.3809,1.4039,1.431,1.4768,1.4898,1.5127,1.5811,1.6006,1.6201,1.6872,1.7518,1.8066,1.8527,1.936,2.0329,-1.3091,-1.2955,-1.2437,-1.227,-1.223,-1.1835,-1.1529,-1.1372,0.0,0.0,0.0,-1.0842,-1.0769,-1.0751,-1.067,-1.0621,-1.0603,-1.0603,-1.0543,-1.0436,-1.0436,-1.0419,-1.0384,-1.0323,-1.0348,-1.0311,-1.0287,-1.0221,-1.0054,-1.0048,-0.9953,-0.9788,-0.9777,-0.9742,-0.9637,-0.9398,-0.9398,-0.9637,-0.9492,-0.933,-0.9191,-0.8676,-0.8328,-0.8189,-0.7488,-0.693,-0.6508,-0.6054,-0.5639,-0.5324,-0.4609,-0.4202,-0.4197,-0.3474,-0.2933,-0.2665,-0.2506,-0.2161,-0.1473,-0.1113,-0.0757,-0.0433,-0.0168,0.0,0.0,0.0067,0.0236,0.0572,0.0976,0.1346,0.1649,0.1987,0.2223,0.229,0.2526,0.2727,0.2896,0.3398,0.3835,0.4003,0.447,0.501,0.5547,0.612,0.6686,0.7154,0.7789,0.839,0.879,0.915,0.9582,1.0359,1.1214,1.1817,1.1975,1.2404,1.2766,1.2799,1.3137,1.3498,1.3851,1.4179,1.4506,1.4833,1.4931,1.529,1.5844,1.6071,1.6299,1.698,1.755,1.8033,1.8206,1.9168,2.0265,-1.2577,-1.2245,-1.2144,-1.2138,-1.2125,-1.1844,-1.1283,-1.0574,-1.1183,-1.1427,-1.1324,-1.0835,-1.0602,-1.0498,-1.0117,-0.991,-0.9859,-0.9859,-0.9848,-0.9831,-0.9831,-0.982,-0.9798,-0.9698,-0.9643,-0.9637,-0.9538,-0.9477,-0.9424,-0.9424,-0.9233,-0.8935,-0.8863,-0.8719,-0.8395,-0.8323,-0.8323,-0.839,-0.8776,-0.867,-0.8074,-0.8214,-0.8005,-0.7383,-0.6965,-0.6438,-0.5775,-0.5042,-0.4482,-0.4135,-0.3708,-0.346,-0.3425,-0.3062,-0.2814,-0.2746,-0.2151,-0.163,-0.1178,-0.0797,-0.0416,-0.0104,-0.0035,0.0,0.0,0.0269,0.0606,0.0976,0.1314,0.1683,0.2054,0.219,0.2325,0.2561,0.266,0.2929,0.3533,0.3768,0.4037,0.4571,0.4739,0.5242,0.6116,0.6451,0.6953,0.7755,0.8323,0.8889,0.9688,0.9987,1.0319,1.0949,1.1479,1.1876,1.2173,1.2536,1.2774,1.2799,1.3137,1.3564,1.3875,1.4211,1.4539,1.4833,1.5169,1.5528,1.5941,1.6234,1.6613,1.7227,1.7689,1.8043,1.8384,1.9343,2.0195,-1.2303,-1.2027,-1.157,-1.1362,-1.1314,-1.076,-1.0252,-0.983,-1.0079,-1.0155,-1.0081,-0.9777,-0.9659,-0.9607,-0.939,-0.9256,-0.9211,-0.9211,-0.9175,-0.9119,-0.9119,-0.9084,-0.8985,-0.8935,-0.8909,-0.8909,-0.8859,-0.8797,-0.8797,-0.8797,-0.8723,-0.8538,-0.8538,-0.8464,-0.8243,-0.8063,-0.7841,-0.7651,-0.8153,-0.8221,-0.7718,-0.7647,-0.7327,-0.6757,-0.6222,-0.5652,-0.5116,-0.4545,-0.408,-0.3689,-0.3307,-0.3081,-0.3081,-0.2533,-0.2209,-0.2209,-0.1683,-0.1192,-0.0807,-0.0421,-0.014,-0.0035,0.021,0.0314,0.031,0.0482,0.0791,0.1343,0.1549,0.1791,0.2169,0.236,0.2554,0.269,0.3044,0.3501,0.3969,0.4238,0.4574,0.5044,0.548,0.5915,0.6422,0.702,0.7588,0.8323,0.8956,0.9721,1.0359,1.0618,1.0817,1.1181,1.171,1.2074,1.2305,1.2568,1.284,1.3071,1.3424,1.3785,1.4113,1.4441,1.4702,1.4898,1.5234,1.5626,1.5941,1.6277,1.6678,1.7128,1.7553,1.7932,1.8384,1.9306,2.0375,-1.1661,-1.149,-1.0777,-1.0383,-1.0226,-0.9537,-0.9151,-0.8938,-0.8861,-0.8702,-0.8535,-0.8785,-0.8849,-0.8765,-0.873,-0.8639,-0.8542,-0.8538,-0.8482,-0.8352,-0.8347,-0.8301,-0.819,-0.8167,-0.8153,-0.8149,-0.813,-0.8117,-0.8121,-0.8117,-0.8084,-0.8008,-0.7895,-0.7858,-0.7858,-0.7561,-0.7222,-0.6988,-0.738,-0.7491,-0.723,-0.6942,-0.6535,-0.6023,-0.5436,-0.4889,-0.4446,-0.4043,-0.3712,-0.3418,-0.2986,-0.275,-0.2632,-0.2073,-0.1669,-0.1559,-0.1203,-0.0814,-0.0425,-0.0142,0.0035,0.0142,0.0425,0.0672,0.0849,0.0885,0.1094,0.1616,0.1787,0.1962,0.231,0.2571,0.2796,0.2967,0.3546,0.406,0.4395,0.4717,0.5111,0.5614,0.6154,0.6552,0.6953,0.7655,0.839,0.8989,0.9755,1.0425,1.079,1.1148,1.1446,1.1545,1.1942,1.2312,1.2412,1.2708,1.3038,1.3367,1.3752,1.4071,1.4375,1.467,1.4964,1.5062,1.5355,1.5756,1.6071,1.6344,1.6711,1.7166,1.7425,1.7718,1.8434,1.9489,2.0574,-1.029,-0.9941,-0.9802,-0.9497,-0.9069,-0.8857,-0.8319,-0.7649,-0.7554,-0.7296,-0.7107,-0.8345,-0.8711,-0.8469,-0.8415,-0.8122,-0.7731,-0.7687,-0.7682,-0.7599,-0.7591,-0.7587,-0.7566,-0.7453,-0.7417,-0.7404,-0.7334,-0.7343,-0.7343,-0.7302,-0.7109,-0.6766,-0.6393,-0.6287,-0.6245,-0.6208,-0.617,-0.6091,-0.6153,-0.6183,-0.6146,-0.6108,-0.5732,-0.4979,-0.4904,-0.4452,-0.3765,-0.3321,-0.3095,-0.3019,-0.2674,-0.2284,-0.1927,-0.1811,-0.1618,-0.1274,-0.0872,-0.0473,-0.0073,-0.0036,0.0182,0.0509,0.0581,0.0944,0.156,0.1669,0.169,0.1802,0.2001,0.232,0.2698,0.2801,0.3114,0.3706,0.4112,0.4487,0.4854,0.515,0.5617,0.6317,0.6552,0.6857,0.7755,0.8323,0.8989,0.9821,1.0326,1.0817,1.1181,1.1677,1.2114,1.2173,1.2312,1.247,1.2708,1.3071,1.3334,1.3465,1.3949,1.4277,1.4473,1.4735,1.4996,1.53,1.5714,1.6071,1.6302,1.6572,1.6858,1.7251,1.749,1.7703,1.8875,1.9901,2.0698,-0.9465,-0.9241,-0.8675,-0.818,-0.7753,-0.7676,-0.7451,-0.711,-0.6767,-0.6496,-0.6398,-0.6714,-0.7058,-0.73,-0.7292,-0.7129,-0.6938,-0.6938,-0.696,-0.693,-0.6886,-0.6861,-0.6853,-0.6823,-0.674,-0.6731,-0.666,-0.668,-0.6641,-0.6645,-0.6606,-0.6414,-0.626,-0.6032,-0.58,-0.5527,-0.5296,-0.5067,-0.4797,-0.4678,-0.4747,-0.5109,-0.492,-0.42,-0.4086,-0.3822,-0.3332,-0.3067,-0.2802,-0.2348,-0.2158,-0.1851,-0.1466,-0.1202,-0.1012,-0.0821,-0.0482,-0.0074,0.0332,0.0366,0.0511,0.0949,0.1167,0.1458,0.1786,0.2187,0.243,0.2446,0.2548,0.2763,0.319,0.3385,0.3723,0.4249,0.4622,0.5021,0.5563,0.5911,0.6314,0.6765,0.7355,0.7856,0.839,0.9056,0.9755,1.0392,1.0784,1.1181,1.1743,1.2107,1.2346,1.2576,1.2774,1.3005,1.3137,1.3268,1.3564,1.3916,1.4211,1.4441,1.4702,1.4996,1.53,1.5505,1.5952,1.6205,1.6221,1.6668,1.7013,1.7309,1.7786,1.8163,1.8669,1.9677,2.0413,-0.8556,-0.8364,-0.7592,-0.6889,-0.6364,-0.6348,-0.6252,-0.6076,-0.5727,-0.5539,-0.5533,-0.5192,-0.5364,-0.5861,-0.5946,-0.5938,-0.58,-0.5797,-0.5788,-0.5813,-0.577,-0.5783,-0.574,-0.5737,-0.5673,-0.5631,-0.5625,-0.5625,-0.5664,-0.5625,-0.5655,-0.56,-0.5594,-0.5431,-0.5103,-0.4787,-0.4513,-0.4238,-0.3925,-0.3729,-0.3681,-0.3974,-0.3937,-0.3515,-0.344,-0.3211,-0.2716,-0.2716,-0.2372,-0.1722,-0.1644,-0.149,-0.1065,-0.0761,-0.0494,-0.0265,0.0,0.0336,0.0785,0.0815,0.0958,0.1327,0.1727,0.2015,0.2197,0.2703,0.3136,0.3387,0.3389,0.3569,0.3787,0.4049,0.4387,0.4881,0.5325,0.582,0.6256,0.6678,0.7103,0.7482,0.8146,0.8789,0.9095,0.9755,1.0459,1.0784,1.1214,1.1644,1.2173,1.2379,1.2576,1.2906,1.3202,1.3334,1.34,1.363,1.3916,1.4211,1.4473,1.4702,1.4964,1.5332,1.5691,1.5854,1.6277,1.6517,1.6562,1.6859,1.7094,1.7244,1.7742,1.8395,1.8638,1.9562,2.014,-0.7301,-0.7194,-0.6596,-0.5819,-0.4978,-0.4978,-0.4698,-0.4442,-0.4257,-0.4212,-0.4255,-0.4206,-0.4206,-0.4278,-0.4574,-0.451,-0.4098,-0.4135,-0.4153,-0.4159,-0.4155,-0.4067,-0.3984,-0.4022,-0.4061,-0.421,-0.4248,-0.4172,-0.4133,-0.4097,-0.3957,-0.3995,-0.4073,-0.3969,-0.39,-0.3896,-0.3848,-0.366,-0.366,-0.3536,-0.3104,-0.2787,-0.2823,-0.3018,-0.3093,-0.2698,-0.2075,-0.196,-0.1764,-0.1333,-0.1331,-0.1092,-0.0656,-0.0578,-0.0192,0.0418,0.0568,0.0794,0.1173,0.1284,0.1434,0.1772,0.2203,0.2525,0.2894,0.3312,0.3805,0.4522,0.4525,0.4598,0.4701,0.4727,0.5017,0.5699,0.6363,0.6741,0.6867,0.7489,0.8099,0.8518,0.8781,0.9278,1.0019,1.0452,1.0817,1.1247,1.1776,1.2246,1.2338,1.2568,1.2906,1.3202,1.34,1.3441,1.3465,1.3818,1.4211,1.4506,1.4735,1.5006,1.5267,1.5561,1.5919,1.6212,1.6429,1.6656,1.684,1.7003,1.7135,1.7398,1.7912,1.8415,1.8765,1.9635,2.0213,-0.5607,-0.5336,-0.5092,-0.4818,-0.4504,-0.4486,-0.4391,-0.4168,-0.383,-0.3731,-0.364,-0.3401,-0.3087,-0.2824,-0.2976,-0.3416,-0.3972,-0.3985,-0.3961,-0.3947,-0.3989,-0.3933,-0.3909,-0.3907,-0.389,-0.3907,-0.3905,-0.3905,-0.3905,-0.3905,-0.3897,-0.3884,-0.388,-0.3588,-0.3133,-0.3011,-0.277,-0.2249,-0.221,-0.2089,-0.2007,-0.1808,-0.1808,-0.1926,-0.1939,-0.1806,-0.1531,-0.1531,-0.1296,-0.0864,-0.0864,-0.0549,0.0117,0.0468,0.074,0.1008,0.1039,0.1226,0.157,0.1901,0.2235,0.2612,0.3016,0.327,0.3531,0.4005,0.4506,0.4807,0.5274,0.5663,0.5984,0.5716,0.572,0.6438,0.6813,0.72,0.7647,0.8237,0.8734,0.8974,0.9405,1.0137,1.0739,1.1052,1.1254,1.181,1.2147,1.2379,1.2609,1.2931,1.3235,1.3433,1.3752,1.4048,1.4048,1.4179,1.4473,1.4768,1.4996,1.5234,1.5495,1.5919,1.6309,1.6429,1.6623,1.6894,1.7149,1.7363,1.7434,1.7755,1.8261,1.867,1.9055,1.9809,2.027,-0.4485,-0.4083,-0.3902,-0.3769,-0.3635,-0.3456,-0.3366,-0.3318,-0.2984,-0.2841,-0.2748,-0.2468,-0.2153,-0.1888,-0.1882,-0.2308,-0.3152,-0.3119,-0.3102,-0.3144,-0.3144,-0.3085,-0.3057,-0.3054,-0.3035,-0.3048,-0.3083,-0.3083,-0.3083,-0.3042,-0.3078,-0.3028,-0.3069,-0.2775,-0.2278,-0.2196,-0.1871,-0.1383,-0.1302,-0.1342,-0.1302,-0.1139,-0.1058,-0.1015,-0.0801,-0.0793,-0.1067,-0.1063,-0.0785,-0.0314,-0.0196,0.0118,0.0785,0.1099,0.1374,0.1491,0.1636,0.1862,0.2209,0.2656,0.3027,0.3333,0.3776,0.4071,0.4147,0.4818,0.5315,0.5652,0.6049,0.6685,0.7165,0.7031,0.6982,0.7362,0.757,0.7905,0.8377,0.9075,0.9517,0.9719,1.0313,1.0995,1.1478,1.167,1.1933,1.2365,1.2457,1.2673,1.2947,1.3202,1.3531,1.3728,1.408,1.4375,1.4473,1.4572,1.4637,1.4866,1.5234,1.5463,1.5789,1.6244,1.6558,1.6688,1.6937,1.7214,1.7458,1.7681,1.7925,1.8195,1.858,1.9018,1.9423,1.9866,2.0357,-0.3949,-0.3454,-0.3094,-0.2647,-0.2289,-0.1885,-0.1481,-0.1616,-0.157,-0.1614,-0.1657,-0.1478,-0.1476,-0.1387,-0.1419,-0.1457,-0.1497,-0.1441,-0.152,-0.156,-0.1517,-0.1509,-0.1538,-0.158,-0.1573,-0.1557,-0.1388,-0.143,-0.1556,-0.1598,-0.1549,-0.1411,-0.1534,-0.1569,-0.1304,-0.1348,-0.1305,-0.1184,-0.1144,-0.1142,-0.1221,-0.0734,-0.049,-0.0408,0.0203,0.0243,-0.048,-0.0515,-0.0158,0.0472,0.0591,0.0825,0.1258,0.1454,0.1531,0.2003,0.2316,0.2669,0.3058,0.3525,0.3793,0.3944,0.4497,0.4968,0.5116,0.5692,0.6411,0.6958,0.7252,0.7589,0.8215,0.8528,0.8521,0.8283,0.8693,0.9152,0.9399,1.0017,1.0586,1.0802,1.1295,1.1655,1.1882,1.2224,1.2592,1.2694,1.2924,1.3144,1.3311,1.3484,1.3779,1.4146,1.4408,1.4572,1.4735,1.4898,1.4898,1.4973,1.5332,1.5658,1.6017,1.6396,1.6753,1.6947,1.7432,1.7718,1.7874,1.8115,1.8484,1.8772,1.9091,1.9384,1.9852,2.0266,2.0615,-0.2244,-0.2065,-0.193,-0.1795,-0.1617,-0.1481,-0.1392,-0.1392,-0.1392,-0.1392,-0.1392,-0.1392,-0.1257,-0.0987,-0.0894,-0.0759,-0.0447,-0.0445,-0.0706,-0.122,-0.1305,-0.1259,-0.1299,-0.1297,-0.1296,-0.1292,-0.1291,-0.1291,-0.129,-0.129,-0.1327,-0.1316,-0.127,-0.1137,-0.0834,-0.0875,-0.075,-0.0417,-0.0083,0.0083,0.0125,0.05,0.0708,0.0749,0.0992,0.0986,0.0737,0.0729,0.0846,0.1086,0.1087,0.1403,0.2067,0.2405,0.2748,0.314,0.3297,0.3417,0.365,0.4238,0.463,0.4784,0.5393,0.5968,0.6279,0.672,0.7291,0.7786,0.8036,0.8488,0.911,0.9377,0.934,0.8967,0.9374,0.9849,1.0167,1.0773,1.137,1.1723,1.2051,1.235,1.2592,1.2885,1.2922,1.3166,1.3415,1.362,1.3637,1.3995,1.4247,1.4412,1.459,1.4777,1.4931,1.5137,1.5267,1.5365,1.5658,1.5886,1.6201,1.6623,1.6947,1.74,1.7852,1.8201,1.834,1.8638,1.8989,1.9224,1.9503,1.987,2.0284,2.064,2.0902,-0.14,-0.1399,-0.1214,-0.1122,-0.1122,-0.0988,-0.0898,-0.0898,-0.0898,-0.0853,-0.0898,-0.0857,-0.0722,-0.0497,-0.0451,-0.0271,0.0,0.0,-0.0312,-0.0749,-0.0792,-0.079,-0.0831,-0.0827,-0.0826,-0.0826,-0.0826,-0.0826,-0.0826,-0.0826,-0.0736,-0.056,-0.0559,-0.03,0.0043,0.0085,0.0255,0.0551,0.0804,0.093,0.0969,0.1178,0.1304,0.1344,0.1629,0.1833,0.1832,0.2109,0.2133,0.1915,0.2074,0.2552,0.3056,0.3275,0.3612,0.3992,0.4187,0.4338,0.4517,0.5137,0.557,0.5805,0.6353,0.6935,0.733,0.772,0.8158,0.8693,0.8982,0.9397,1.0056,1.0367,1.0306,1.012,1.0311,1.0625,1.1093,1.1534,1.1965,1.2302,1.2628,1.2902,1.3068,1.3275,1.3322,1.3671,1.388,1.4122,1.4146,1.4524,1.4633,1.4723,1.4875,1.5035,1.5146,1.5365,1.5593,1.5821,1.6039,1.6212,1.6439,1.6882,1.7303,1.7819,1.8314,1.8655,1.8828,1.9247,1.9619,1.9774,1.9954,2.0435,2.0851,2.0867,2.1148,-0.1323,-0.1276,-0.0813,-0.0586,-0.054,-0.009,0.009,0.009,0.009,0.009,0.009,0.0091,0.0091,0.0091,0.0137,0.0228,0.0,0.0,0.0226,0.0135,0.009,0.0089,0.0088,0.0088,0.0087,0.0087,0.0087,0.0087,0.0087,0.0087,0.0305,0.0609,0.0609,0.0913,0.1127,0.1347,0.1252,0.1242,0.1412,0.1491,0.1479,0.1562,0.1604,0.1688,0.2361,0.2779,0.2862,0.3482,0.3575,0.2943,0.3387,0.3831,0.395,0.3988,0.4277,0.4718,0.4995,0.5328,0.5679,0.6115,0.6577,0.6923,0.7315,0.7759,0.8228,0.8657,0.9158,0.9887,1.0042,1.0357,1.0988,1.1422,1.1573,1.1601,1.1425,1.1587,1.2122,1.2244,1.2474,1.2796,1.3111,1.3353,1.3409,1.3678,1.3959,1.4123,1.4274,1.457,1.4783,1.5001,1.5088,1.5155,1.5233,1.5305,1.5416,1.5724,1.5962,1.6114,1.6396,1.6591,1.6828,1.7303,1.769,1.8217,1.8699,1.904,1.9367,1.97,2.0049,2.0294,2.0588,2.1074,2.1308,2.1387,2.1642,-0.0369,-0.0323,0.0184,0.0413,0.0459,0.0919,0.1102,0.1102,0.1056,0.1009,0.1057,0.1105,0.1061,0.1107,0.1061,0.1107,0.106,0.1057,0.1102,0.1102,0.1102,0.1091,0.1031,0.1026,0.1024,0.098,0.0935,0.1024,0.1024,0.0979,0.1064,0.1188,0.1276,0.1315,0.1393,0.1523,0.1389,0.1516,0.2164,0.2422,0.2501,0.3099,0.3447,0.3445,0.3633,0.3748,0.3828,0.456,0.4575,0.3795,0.4175,0.4651,0.4936,0.5191,0.5526,0.587,0.6065,0.6341,0.6763,0.7156,0.7573,0.7909,0.8374,0.885,0.9441,0.9597,1.0097,1.0719,1.0952,1.1134,1.1644,1.2055,1.2442,1.2828,1.2496,1.2312,1.2678,1.2943,1.3082,1.3182,1.3503,1.3682,1.3825,1.4074,1.4342,1.4505,1.4824,1.5176,1.5327,1.5496,1.5569,1.5532,1.5567,1.5629,1.5777,1.6065,1.6287,1.6407,1.6688,1.7044,1.7368,1.7831,1.8185,1.8571,1.9008,1.938,1.9667,2.0005,2.034,2.0747,2.1175,2.1581,2.1882,2.2076,2.2379,0.0652,0.0652,0.0974,0.1112,0.1112,0.1389,0.1482,0.1482,0.1482,0.1482,0.1483,0.1489,0.149,0.1491,0.1491,0.1491,0.149,0.1485,0.1481,0.1574,0.1943,0.1884,0.1549,0.1456,0.1456,0.1456,0.1456,0.141,0.1409,0.1449,0.1666,0.197,0.2005,0.2215,0.2692,0.2599,0.2593,0.2759,0.3195,0.3407,0.3436,0.4086,0.4388,0.4602,0.4791,0.508,0.537,0.5963,0.5831,0.5211,0.5307,0.5662,0.5867,0.6291,0.6701,0.704,0.724,0.7592,0.792,0.8239,0.8616,0.9087,0.9472,0.9959,1.051,1.0724,1.1033,1.1522,1.1777,1.2057,1.236,1.2772,1.3269,1.3664,1.3402,1.3155,1.3284,1.3351,1.3475,1.3607,1.3904,1.4154,1.4154,1.4474,1.4759,1.4964,1.5265,1.5539,1.5712,1.5894,1.6028,1.5956,1.6016,1.6141,1.6329,1.6575,1.6922,1.7053,1.7325,1.7606,1.7853,1.8337,1.8635,1.8944,1.936,1.9743,2.0062,2.0412,2.0798,2.1222,2.1676,2.2117,2.2449,2.2762,2.3082,0.1505,0.1504,0.1538,0.1579,0.1581,0.1719,0.1908,0.1813,0.2002,0.1954,0.1911,0.1782,0.1882,0.1646,0.1976,0.1834,0.1834,0.2103,0.2049,0.2327,0.27,0.2834,0.2229,0.2171,0.2169,0.2124,0.1852,0.1942,0.212,0.2015,0.2329,0.2913,0.3074,0.3469,0.3868,0.4181,0.4336,0.4263,0.4471,0.4584,0.4645,0.5034,0.5343,0.5425,0.6016,0.6645,0.7058,0.7438,0.729,0.6541,0.678,0.6885,0.7014,0.7391,0.7732,0.8082,0.8477,0.8857,0.919,0.9353,0.9688,1.036,1.051,1.0867,1.1481,1.1703,1.1945,1.2325,1.2634,1.2998,1.3237,1.3581,1.3952,1.4322,1.4227,1.4054,1.3811,1.3702,1.3769,1.3961,1.433,1.4472,1.4625,1.483,1.5186,1.5292,1.5603,1.5797,1.5981,1.6173,1.6317,1.6341,1.652,1.6726,1.6919,1.7126,1.7508,1.7818,1.8131,1.8376,1.8374,1.8738,1.9032,1.9392,1.9743,2.0125,2.0539,2.0887,2.1267,2.1713,2.2193,2.2628,2.3047,2.335,2.3657,0.1473,0.152,0.1944,0.2133,0.2228,0.2986,0.3317,0.3316,0.374,0.3548,0.3365,0.3277,0.3041,0.2804,0.3086,0.3328,0.3277,0.3551,0.3931,0.3979,0.4073,0.4168,0.3916,0.3877,0.38,0.3754,0.3799,0.3799,0.3795,0.3701,0.3921,0.4104,0.4228,0.4276,0.4543,0.4964,0.4946,0.5063,0.5612,0.5943,0.6065,0.6415,0.6678,0.6805,0.7241,0.7876,0.8476,0.8706,0.8809,0.8843,0.8573,0.842,0.8366,0.87,0.8975,0.9202,0.9525,0.9977,1.033,1.0634,1.1065,1.1423,1.1574,1.1735,1.212,1.2568,1.2869,1.326,1.3692,1.3983,1.4195,1.4321,1.4532,1.4747,1.4829,1.4716,1.4514,1.4316,1.4339,1.4491,1.4641,1.4743,1.4901,1.5248,1.5523,1.5647,1.586,1.6072,1.6249,1.6461,1.665,1.6772,1.6982,1.7247,1.7602,1.7843,1.8195,1.8506,1.8851,1.9105,1.9134,1.9249,1.9606,1.9845,2.0062,2.0475,2.0919,2.133,2.1709,2.2198,2.2668,2.3043,2.3419,2.3824,2.4147,0.2954,0.2954,0.3242,0.3385,0.348,0.3909,0.4149,0.4244,0.448,0.4432,0.4244,0.4149,0.4006,0.3861,0.4053,0.4149,0.4244,0.4432,0.4718,0.4906,0.5144,0.543,0.571,0.5714,0.5584,0.4785,0.4508,0.4646,0.483,0.4952,0.508,0.5541,0.5523,0.5728,0.5829,0.6069,0.6193,0.6275,0.6616,0.7003,0.7324,0.7733,0.8295,0.8521,0.8757,0.9074,0.9435,0.9942,1.0227,1.0442,1.0448,1.0108,0.9604,0.9852,1.0168,1.0414,1.0779,1.107,1.1397,1.1564,1.1866,1.2253,1.2453,1.2831,1.3139,1.3525,1.3801,1.4088,1.4373,1.4761,1.4995,1.5011,1.5081,1.5108,1.5292,1.5333,1.5121,1.4931,1.4823,1.4968,1.5201,1.536,1.5552,1.5767,1.588,1.6022,1.6223,1.6436,1.6567,1.677,1.7087,1.7308,1.7537,1.7833,1.8242,1.8605,1.889,1.9212,1.9471,1.9709,1.9849,2.0033,2.0227,2.0387,2.0514,2.0856,2.1299,2.1709,2.2073,2.2449,2.2887,2.3324,2.3775,2.4132,2.4471,0.4629,0.4718,0.4718,0.4766,0.4813,0.4909,0.5004,0.5004,0.5004,0.5242,0.4954,0.4956,0.5004,0.4861,0.4956,0.5004,0.5099,0.5194,0.5575,0.586,0.6146,0.6479,0.6853,0.6986,0.6743,0.5239,0.5278,0.5467,0.5695,0.5674,0.6166,0.6767,0.6957,0.7037,0.7439,0.7739,0.7781,0.7824,0.7979,0.8198,0.8527,0.894,0.9501,1.0166,1.028,1.0431,1.0743,1.1213,1.1544,1.156,1.2198,1.1822,1.1169,1.0896,1.125,1.1556,1.1909,1.2154,1.2213,1.2403,1.2682,1.2954,1.3307,1.3721,1.412,1.4421,1.4657,1.4768,1.4992,1.5303,1.5545,1.5473,1.5463,1.5483,1.5699,1.5793,1.5765,1.5607,1.5532,1.5451,1.577,1.5984,1.6122,1.6275,1.6324,1.6425,1.6635,1.6799,1.6931,1.7132,1.7449,1.7791,1.7984,1.8521,1.901,1.9392,1.9688,1.9965,2.0191,2.0409,2.0605,2.0854,2.1,2.0836,2.0999,2.1339,2.1677,2.2073,2.2449,2.2731,2.3168,2.3697,2.4115,2.4456,2.4734,0.485,0.5197,0.5197,0.5432,0.586,0.6333,0.6476,0.6571,0.6811,0.6859,0.6476,0.6523,0.6191,0.6051,0.6333,0.6666,0.6764,0.6811,0.7002,0.7144,0.7382,0.7572,0.7762,0.7904,0.7762,0.7667,0.7334,0.7192,0.7192,0.7226,0.7399,0.7592,0.7956,0.8225,0.8532,0.893,0.9263,0.9254,0.9532,0.9774,1.0004,1.0267,1.0671,1.1501,1.155,1.1813,1.2344,1.2618,1.2738,1.268,1.2732,1.2822,1.2693,1.2453,1.2344,1.2417,1.2787,1.304,1.3017,1.3545,1.3811,1.3977,1.4261,1.4446,1.4694,1.5017,1.5249,1.5342,1.5557,1.5796,1.5756,1.5812,1.5883,1.5973,1.6027,1.6112,1.6298,1.641,1.6413,1.628,1.6413,1.6508,1.6591,1.669,1.6804,1.6916,1.7135,1.7231,1.7319,1.7536,1.7822,1.8163,1.8447,1.9111,1.9773,2.0179,2.0533,2.0791,2.0996,2.1255,2.1481,2.1674,2.1732,2.1792,2.1715,2.1855,2.2191,2.2523,2.2825,2.3168,2.3635,2.4115,2.4394,2.4641,2.4857,0.6412,0.6576,0.6541,0.6621,0.6907,0.7144,0.7287,0.7287,0.7477,0.7477,0.7334,0.7236,0.7144,0.7002,0.7097,0.7382,0.7619,0.7904,0.8142,0.8332,0.8616,0.8948,0.9091,0.9138,0.9328,0.947,0.928,0.8996,0.881,0.8806,0.8853,0.9233,0.947,0.9565,0.9655,0.9989,1.0301,1.0423,1.0712,1.1056,1.1377,1.1712,1.2321,1.2535,1.2667,1.2831,1.3114,1.3498,1.3475,1.3413,1.3604,1.3876,1.4035,1.3934,1.3567,1.3369,1.3637,1.391,1.3926,1.4465,1.4725,1.4758,1.5093,1.5257,1.5328,1.5555,1.5773,1.5784,1.5793,1.609,1.6237,1.6277,1.6389,1.6607,1.6708,1.6774,1.6889,1.7102,1.7062,1.6981,1.701,1.7039,1.6945,1.7064,1.7208,1.7414,1.7653,1.7719,1.776,1.8049,1.8382,1.8722,1.9086,1.9645,2.0318,2.077,2.1116,2.1412,2.1774,2.2034,2.2268,2.2452,2.275,2.2975,2.2836,2.2599,2.2697,2.3012,2.3302,2.3588,2.3991,2.4363,2.4579,2.4795,2.498,0.8198,0.8258,0.8145,0.8156,0.8189,0.8237,0.8237,0.8237,0.8284,0.8332,0.8237,0.8284,0.8332,0.8237,0.8284,0.8284,0.8284,0.8759,0.9138,0.9423,0.9754,1.028,1.0564,1.0753,1.0706,1.0848,1.0891,1.0659,1.0043,0.9948,1.028,1.0469,1.0706,1.099,1.0985,1.1306,1.1227,1.1411,1.1647,1.2125,1.2569,1.3163,1.361,1.3657,1.3592,1.3536,1.378,1.4048,1.4205,1.4288,1.4498,1.4816,1.5157,1.5189,1.4877,1.4454,1.465,1.4743,1.4879,1.5179,1.5413,1.5381,1.5794,1.5894,1.5908,1.6055,1.6266,1.6178,1.6237,1.6361,1.6666,1.6797,1.699,1.7242,1.7467,1.7649,1.7529,1.755,1.7545,1.75,1.7559,1.754,1.7482,1.748,1.7636,1.799,1.823,1.8363,1.8424,1.872,1.9049,1.9407,1.9796,2.0226,2.077,2.1207,2.1553,2.1816,2.2284,2.2629,2.2916,2.314,2.3468,2.3776,2.3708,2.3494,2.3516,2.3552,2.381,2.4111,2.4378,2.4626,2.4795,2.4919,2.5042,0.9562,0.9798,0.9789,1.0024,1.0242,1.019,1.028,1.0233,1.0185,1.0327,1.0086,1.0233,1.0185,1.0138,1.0133,1.0228,1.0228,1.0228,1.0332,1.0531,1.072,1.0872,1.0863,1.0706,1.1499,1.1984,1.2063,1.1463,1.1057,1.0868,1.0753,1.1037,1.17,1.203,1.2078,1.255,1.3305,1.3305,1.3305,1.3399,1.3534,1.3711,1.3974,1.4196,1.4311,1.4433,1.4672,1.489,1.5,1.5272,1.5342,1.56,1.5933,1.5943,1.5876,1.5735,1.5639,1.5541,1.5502,1.5775,1.5988,1.5996,1.6283,1.6448,1.6467,1.6477,1.6579,1.657,1.6717,1.696,1.7126,1.7212,1.7495,1.7683,1.7877,1.8037,1.807,1.7892,1.7917,1.7979,1.798,1.8028,1.8063,1.8052,1.8107,1.8492,1.8805,1.8938,1.9103,1.9417,1.9798,2.0154,2.0438,2.0856,2.1339,2.1823,2.2082,2.2289,2.2756,2.3236,2.3488,2.3752,2.4099,2.43,2.4293,2.4386,2.4438,2.4458,2.4475,2.4591,2.4844,2.4952,2.4996,2.5072,2.5088,1.1422,1.0641,1.0629,1.0647,1.0754,1.0749,1.0759,1.0711,1.0706,1.0706,1.0706,1.0706,1.0706,1.0801,1.0706,1.0706,1.0753,1.1047,1.1357,1.1741,1.1894,1.2213,1.2608,1.2661,1.2997,1.3028,1.3237,1.3206,1.2628,1.2427,1.2408,1.2419,1.2792,1.3069,1.3051,1.3452,1.3635,1.3729,1.3917,1.4241,1.4435,1.4576,1.4664,1.4852,1.5087,1.5327,1.5526,1.5878,1.5946,1.6092,1.6056,1.6233,1.6484,1.6582,1.6581,1.688,1.6834,1.6572,1.6171,1.6439,1.655,1.6605,1.673,1.6801,1.6798,1.6905,1.7009,1.6993,1.7357,1.761,1.7776,1.7927,1.8178,1.8325,1.8309,1.8251,1.8359,1.8305,1.8233,1.8336,1.8436,1.8581,1.875,1.8869,1.8853,1.9011,1.9442,1.9728,1.9911,2.0145,2.0561,2.0995,2.1206,2.1445,2.1963,2.2467,2.2706,2.2968,2.3331,2.3761,2.402,2.4312,2.4563,2.4849,2.4962,2.51,2.5264,2.5158,2.4987,2.509,2.5266,2.5329,2.5342,2.512,2.5151,1.3129,1.1946,1.1883,1.1722,1.1625,1.1625,1.1607,1.1509,1.1599,1.1536,1.1468,1.1558,1.151,1.1473,1.1631,1.1752,1.1604,1.191,1.2303,1.2848,1.317,1.3554,1.3686,1.3964,1.4061,1.4328,1.4187,1.4242,1.4337,1.4201,1.3953,1.3833,1.3829,1.3953,1.4036,1.4191,1.4346,1.4346,1.4618,1.4971,1.5302,1.5437,1.5504,1.5664,1.5884,1.6079,1.6166,1.6393,1.6591,1.6725,1.6733,1.6865,1.7194,1.7214,1.7266,1.7462,1.7459,1.7232,1.6915,1.696,1.7141,1.7213,1.7252,1.7233,1.7194,1.7373,1.7605,1.7648,1.7997,1.8363,1.8563,1.8553,1.8667,1.8772,1.8783,1.8645,1.8575,1.8608,1.8673,1.8728,1.8957,1.9328,1.9497,1.9668,1.9711,1.9649,1.9989,2.0459,2.0763,2.0949,2.1365,2.1836,2.2057,2.2294,2.2722,2.3164,2.3363,2.3632,2.4009,2.4192,2.4397,2.4592,2.4781,2.5119,2.5453,2.5599,2.5653,2.555,2.5472,2.5718,2.5881,2.5771,2.5675,2.5421,2.5199,1.437,1.4253,1.4126,1.3902,1.3728,1.3873,1.3747,1.3388,1.3525,1.3424,1.3252,1.3417,1.3246,1.3352,1.3293,1.3382,1.3579,1.3801,1.3795,1.3855,1.4024,1.414,1.4323,1.4426,1.4456,1.4796,1.4919,1.5107,1.5365,1.5281,1.4835,1.4248,1.4584,1.4761,1.4899,1.5094,1.5293,1.5341,1.5485,1.5725,1.599,1.6138,1.623,1.6498,1.6602,1.6634,1.6634,1.6821,1.7001,1.7289,1.7336,1.7468,1.776,1.7764,1.7808,1.783,1.7786,1.7598,1.7509,1.7364,1.7372,1.7457,1.7543,1.7716,1.7753,1.8139,1.8375,1.84,1.8657,1.8861,1.9011,1.9061,1.9095,1.9076,1.9065,1.8986,1.8935,1.9072,1.9128,1.9163,1.9444,1.9878,2.0276,2.0457,2.0293,2.0217,2.0646,2.1104,2.1666,2.1932,2.2288,2.2651,2.2932,2.322,2.3608,2.3934,2.4212,2.4428,2.4697,2.4693,2.4701,2.4863,2.5067,2.5294,2.5614,2.5805,2.6048,2.6075,2.6171,2.6386,2.6438,2.62,2.5977,2.5739,2.5485,1.4981,1.5024,1.5271,1.4921,1.4207,1.4207,1.4128,1.4018,1.4,1.3975,1.3968,1.3926,1.3926,1.3993,1.4011,1.4048,1.4054,1.4097,1.4371,1.4622,1.4739,1.4937,1.5123,1.5253,1.547,1.5604,1.5604,1.566,1.5871,1.5928,1.5808,1.548,1.5403,1.531,1.549,1.5856,1.6091,1.6181,1.6415,1.6662,1.6729,1.6796,1.6862,1.7001,1.7278,1.731,1.7334,1.7523,1.7725,1.7811,1.7865,1.8005,1.8137,1.8103,1.807,1.8062,1.7965,1.794,1.7929,1.7759,1.7649,1.7967,1.8021,1.8116,1.8372,1.8769,1.8917,1.9046,1.9246,1.9451,1.9544,1.948,1.9448,1.9354,1.9305,1.9237,1.932,1.949,1.9742,1.9856,2.0138,2.0548,2.0899,2.1232,2.1002,2.0818,2.1284,2.1798,2.2347,2.2769,2.3076,2.3404,2.3684,2.4062,2.4403,2.4731,2.5038,2.52,2.5373,2.5285,2.521,2.5197,2.5388,2.5588,2.5839,2.6132,2.6411,2.6639,2.678,2.685,2.6709,2.6438,2.6263,2.6088,2.5882,1.5529,1.5578,1.5934,1.5625,1.4848,1.4842,1.476,1.4646,1.4676,1.4595,1.4522,1.4564,1.4515,1.4576,1.4663,1.4676,1.4737,1.4837,1.5048,1.5247,1.549,1.5691,1.595,1.6069,1.5936,1.6133,1.6133,1.6112,1.6347,1.6318,1.6446,1.6433,1.6335,1.6251,1.6126,1.6495,1.678,1.6884,1.7079,1.743,1.7463,1.7497,1.7589,1.7654,1.7906,1.7962,1.8026,1.8152,1.8246,1.8308,1.8275,1.8273,1.8288,1.8263,1.8184,1.8176,1.8223,1.8269,1.828,1.8208,1.8159,1.8482,1.8711,1.8848,1.9071,1.9371,1.9618,1.9542,1.9787,1.9943,1.9949,1.977,1.9628,1.9514,1.9736,1.9729,1.9867,2.0008,2.0333,2.0559,2.0955,2.1327,2.1563,2.1953,2.2162,2.1955,2.2141,2.2678,2.3267,2.3602,2.377,2.4111,2.4422,2.4793,2.521,2.5474,2.5684,2.5797,2.5923,2.5906,2.5845,2.5749,2.5785,2.6067,2.6325,2.6522,2.6768,2.7039,2.7113,2.7185,2.6946,2.6741,2.6534,2.6359,2.6247,1.6083,1.6076,1.6083,1.6076,1.5907,1.6019,1.5932,1.5712,1.5698,1.5638,1.5453,1.5482,1.5482,1.5509,1.5567,1.5551,1.5627,1.577,1.5936,1.5886,1.588,1.6069,1.6126,1.6133,1.6282,1.6133,1.6331,1.663,1.6871,1.6871,1.7119,1.7417,1.7358,1.7245,1.6942,1.7402,1.765,1.765,1.7726,1.7973,1.8133,1.82,1.8332,1.8495,1.8504,1.852,1.8552,1.8543,1.8598,1.859,1.8493,1.8499,1.8483,1.8361,1.8304,1.8335,1.831,1.8472,1.882,1.8736,1.8912,1.9155,1.9364,1.9581,1.9851,2.012,2.0259,2.0055,2.0169,2.0119,2.0015,1.9911,1.9807,1.9866,2.009,2.0292,2.043,2.0614,2.092,2.1303,2.1815,2.2259,2.2377,2.2618,2.3095,2.3208,2.3158,2.3505,2.4109,2.4418,2.4547,2.475,2.5102,2.5409,2.5805,2.6131,2.6337,2.6438,2.6435,2.6398,2.6266,2.6105,2.6243,2.6529,2.6712,2.6878,2.7159,2.7437,2.7447,2.7439,2.7248,2.7026,2.6803,2.6677,2.6597,1.6133,1.6133,1.6133,1.6133,1.6133,1.6133,1.6049,1.6008,1.6051,1.5974,1.594,1.5934,1.5934,1.5954,1.5961,1.6044,1.6064,1.6078,1.6133,1.6133,1.6182,1.6133,1.6232,1.6474,1.6623,1.6722,1.6921,1.7126,1.7417,1.7417,1.7474,1.7722,1.8061,1.7912,1.7714,1.7912,1.821,1.8309,1.8548,1.8829,1.888,1.8913,1.893,1.9053,1.8948,1.8899,1.8891,1.8826,1.8777,1.8769,1.8663,1.8639,1.8631,1.8517,1.8707,1.8864,1.8964,1.9227,1.9663,1.9864,1.9875,1.9951,1.9989,2.0198,2.0416,2.0421,2.0462,2.0415,2.0386,2.0273,2.0132,2.0129,2.0122,2.0274,2.0514,2.0802,2.0991,2.1217,2.1547,2.2038,2.2541,2.3077,2.3359,2.3688,2.4123,2.4436,2.4443,2.4342,2.4749,2.5106,2.5307,2.5472,2.576,2.6053,2.6363,2.6546,2.6692,2.6714,2.6793,2.6808,2.6647,2.6442,2.6689,2.7034,2.7135,2.725,2.7623,2.7873,2.7784,2.7659,2.7518,2.728,2.7042,2.6978,2.6994,1.663,1.6679,1.6679,1.6679,1.658,1.6282,1.6133,1.6133,1.6133,1.6133,1.6126,1.6126,1.6119,1.6119,1.6133,1.6275,1.6331,1.6374,1.663,1.663,1.6679,1.6779,1.6871,1.697,1.7119,1.7268,1.7466,1.7722,1.7962,1.8012,1.8118,1.8366,1.8613,1.8564,1.8465,1.8613,1.8762,1.8861,1.9058,1.9157,1.9191,1.9248,1.9248,1.9257,1.9192,1.9126,1.9053,1.8988,1.8907,1.8891,1.885,1.8826,1.8809,1.8953,1.9121,1.9342,1.9855,2.0003,2.0348,2.0713,2.0658,2.0659,2.0557,2.0648,2.085,2.082,2.0697,2.0641,2.0613,2.0526,2.0384,2.039,2.064,2.0837,2.1122,2.1422,2.1634,2.1861,2.2289,2.2739,2.3318,2.3844,2.4407,2.4839,2.5231,2.549,2.574,2.5594,2.5486,2.5729,2.604,2.6177,2.6312,2.6518,2.6683,2.6801,2.691,2.6998,2.6998,2.6998,2.6939,2.6756,2.7122,2.7487,2.7565,2.7731,2.8126,2.8297,2.8122,2.7979,2.782,2.7566,2.728,2.7248,2.7296,1.7672,1.7722,1.7722,1.7672,1.7523,1.6679,1.6232,1.6182,1.6232,1.6232,1.6182,1.6282,1.6374,1.6225,1.6232,1.6523,1.6871,1.6921,1.7169,1.7424,1.7424,1.7523,1.7573,1.7672,1.7714,1.7714,1.792,1.8259,1.8507,1.8553,1.8801,1.9123,1.9221,1.9171,1.9163,1.9213,1.923,1.9239,1.9207,1.9314,1.9314,1.9314,1.9314,1.9289,1.9273,1.9257,1.9199,1.9183,1.9191,1.9208,1.9135,1.9069,1.9134,1.9357,1.9491,1.9832,2.055,2.0815,2.0914,2.1245,2.1282,2.1179,2.116,2.1178,2.113,2.1064,2.0979,2.094,2.0902,2.076,2.0637,2.0974,2.1264,2.1535,2.1866,2.2083,2.2274,2.26,2.3029,2.3503,2.4055,2.4657,2.5322,2.5794,2.6022,2.64,2.6613,2.6792,2.6612,2.6372,2.6648,2.6866,2.6935,2.6986,2.7077,2.7151,2.713,2.7174,2.7027,2.6998,2.7005,2.7041,2.7243,2.7488,2.7888,2.8213,2.8589,2.8599,2.8392,2.8249,2.817,2.7931,2.7677,2.7502,2.7486,1.7722,1.7722,1.7722,1.7722,1.7672,1.7375,1.7226,1.7226,1.7275,1.7226,1.7226,1.7226,1.7126,1.7226,1.7275,1.7325,1.7432,1.7466,1.7523,1.7737,1.7923,1.7786,1.7886,1.8149,1.8217,1.8423,1.8629,1.8859,1.9057,1.9113,1.9274,1.9571,1.9581,1.9597,1.9605,1.968,1.9525,1.9395,1.9354,1.9338,1.9322,1.9314,1.9314,1.9314,1.9314,1.9314,1.9314,1.9306,1.9355,1.933,1.9593,1.9707,1.9748,2.0138,2.0486,2.0812,2.1355,2.1723,2.1554,2.1602,2.1612,2.148,2.1423,2.1328,2.1271,2.1261,2.1232,2.1202,2.1385,2.136,2.14,2.1639,2.1991,2.2306,2.2613,2.2862,2.3053,2.3424,2.3844,2.4434,2.4998,2.5588,2.6223,2.6378,2.662,2.7095,2.7444,2.7665,2.765,2.735,2.7234,2.7454,2.7499,2.749,2.7463,2.7539,2.7422,2.7335,2.7232,2.71,2.7042,2.7115,2.7253,2.7529,2.7876,2.8475,2.9043,2.8913,2.862,2.8662,2.8602,2.8329,2.809,2.7915,2.7741,1.8316,1.8316,1.8316,1.8316,1.8316,1.8316,1.8347,1.8344,1.7901,1.7722,1.7722,1.7672,1.7702,1.7762,1.7727,1.7906,1.8232,1.8247,1.8398,1.8648,1.8444,1.8641,1.8725,1.8802,1.8983,1.9159,1.9259,1.9416,1.9492,1.9549,1.9695,1.9752,1.9792,1.98,1.9776,1.9743,1.967,1.9524,1.9427,1.942,1.9395,1.9354,1.9314,1.9322,1.9314,1.9314,1.9355,1.9404,1.9553,1.9651,2.0038,2.0284,2.0423,2.0808,2.133,2.1633,2.1965,2.2055,2.1904,2.1915,2.1792,2.1688,2.1574,2.1601,2.1589,2.1606,2.1558,2.1556,2.1879,2.2172,2.2276,2.2404,2.2715,2.3065,2.336,2.3641,2.3964,2.4293,2.4809,2.5388,2.5988,2.6546,2.69,2.697,2.7196,2.7689,2.8015,2.8195,2.8194,2.8011,2.7893,2.7956,2.7993,2.8005,2.7941,2.7847,2.7744,2.7656,2.7575,2.7429,2.7276,2.7247,2.7408,2.7633,2.7876,2.8418,2.8902,2.8979,2.8873,2.8885,2.8897,2.877,2.8516,2.8281,2.8122,1.9272,1.9289,1.9338,1.928,1.9305,1.928,1.9353,1.9408,1.844,1.7916,1.7931,1.7923,1.8114,1.8313,1.8335,1.8598,1.8854,1.8987,1.9131,1.9733,1.9509,1.945,1.9517,1.9776,1.9535,1.9701,1.9768,1.9703,1.9784,1.9817,1.9825,1.9825,1.9873,1.9906,1.9922,1.9914,1.9882,1.9841,1.9687,1.9589,1.9508,1.946,1.9346,1.9346,1.9396,1.9437,1.9511,1.975,2.0038,2.0235,2.0481,2.0826,2.1161,2.1357,2.1888,2.2124,2.23,2.2264,2.216,2.2113,2.2096,2.1925,2.1735,2.1989,2.2147,2.1876,2.1789,2.2001,2.236,2.2626,2.2749,2.3223,2.3619,2.3897,2.4148,2.4487,2.4787,2.5257,2.5846,2.6389,2.6815,2.733,2.7499,2.7581,2.7943,2.8386,2.8646,2.8813,2.8853,2.8737,2.8563,2.8468,2.8428,2.8364,2.8233,2.8116,2.8014,2.7941,2.7882,2.7751,2.7531,2.754,2.7593,2.7799,2.8054,2.8194,2.8526,2.8625,2.8774,2.884,2.89,2.9142,2.8972,2.8604,2.8487,1.9387,1.9467,1.9605,1.9713,1.9662,1.9662,1.9678,1.9719,1.9484,1.9258,1.9309,1.9258,1.9266,1.9205,1.9213,1.9421,1.9495,1.9551,1.9699,1.9766,1.9833,1.9873,1.9817,1.9857,1.9825,1.9792,1.9808,1.989,1.9971,2.0011,2.0068,2.0166,2.0158,2.0133,2.0141,2.0141,2.0133,2.0109,2.0098,1.9943,1.9845,1.9737,1.9613,1.9666,1.9701,1.9925,2.0081,2.035,2.0539,2.0678,2.117,2.1563,2.1995,2.2152,2.225,2.2387,2.2387,2.234,2.237,2.2371,2.2431,2.2558,2.2605,2.2783,2.27,2.2234,2.2159,2.2518,2.2831,2.3051,2.3419,2.3994,2.4487,2.4763,2.5037,2.5364,2.5696,2.6295,2.6878,2.7281,2.7676,2.7879,2.8047,2.8334,2.8742,2.9063,2.9323,2.9535,2.9691,2.9617,2.9141,2.9007,2.8803,2.8725,2.8564,2.8408,2.8306,2.8204,2.8131,2.7984,2.7824,2.7744,2.7768,2.8015,2.8252,2.8308,2.8325,2.8303,2.8439,2.8681,2.8826,2.9034,2.9033,2.8786,2.8759,1.9475,1.9638,1.9743,1.9792,1.9792,1.9792,1.9833,1.9906,1.9914,1.9955,1.9979,1.9882,1.9833,1.9898,1.9965,1.9963,1.9995,2.0028,2.0009,2.0036,1.9995,2.0044,2.002,2.0003,2.0052,2.0028,2.0036,2.0101,2.0158,2.0182,2.0239,2.026,2.0268,2.0268,2.032,2.032,2.032,2.0304,2.0466,2.053,2.0381,2.0289,2.0123,2.015,2.0418,2.0583,2.0729,2.094,2.1143,2.1344,2.1652,2.1995,2.2289,2.2338,2.2387,2.2387,2.2387,2.2387,2.2485,2.2662,2.2867,2.3062,2.3224,2.3362,2.3779,2.3377,2.3199,2.353,2.3818,2.4062,2.4234,2.4727,2.5183,2.5525,2.6003,2.6418,2.6961,2.7604,2.7908,2.8101,2.8404,2.8542,2.8681,2.8815,2.9199,2.9621,2.9894,2.9943,3.017,3.0287,2.9862,2.9525,2.9281,2.9003,2.8783,2.871,2.8613,2.8511,2.8408,2.8291,2.8174,2.7984,2.7943,2.8131,2.8237,2.8216,2.8222,2.822,2.8471,2.8814,2.8848,2.8896,2.8867,2.8852,2.879,1.9654,1.9817,1.9857,1.9865,1.9857,1.9865,1.9955,2.0085,2.0152,2.0174,2.0247,1.9987,1.9979,2.0104,2.0161,2.0206,2.0255,2.0223,2.0271,2.0279,2.0279,2.0231,2.0239,2.0288,2.0255,2.0255,2.0255,2.0263,2.0288,2.0288,2.0288,2.0268,2.032,2.0268,2.032,2.0424,2.0476,2.0685,2.0912,2.1241,2.1156,2.0952,2.0824,2.0959,2.117,2.1386,2.1472,2.1623,2.184,2.1919,2.2072,2.224,2.2387,2.2387,2.2387,2.2436,2.2583,2.2583,2.269,2.3072,2.3258,2.3501,2.37,2.4053,2.4529,2.4657,2.446,2.4664,2.4946,2.5021,2.5193,2.5445,2.5948,2.6391,2.6924,2.7456,2.811,2.8635,2.8767,2.8853,2.9057,2.9168,2.9265,2.9357,2.9746,3.0168,3.0332,3.0366,3.0401,3.0425,3.0232,2.9994,2.9774,2.9481,2.9134,2.8973,2.8959,2.8886,2.8783,2.8681,2.8564,2.8379,2.8233,2.8131,2.8224,2.8249,2.8288,2.8282,2.8604,2.8807,2.8783,2.872,2.8749,2.8701,2.8646,1.9841,2.0079,2.0158,2.0214,2.0206,2.0206,2.0239,2.0263,2.0263,2.0296,2.0288,2.0279,2.0247,2.0263,2.0271,2.0304,2.0304,2.0268,2.0268,2.0268,2.0268,2.0268,2.0268,2.0268,2.0268,2.0268,2.0268,2.0268,2.0372,2.032,2.032,2.0372,2.0372,2.0372,2.0424,2.0633,2.1049,2.1206,2.1457,2.1821,2.1882,2.1759,2.1638,2.1764,2.2,2.2079,2.2214,2.2511,2.2582,2.2571,2.2402,2.2434,2.2406,2.2406,2.2436,2.2632,2.2779,2.2974,2.318,2.3561,2.3853,2.4292,2.4577,2.4975,2.5372,2.5744,2.5769,2.614,2.6291,2.6051,2.6179,2.6364,2.6789,2.7169,2.7674,2.8249,2.886,2.9078,2.916,2.9384,2.9666,2.9686,2.9699,2.9978,3.0495,3.0822,3.0932,3.0926,3.0719,3.0659,3.0627,3.0393,3.0214,3.0038,2.9774,2.9383,2.9281,2.9247,2.9159,2.9003,2.89,2.8827,2.8695,2.852,2.8394,2.8382,2.8385,2.8456,2.8338,2.8497,2.8529,2.8537,2.8597,2.8604,2.8551]},{"header":{"parameterUnit":"m.s-1","parameterCategory":1,"la1":31.0,"la2":29.5877,"lo1":-88.7671,"lo2":-86.6584,"dy":0.0162,"dx":0.0185,"nx":115,"ny":88,"refTime":"2023-09-29T06:00:00:Z","depth":0,"parameterNumber":3,"parameterNumberName":"V-component_of_WINDS"},"data":[0.0,0.0,0.0,0.0,0.0,0.0,0.0,0.0,0.0,0.0,0.0,0.0,0.0,0.0,0.0,0.0,0.0,0.0,0.0,0.0,0.0,0.0,0.0,0.0,0.0,0.0,0.0,0.0,0.0,0.0,0.0,0.0,0.0,0.0,0.0,0.0,0.0,0.0,0.0,0.0,0.0,0.0,0.0,0.0,0.0,0.0,0.0,0.0,0.0,0.0,0.0,0.0,0.0,0.0,0.0,0.0,0.0,0.0,0.0,0.0,0.0,0.0,0.0,0.0,0.0,0.0,0.0,0.0,0.0,0.0,0.0,0.0,0.0,0.0,0.0,0.0,0.0,0.0,0.0,0.0,0.0,0.0,0.0,0.0,0.0,0.0,0.0,0.0,0.0,0.0,0.0,0.0,0.0,0.0,0.0,0.0,0.0,0.0,0.0,0.0,0.0,0.0,0.0,0.0,0.0,0.0,0.0,0.0,0.0,0.0,0.0,0.0,0.0,0.0,0.0,0.0,0.0,0.0,0.0,0.0,0.0,0.0,0.0,0.0,0.0,0.0,0.0,0.0,0.0,0.0,0.0,0.0,0.0,0.0,0.0,0.0,0.0,0.0,0.0,0.0,0.0,0.0,0.0,0.0,0.0,0.0,0.0,0.0,0.0,0.0,0.0,0.0,0.0,0.0,0.0,0.0,0.0,0.0,0.0,0.0,0.0,0.0,0.0,0.0,0.0,0.0,0.0,0.0,0.0,0.0,0.0,0.0,0.0,0.0,0.0,0.0,0.0,0.0,0.0,0.0,0.0,0.0,0.0,0.0,0.0,0.0,0.0,0.0,0.0,0.0,0.0,0.0,0.0,0.0,0.0,0.0,0.0,0.0,0.0,0.0,0.0,0.0,0.0,0.0,0.0,0.0,0.0,0.0,0.0,0.0,0.0,0.0,0.0,0.0,0.0,0.0,0.0,0.0,0.0,0.0,0.0,0.0,0.0,0.0,0.0,0.0,0.0,0.0,0.0,0.0,0.0,0.0,0.0,0.0,0.0,0.0,0.0,0.0,0.0,0.0,0.0,0.0,0.0,0.0,0.0,0.0,0.0,0.0,0.0,0.0,0.0,0.0,0.0,0.0,0.0,0.0,0.0,0.0,0.0,0.0,0.0,0.0,0.0,0.0,0.0,0.0,0.0,0.0,0.0,0.0,0.0,0.0,0.0,0.0,0.0,0.0,0.0,0.0,0.0,0.0,0.0,0.0,0.0,0.0,0.0,0.0,0.0,0.0,0.0,0.0,0.0,0.0,0.0,0.0,0.0,0.0,0.0,0.0,0.0,0.0,0.0,0.0,0.0,0.0,0.0,0.0,0.0,0.0,0.0,0.0,0.0,0.0,0.0,0.0,0.0,0.0,0.0,0.0,0.0,0.0,0.0,0.0,0.0,0.0,0.0,0.0,0.0,0.0,0.0,0.0,0.0,0.0,0.0,0.0,0.0,0.0,0.0,0.0,0.0,0.0,0.0,0.0,0.0,0.0,0.0,0.0,0.0,0.0,0.0,0.0,0.0,0.0,0.0,0.0,0.0,0.0,0.0,0.0,0.0,0.0,0.0,0.0,0.0,0.0,0.0,0.0,0.0,0.0,0.0,0.0,0.0,0.0,0.0,0.0,0.0,0.0,0.0,0.0,0.0,0.0,0.0,0.0,0.0,0.0,0.0,0.0,0.0,0.0,0.0,0.0,0.0,0.0,0.0,0.0,0.0,0.0,0.0,0.0,0.0,0.0,0.0,0.0,0.0,0.0,0.0,0.0,0.0,0.0,0.0,0.0,0.0,0.0,0.0,0.0,0.0,0.0,0.0,0.0,0.0,0.0,0.0,0.0,0.0,0.0,0.0,0.0,0.0,0.0,0.0,0.0,0.0,0.0,0.0,0.0,0.0,0.0,0.0,0.0,0.0,0.0,0.0,0.0,0.0,0.0,0.0,0.0,0.0,0.0,0.0,0.0,0.0,0.0,0.0,0.0,0.0,0.0,0.0,0.0,0.0,0.0,0.0,0.0,0.0,0.0,0.0,0.0,0.0,0.0,0.0,0.0,0.0,0.0,0.0,0.0,0.0,0.0,0.0,0.0,0.0,0.0,0.0,0.0,0.0,0.0,0.0,0.0,0.0,0.0,0.0,0.0,0.0,0.0,0.0,0.0,0.0,0.0,0.0,0.0,0.0,0.0,0.0,0.0,0.0,0.0,0.0,0.0,0.0,0.0,0.0,0.0,0.0,0.0,0.0,0.0,0.0,0.0,0.0,0.0,0.0,0.0,0.0,0.0,0.0,0.0,0.0,0.0,0.0,0.0,0.0,0.0,0.0,0.0,0.0,0.0,0.0,0.0,0.0,0.0,0.0,0.0,0.0,0.0,0.0,0.0,0.0,0.0,0.0,0.0,0.0,0.0,0.0,0.0,0.0,0.0,0.0,0.0,0.0,0.0,0.0,0.0,0.0,0.0,0.0,0.0,0.0,0.0,0.0,0.0,0.0,0.0,0.0,0.0,0.0,0.0,0.0,0.0,0.0,0.0,0.0,0.0,0.0,0.0,0.0,0.0,0.0,0.0,0.0,0.0,0.0,0.0,0.0,0.0,0.0,0.0,0.0,0.0,0.0,0.0,0.0,0.0,0.0,0.0,0.0,0.0,0.0,0.0,0.0,0.0,0.0,0.0,0.0,0.0,0.0,0.0,0.0,0.0,0.0,0.0,0.0,0.0,0.0,0.0,0.0,0.0,0.0,0.0,0.0,0.0,0.0,0.0,0.0,0.0,0.0,0.0,0.0,0.0,0.0,0.0,0.0,0.0,0.0,0.0,0.0,0.0,0.0,0.0,0.0,0.0,0.0,0.0,0.0,0.0,0.0,0.0,0.0,0.0,0.0,0.0,0.0,0.0,0.0,0.0,0.0,0.0,0.0,0.0,0.0,0.0,0.0,0.0,0.0,0.0,0.0,0.0,0.0,0.0,0.0,0.0,0.0,0.0,0.0,0.0,0.0,0.0,0.0,0.0,0.0,0.0,0.0,0.0,0.0,0.0,0.0,0.0,0.0,0.0,0.0,0.0,0.0,0.0,0.0,0.0,0.0,0.0,0.0,0.0,0.0,0.0,0.0,0.0,0.0,0.0,0.0,0.0,0.0,0.0,0.0,0.0,0.0,0.0,0.0,0.0,0.0,0.0,0.0,0.0,0.0,0.0,0.0,0.0,0.0,0.0,0.0,0.0,0.0,0.0,0.0,0.0,0.0,0.0,0.0,0.0,0.0,0.0,0.0,0.0,0.0,0.0,0.0,0.0,0.0,0.0,0.0,0.0,0.0,0.0,0.0,0.0,0.0,0.0,0.0,0.0,0.0,0.0,0.0,0.0,0.0,0.0,0.0,0.0,0.0,0.0,0.0,0.0,0.0,0.0,0.0,0.0,0.0,0.0,0.0,0.0,0.0,0.0,0.0,0.0,0.0,0.0,0.0,0.0,0.0,0.0,0.0,0.0,0.0,0.0,0.0,0.0,0.0,0.0,0.0,0.0,0.0,0.0,0.0,0.0,0.0,0.0,0.0,0.0,0.0,0.0,0.0,0.0,0.0,0.0,0.0,0.0,0.0,0.0,0.0,0.0,0.0,0.0,0.0,0.0,0.0,0.0,0.0,0.0,0.0,0.0,0.0,0.0,0.0,0.0,0.0,0.0,0.0,0.0,0.0,0.0,0.0,0.0,0.0,0.0,0.0,0.0,0.0,0.0,0.0,0.0,0.0,0.0,0.0,0.0,0.0,0.0,0.0,0.0,0.0,0.0,0.0,0.0,0.0,0.0,0.0,0.0,0.0,0.0,0.0,0.0,0.0,0.0,0.0,0.0,0.0,0.0,0.0,0.0,0.0,0.0,0.0,0.0,0.0,0.0,0.0,0.0,0.0,0.0,0.0,0.0,0.0,0.0,0.0,0.0,0.0,0.0,0.0,0.0,0.0,0.0,0.0,0.0,0.0,0.0,0.0,0.0,0.0,0.0,0.0,0.0,0.0,0.0,0.0,0.0,0.0,0.0,0.0,0.0,0.0,0.0,0.0,0.0,0.0,0.0,0.0,0.0,0.0,0.0,0.0,0.0,0.0,0.0,0.0,0.0,0.0,0.0,0.0,0.0,0.0,0.0,0.0,0.0,0.0,0.0,0.0,0.0,0.0,0.0,0.0,0.0,0.0,0.0,0.0,0.0,0.0,0.0,0.0,0.0,0.0,0.0,0.0,0.0,0.0,0.0,4.1889,0.0,0.0,0.0,0.0,0.0,0.0,0.0,0.0,0.0,0.0,0.0,0.0,0.0,0.0,0.0,0.0,0.0,0.0,0.0,0.0,0.0,0.0,0.0,0.0,0.0,0.0,0.0,0.0,0.0,0.0,0.0,0.0,0.0,0.0,0.0,0.0,0.0,0.0,0.0,0.0,0.0,0.0,0.0,0.0,0.0,0.0,0.0,0.0,0.0,0.0,0.0,0.0,0.0,0.0,0.0,0.0,0.0,0.0,0.0,0.0,0.0,0.0,0.0,0.0,0.0,0.0,0.0,0.0,0.0,0.0,0.0,0.0,0.0,0.0,0.0,0.0,0.0,0.0,0.0,0.0,0.0,0.0,0.0,0.0,0.0,0.0,0.0,0.0,0.0,0.0,0.0,0.0,0.0,0.0,0.0,0.0,0.0,0.0,0.0,0.0,0.0,0.0,0.0,0.0,0.0,0.0,0.0,0.0,0.0,0.0,4.5398,4.5013,4.5013,4.4432,4.3201,0.0,0.0,0.0,0.0,0.0,0.0,0.0,0.0,0.0,0.0,0.0,0.0,0.0,0.0,0.0,0.0,0.0,0.0,0.0,0.0,0.0,0.0,0.0,0.0,0.0,0.0,0.0,0.0,0.0,0.0,0.0,0.0,0.0,0.0,0.0,0.0,0.0,0.0,0.0,0.0,0.0,0.0,0.0,0.0,0.0,0.0,0.0,0.0,0.0,0.0,0.0,0.0,0.0,0.0,0.0,0.0,0.0,0.0,0.0,0.0,0.0,0.0,0.0,0.0,0.0,0.0,0.0,0.0,0.0,0.0,0.0,0.0,0.0,0.0,0.0,0.0,0.0,0.0,0.0,0.0,0.0,0.0,0.0,0.0,0.0,0.0,0.0,0.0,0.0,0.0,0.0,0.0,0.0,0.0,0.0,0.0,0.0,0.0,0.0,0.0,0.0,0.0,0.0,0.0,0.0,0.0,0.0,0.0,0.0,0.0,0.0,0.0,4.5594,4.509,4.4047,0.0,0.0,0.0,0.0,0.0,0.0,0.0,0.0,0.0,0.0,0.0,0.0,0.0,0.0,0.0,0.0,0.0,0.0,0.0,0.0,0.0,0.0,0.0,0.0,0.0,0.0,0.0,0.0,0.0,0.0,0.0,0.0,0.0,0.0,0.0,0.0,0.0,0.0,0.0,0.0,0.0,0.0,0.0,0.0,0.0,0.0,0.0,0.0,0.0,0.0,0.0,0.0,0.0,0.0,0.0,0.0,0.0,0.0,0.0,0.0,0.0,0.0,0.0,0.0,0.0,0.0,0.0,0.0,0.0,0.0,0.0,0.0,0.0,0.0,0.0,0.0,0.0,0.0,0.0,0.0,0.0,0.0,0.0,0.0,0.0,0.0,0.0,0.0,0.0,0.0,0.0,0.0,0.0,0.0,0.0,0.0,0.0,0.0,0.0,0.0,0.0,0.0,0.0,0.0,0.0,0.0,0.0,0.0,0.0,0.0,4.5594,4.5594,4.5594,0.0,4.3282,0.0,0.0,0.0,0.0,0.0,0.0,0.0,0.0,0.0,0.0,0.0,0.0,0.0,0.0,0.0,0.0,0.0,0.0,0.0,0.0,0.0,0.0,0.0,0.0,0.0,0.0,0.0,0.0,0.0,0.0,0.0,0.0,0.0,0.0,0.0,0.0,0.0,0.0,0.0,0.0,0.0,0.0,0.0,0.0,0.0,0.0,0.0,0.0,0.0,0.0,0.0,0.0,0.0,0.0,0.0,0.0,0.0,0.0,0.0,0.0,0.0,0.0,0.0,0.0,0.0,0.0,0.0,0.0,0.0,0.0,0.0,0.0,0.0,0.0,0.0,0.0,0.0,0.0,0.0,0.0,0.0,0.0,0.0,0.0,0.0,0.0,0.0,0.0,0.0,0.0,0.0,0.0,0.0,0.0,0.0,0.0,0.0,0.0,0.0,0.0,0.0,0.0,0.0,0.0,0.0,0.0,0.0,0.0,0.0,0.0,4.5594,4.5594,4.5594,4.4821,0.0,0.0,0.0,0.0,0.0,0.0,0.0,0.0,0.0,0.0,0.0,0.0,0.0,0.0,0.0,0.0,0.0,0.0,0.0,0.0,0.0,0.0,0.0,0.0,0.0,0.0,0.0,0.0,0.0,0.0,0.0,0.0,0.0,0.0,0.0,0.0,0.0,0.0,0.0,0.0,0.0,0.0,0.0,0.0,0.0,0.0,0.0,0.0,0.0,0.0,0.0,0.0,0.0,0.0,0.0,0.0,0.0,0.0,0.0,0.0,0.0,0.0,0.0,0.0,0.0,0.0,0.0,0.0,0.0,0.0,0.0,0.0,0.0,0.0,0.0,0.0,0.0,0.0,0.0,0.0,0.0,0.0,0.0,0.0,0.0,0.0,0.0,0.0,0.0,0.0,0.0,0.0,0.0,0.0,0.0,0.0,0.0,0.0,0.0,0.0,0.0,0.0,0.0,0.0,0.0,0.0,0.0,0.0,0.0,0.0,4.5612,4.5607,4.5594,4.5594,4.4821,4.3162,0.0,0.0,0.0,0.0,0.0,0.0,0.0,0.0,0.0,0.0,0.0,0.0,0.0,0.0,0.0,0.0,0.0,0.0,0.0,0.0,0.0,0.0,0.0,0.0,0.0,0.0,0.0,0.0,0.0,0.0,0.0,0.0,0.0,0.0,0.0,0.0,0.0,0.0,0.0,0.0,0.0,0.0,0.0,0.0,0.0,0.0,0.0,0.0,0.0,0.0,0.0,0.0,0.0,0.0,0.0,0.0,0.0,0.0,0.0,0.0,0.0,0.0,0.0,0.0,0.0,0.0,0.0,0.0,0.0,0.0,0.0,0.0,0.0,0.0,0.0,0.0,0.0,0.0,0.0,0.0,0.0,0.0,0.0,0.0,0.0,0.0,0.0,0.0,0.0,0.0,0.0,0.0,0.0,0.0,0.0,0.0,0.0,0.0,0.0,0.0,0.0,0.0,0.0,0.0,0.0,0.0,0.0,0.0,4.5701,4.5697,4.5676,4.5633,4.5594,4.4821,0.0,0.0,0.0,0.0,0.0,0.0,0.0,0.0,0.0,0.0,0.0,0.0,0.0,0.0,0.0,0.0,0.0,0.0,0.0,0.0,0.0,0.0,0.0,0.0,0.0,0.0,0.0,0.0,0.0,0.0,0.0,0.0,0.0,0.0,0.0,0.0,0.0,0.0,0.0,0.0,0.0,0.0,0.0,0.0,0.0,0.0,0.0,0.0,0.0,0.0,0.0,0.0,0.0,0.0,0.0,0.0,0.0,0.0,0.0,0.0,0.0,0.0,0.0,0.0,0.0,0.0,0.0,0.0,0.0,0.0,0.0,0.0,0.0,0.0,0.0,0.0,0.0,0.0,0.0,0.0,0.0,0.0,0.0,0.0,0.0,0.0,0.0,0.0,0.0,0.0,0.0,0.0,0.0,0.0,0.0,0.0,0.0,0.0,0.0,0.0,0.0,0.0,0.0,0.0,0.0,0.0,0.0,0.0,0.0,4.5701,4.5672,4.5915,4.6394,4.5898,4.4821,0.0,0.0,0.0,0.0,0.0,0.0,0.0,0.0,0.0,0.0,0.0,0.0,0.0,0.0,0.0,0.0,0.0,0.0,0.0,0.0,0.0,0.0,0.0,0.0,0.0,0.0,0.0,0.0,0.0,0.0,0.0,0.0,0.0,0.0,0.0,0.0,0.0,0.0,0.0,0.0,0.0,0.0,0.0,0.0,0.0,0.0,0.0,0.0,0.0,0.0,0.0,0.0,0.0,0.0,0.0,0.0,0.0,0.0,0.0,0.0,0.0,0.0,0.0,0.0,0.0,0.0,0.0,0.0,0.0,0.0,0.0,0.0,0.0,0.0,0.0,0.0,0.0,0.0,0.0,0.0,0.0,0.0,0.0,0.0,0.0,0.0,0.0,0.0,0.0,0.0,0.0,0.0,0.0,0.0,0.0,0.0,0.0,0.0,0.0,0.0,0.0,0.0,0.0,0.0,0.0,0.0,0.0,0.0,0.0,4.6107,0.0,4.6608,4.6851,4.6317,4.5205,0.0,0.0,0.0,0.0,0.0,0.0,0.0,0.0,0.0,0.0,0.0,0.0,0.0,0.0,0.0,0.0,0.0,0.0,0.0,0.0,0.0,0.0,0.0,0.0,0.0,0.0,0.0,0.0,0.0,0.0,0.0,0.0,0.0,0.0,0.0,0.0,0.0,0.0,0.0,0.0,0.0,0.0,0.0,0.0,0.0,0.0,0.0,0.0,0.0,0.0,0.0,0.0,0.0,0.0,0.0,0.0,0.0,0.0,0.0,0.0,0.0,0.0,0.0,0.0,0.0,0.0,0.0,0.0,0.0,0.0,0.0,0.0,0.0,0.0,0.0,0.0,0.0,0.0,0.0,0.0,0.0,0.0,0.0,0.0,0.0,0.0,0.0,0.0,0.0,0.0,0.0,0.0,0.0,0.0,0.0,0.0,0.0,0.0,0.0,0.0,0.0,0.0,0.0,0.0,0.0,0.0,0.0,0.0,4.6306,4.6988,4.7756,4.7747,4.6966,4.6885,4.6043,0.0,0.0,0.0,0.0,0.0,0.0,0.0,0.0,0.0,0.0,0.0,0.0,0.0,0.0,0.0,0.0,0.0,0.0,0.0,0.0,0.0,0.0,0.0,0.0,0.0,0.0,0.0,0.0,0.0,0.0,0.0,0.0,0.0,0.0,0.0,0.0,0.0,0.0,0.0,0.0,0.0,0.0,0.0,0.0,0.0,0.0,0.0,0.0,0.0,0.0,0.0,0.0,0.0,0.0,0.0,0.0,0.0,0.0,0.0,0.0,0.0,0.0,0.0,0.0,0.0,0.0,0.0,0.0,0.0,0.0,0.0,0.0,0.0,0.0,0.0,0.0,0.0,0.0,0.0,0.0,0.0,0.0,0.0,0.0,0.0,0.0,0.0,0.0,0.0,0.0,0.0,0.0,0.0,0.0,0.0,0.0,0.0,0.0,0.0,0.0,0.0,0.0,0.0,0.0,0.0,0.0,0.0,0.0,0.0,4.7833,4.7985,4.8188,4.8437,4.7396,4.6296,0.0,0.0,0.0,0.0,0.0,0.0,0.0,0.0,0.0,0.0,0.0,0.0,0.0,0.0,0.0,0.0,0.0,0.0,0.0,0.0,0.0,0.0,0.0,0.0,0.0,0.0,0.0,0.0,0.0,0.0,0.0,0.0,0.0,0.0,0.0,0.0,0.0,0.0,0.0,0.0,0.0,0.0,0.0,0.0,0.0,0.0,0.0,0.0,0.0,0.0,0.0,0.0,0.0,0.0,0.0,0.0,0.0,0.0,0.0,0.0,0.0,0.0,0.0,0.0,0.0,0.0,0.0,0.0,0.0,0.0,0.0,0.0,0.0,0.0,0.0,0.0,0.0,0.0,0.0,0.0,0.0,0.0,0.0,0.0,0.0,0.0,0.0,0.0,0.0,0.0,0.0,0.0,0.0,0.0,0.0,0.0,0.0,0.0,0.0,0.0,0.0,0.0,0.0,0.0,0.0,0.0,0.0,0.0,0.0,4.872,4.8949,4.9096,4.9217,4.7967,4.6872,4.6008,0.0,0.0,0.0,0.0,0.0,0.0,0.0,0.0,0.0,0.0,0.0,0.0,0.0,0.0,0.0,0.0,0.0,0.0,0.0,0.0,0.0,0.0,0.0,0.0,0.0,0.0,0.0,0.0,0.0,0.0,0.0,0.0,0.0,0.0,0.0,0.0,0.0,0.0,0.0,0.0,0.0,0.0,0.0,0.0,0.0,0.0,0.0,0.0,0.0,0.0,0.0,0.0,0.0,0.0,0.0,0.0,0.0,0.0,0.0,0.0,0.0,0.0,0.0,0.0,0.0,0.0,0.0,0.0,0.0,0.0,0.0,0.0,0.0,0.0,0.0,0.0,0.0,0.0,0.0,0.0,0.0,0.0,0.0,0.0,0.0,0.0,0.0,0.0,0.0,0.0,0.0,0.0,0.0,0.0,0.0,0.0,0.0,0.0,0.0,0.0,0.0,0.0,0.0,0.0,0.0,0.0,0.0,0.0,4.9664,5.0426,5.0325,4.9426,4.8592,4.7751,0.0,0.0,0.0,0.0,0.0,0.0,0.0,0.0,0.0,0.0,0.0,0.0,0.0,0.0,0.0,0.0,0.0,0.0,0.0,0.0,0.0,0.0,0.0,0.0,0.0,0.0,0.0,0.0,0.0,0.0,0.0,0.0,0.0,0.0,0.0,0.0,0.0,0.0,0.0,0.0,0.0,0.0,0.0,0.0,0.0,0.0,0.0,0.0,0.0,0.0,0.0,0.0,0.0,0.0,0.0,0.0,0.0,0.0,0.0,0.0,0.0,0.0,0.0,0.0,0.0,0.0,0.0,0.0,0.0,0.0,0.0,0.0,0.0,0.0,0.0,0.0,0.0,0.0,0.0,0.0,0.0,0.0,0.0,0.0,0.0,0.0,0.0,0.0,0.0,0.0,0.0,0.0,0.0,0.0,0.0,0.0,0.0,0.0,0.0,0.0,0.0,0.0,0.0,0.0,0.0,0.0,0.0,0.0,0.0,5.0639,5.0809,5.0696,5.0282,4.9481,4.8659,0.0,0.0,0.0,0.0,0.0,0.0,0.0,0.0,0.0,0.0,0.0,0.0,0.0,0.0,0.0,0.0,0.0,0.0,0.0,0.0,0.0,0.0,0.0,0.0,0.0,0.0,0.0,0.0,0.0,0.0,0.0,0.0,0.0,0.0,0.0,0.0,0.0,0.0,0.0,0.0,0.0,0.0,0.0,0.0,0.0,0.0,0.0,0.0,0.0,0.0,0.0,0.0,0.0,0.0,0.0,0.0,0.0,0.0,0.0,0.0,0.0,0.0,0.0,0.0,0.0,0.0,0.0,0.0,0.0,0.0,0.0,0.0,0.0,0.0,0.0,0.0,0.0,0.0,0.0,0.0,0.0,0.0,0.0,0.0,0.0,0.0,0.0,0.0,0.0,0.0,0.0,0.0,0.0,0.0,0.0,0.0,0.0,0.0,0.0,0.0,0.0,0.0,0.0,0.0,0.0,0.0,0.0,0.0,4.9443,5.1059,5.1037,5.0925,5.0742,4.9901,4.9022,0.0,0.0,0.0,0.0,0.0,0.0,0.0,0.0,0.0,0.0,0.0,0.0,0.0,0.0,0.0,0.0,0.0,0.0,0.0,0.0,0.0,0.0,0.0,0.0,0.0,0.0,0.0,0.0,0.0,0.0,0.0,0.0,0.0,0.0,0.0,0.0,0.0,0.0,0.0,0.0,0.0,0.0,0.0,0.0,0.0,0.0,0.0,0.0,0.0,0.0,0.0,0.0,0.0,0.0,0.0,0.0,0.0,0.0,0.0,0.0,0.0,0.0,0.0,0.0,0.0,0.0,0.0,0.0,0.0,0.0,0.0,0.0,0.0,0.0,0.0,0.0,0.0,0.0,0.0,0.0,0.0,0.0,0.0,0.0,0.0,0.0,0.0,0.0,0.0,0.0,0.0,0.0,0.0,0.0,0.0,0.0,0.0,0.0,0.0,0.0,0.0,0.0,0.0,0.0,0.0,0.0,0.0,0.0,4.9484,5.1106,5.1133,5.1085,5.0988,5.0132,4.9191,0.0,0.0,0.0,0.0,0.0,0.0,0.0,0.0,0.0,0.0,0.0,0.0,0.0,0.0,0.0,0.0,0.0,0.0,0.0,0.0,0.0,0.0,0.0,0.0,0.0,0.0,0.0,0.0,0.0,0.0,0.0,0.0,0.0,0.0,0.0,0.0,0.0,0.0,0.0,0.0,0.0,0.0,0.0,0.0,0.0,0.0,0.0,0.0,0.0,0.0,0.0,0.0,0.0,0.0,0.0,0.0,0.0,0.0,0.0,0.0,0.0,0.0,0.0,0.0,0.0,0.0,0.0,0.0,0.0,0.0,0.0,0.0,0.0,0.0,0.0,0.0,0.0,0.0,0.0,0.0,0.0,0.0,0.0,0.0,0.0,0.0,0.0,0.0,0.0,0.0,0.0,0.0,0.0,0.0,0.0,0.0,0.0,0.0,0.0,0.0,0.0,0.0,0.0,0.0,0.0,0.0,0.0,0.0,4.9572,5.1213,5.1196,5.1142,5.1091,5.0765,4.9881,0.0,0.0,0.0,0.0,0.0,0.0,0.0,0.0,0.0,0.0,0.0,0.0,0.0,0.0,0.0,0.0,0.0,0.0,0.0,0.0,0.0,0.0,0.0,0.0,0.0,0.0,0.0,0.0,0.0,0.0,0.0,0.0,0.0,0.0,0.0,0.0,0.0,0.0,0.0,0.0,0.0,0.0,0.0,0.0,0.0,0.0,0.0,0.0,5.0667,0.0,0.0,0.0,0.0,0.0,0.0,0.0,0.0,0.0,0.0,0.0,0.0,0.0,0.0,0.0,0.0,0.0,0.0,0.0,0.0,0.0,0.0,0.0,0.0,0.0,0.0,0.0,0.0,0.0,0.0,0.0,0.0,0.0,0.0,0.0,0.0,0.0,0.0,0.0,0.0,0.0,0.0,0.0,0.0,0.0,0.0,0.0,0.0,0.0,0.0,0.0,0.0,0.0,0.0,0.0,0.0,0.0,0.0,0.0,4.9616,5.1231,5.1258,5.1215,5.1185,5.1098,5.0209,0.0,0.0,0.0,0.0,0.0,0.0,0.0,0.0,0.0,0.0,0.0,0.0,0.0,0.0,0.0,0.0,0.0,0.0,0.0,0.0,0.0,0.0,0.0,0.0,0.0,0.0,0.0,0.0,0.0,0.0,0.0,0.0,0.0,0.0,0.0,0.0,0.0,0.0,0.0,0.0,0.0,0.0,0.0,0.0,0.0,0.0,0.0,0.0,0.0,0.0,0.0,0.0,0.0,0.0,0.0,0.0,0.0,0.0,0.0,0.0,0.0,0.0,0.0,0.0,0.0,0.0,0.0,0.0,0.0,0.0,0.0,0.0,0.0,0.0,0.0,0.0,0.0,0.0,0.0,0.0,0.0,0.0,0.0,0.0,0.0,0.0,0.0,0.0,0.0,0.0,0.0,0.0,0.0,0.0,0.0,0.0,0.0,0.0,0.0,0.0,0.0,0.0,0.0,0.0,0.0,0.0,0.0,4.8813,4.961,5.1226,5.1312,5.1322,5.1295,5.1252,5.0373,4.8612,0.0,0.0,0.0,0.0,0.0,0.0,0.0,0.0,0.0,0.0,0.0,0.0,0.0,0.0,0.0,0.0,0.0,0.0,0.0,0.0,0.0,0.0,0.0,0.0,0.0,0.0,0.0,0.0,0.0,0.0,0.0,0.0,0.0,0.0,0.0,0.0,0.0,0.0,4.953,5.1928,0.0,0.0,0.0,0.0,0.0,0.0,0.0,0.0,5.1668,0.0,0.0,0.0,0.0,0.0,0.0,0.0,0.0,0.0,0.0,0.0,0.0,0.0,0.0,0.0,0.0,0.0,0.0,0.0,0.0,0.0,0.0,0.0,0.0,0.0,0.0,0.0,0.0,0.0,0.0,0.0,0.0,0.0,0.0,0.0,0.0,0.0,0.0,0.0,0.0,0.0,0.0,0.0,0.0,0.0,0.0,0.0,0.0,0.0,0.0,0.0,0.0,0.0,0.0,0.0,0.0,4.8785,4.8786,4.9631,5.1331,5.1396,5.1369,5.1316,5.1308,5.0462,4.881,0.0,0.0,0.0,0.0,0.0,0.0,0.0,0.0,0.0,0.0,0.0,0.0,0.0,0.0,0.0,0.0,0.0,0.0,0.0,0.0,0.0,0.0,0.0,0.0,0.0,0.0,0.0,0.0,0.0,0.0,0.0,0.0,0.0,0.0,0.0,0.0,0.0,0.0,0.0,5.3942,5.4971,0.0,0.0,0.0,0.0,0.0,0.0,0.0,0.0,5.2912,0.0,0.0,0.0,0.0,0.0,0.0,0.0,0.0,0.0,0.0,0.0,0.0,0.0,0.0,0.0,0.0,0.0,0.0,0.0,0.0,0.0,0.0,0.0,0.0,0.0,0.0,0.0,0.0,0.0,0.0,0.0,0.0,0.0,0.0,0.0,0.0,0.0,0.0,0.0,0.0,0.0,0.0,0.0,0.0,0.0,0.0,0.0,0.0,0.0,0.0,0.0,0.0,0.0,0.0,0.0,4.8689,4.8787,4.9647,5.1321,5.139,5.1372,5.1378,5.1369,5.0534,0.0,0.0,0.0,0.0,0.0,0.0,0.0,0.0,0.0,0.0,0.0,0.0,0.0,0.0,0.0,0.0,0.0,0.0,0.0,0.0,0.0,0.0,0.0,0.0,0.0,0.0,0.0,0.0,0.0,0.0,0.0,0.0,0.0,0.0,0.0,0.0,0.0,0.0,0.0,0.0,5.52,5.6411,5.7132,0.0,0.0,0.0,0.0,0.0,0.0,5.4987,5.4196,0.0,0.0,0.0,0.0,0.0,0.0,0.0,0.0,0.0,0.0,0.0,0.0,0.0,0.0,0.0,0.0,0.0,0.0,0.0,0.0,0.0,0.0,0.0,0.0,0.0,0.0,0.0,0.0,0.0,0.0,0.0,0.0,0.0,0.0,0.0,0.0,0.0,0.0,0.0,0.0,0.0,0.0,0.0,0.0,0.0,0.0,0.0,0.0,0.0,0.0,0.0,0.0,0.0,0.0,0.0,4.8698,4.8808,4.9643,5.1289,5.1405,5.1396,5.1381,5.1255,5.0423,0.0,0.0,0.0,0.0,0.0,0.0,0.0,0.0,0.0,0.0,0.0,0.0,0.0,0.0,0.0,0.0,0.0,0.0,0.0,0.0,0.0,0.0,0.0,0.0,0.0,0.0,0.0,0.0,0.0,0.0,0.0,0.0,0.0,0.0,0.0,0.0,0.0,0.0,0.0,0.0,0.0,5.7512,5.7765,5.8144,0.0,0.0,0.0,0.0,5.6778,5.5975,0.0,0.0,0.0,0.0,0.0,0.0,0.0,0.0,0.0,0.0,0.0,0.0,0.0,0.0,0.0,0.0,0.0,0.0,0.0,0.0,0.0,0.0,0.0,0.0,0.0,0.0,0.0,0.0,0.0,0.0,0.0,0.0,0.0,0.0,0.0,0.0,0.0,0.0,0.0,0.0,0.0,0.0,0.0,0.0,0.0,0.0,0.0,0.0,0.0,0.0,0.0,0.0,0.0,0.0,0.0,0.0,4.8629,4.8787,4.9631,5.1283,5.1406,5.1405,5.1397,5.0649,4.982,0.0,0.0,0.0,0.0,0.0,0.0,0.0,0.0,0.0,0.0,0.0,0.0,0.0,0.0,0.0,0.0,0.0,0.0,0.0,0.0,0.0,0.0,0.0,0.0,0.0,0.0,0.0,0.0,0.0,0.0,0.0,0.0,0.0,0.0,0.0,0.0,0.0,0.0,0.0,0.0,0.0,5.7961,5.9316,5.8912,5.8434,0.0,0.0,5.6972,5.6955,5.6162,0.0,0.0,0.0,0.0,0.0,0.0,0.0,0.0,0.0,0.0,0.0,0.0,0.0,0.0,0.0,0.0,0.0,0.0,0.0,0.0,0.0,0.0,0.0,0.0,0.0,0.0,0.0,0.0,0.0,0.0,0.0,0.0,0.0,0.0,0.0,0.0,0.0,0.0,0.0,0.0,0.0,0.0,0.0,0.0,0.0,0.0,0.0,0.0,0.0,0.0,0.0,0.0,0.0,0.0,0.0,4.6912,4.8653,4.8735,4.9633,5.1301,5.1391,5.1401,5.1406,5.1054,5.0193,0.0,0.0,0.0,0.0,0.0,0.0,0.0,0.0,0.0,0.0,0.0,0.0,0.0,0.0,0.0,0.0,0.0,0.0,0.0,0.0,0.0,0.0,0.0,0.0,0.0,0.0,0.0,0.0,0.0,0.0,0.0,0.0,0.0,0.0,0.0,0.0,0.0,0.0,0.0,0.0,0.0,0.0,5.969,5.9558,0.0,0.0,0.0,5.8559,5.847,0.0,0.0,0.0,0.0,0.0,0.0,0.0,0.0,0.0,0.0,0.0,0.0,0.0,0.0,0.0,0.0,0.0,0.0,0.0,0.0,0.0,0.0,0.0,0.0,0.0,0.0,0.0,0.0,0.0,0.0,0.0,0.0,0.0,0.0,0.0,0.0,0.0,0.0,0.0,0.0,0.0,0.0,0.0,0.0,0.0,0.0,0.0,0.0,0.0,0.0,0.0,0.0,0.0,0.0,0.0,0.0,0.0,4.8626,4.8913,4.9779,5.1302,5.1358,5.1376,5.1391,5.1203,0.0,0.0,0.0,0.0,0.0,0.0,0.0,0.0,0.0,0.0,0.0,0.0,0.0,0.0,0.0,0.0,0.0,0.0,0.0,0.0,0.0,0.0,0.0,0.0,0.0,0.0,0.0,4.599,0.0,0.0,0.0,0.0,0.0,0.0,0.0,0.0,0.0,0.0,0.0,0.0,0.0,0.0,5.8188,5.9763,5.9966,5.9893,0.0,0.0,5.9757,5.965,5.8177,5.7024,0.0,0.0,0.0,0.0,0.0,0.0,0.0,0.0,0.0,0.0,0.0,0.0,0.0,0.0,0.0,0.0,0.0,0.0,0.0,0.0,0.0,0.0,0.0,0.0,0.0,0.0,0.0,0.0,0.0,0.0,0.0,0.0,0.0,0.0,0.0,0.0,0.0,0.0,0.0,0.0,0.0,0.0,0.0,0.0,0.0,0.0,0.0,0.0,0.0,0.0,0.0,0.0,0.0,0.0,0.0,4.8608,4.9466,5.0369,5.1248,5.1283,5.1347,5.1363,5.063,5.0127,0.0,0.0,0.0,0.0,0.0,0.0,0.0,0.0,0.0,0.0,0.0,0.0,0.0,0.0,0.0,0.0,0.0,0.0,0.0,0.0,0.0,0.0,0.0,0.0,0.0,0.0,0.0,0.0,0.0,0.0,0.0,0.0,0.0,0.0,0.0,0.0,0.0,0.0,0.0,0.0,0.0,5.8247,5.9809,6.0013,5.9982,0.0,0.0,5.9774,5.9811,5.827,5.7079,5.7117,0.0,0.0,0.0,0.0,0.0,0.0,0.0,0.0,0.0,0.0,0.0,0.0,0.0,0.0,0.0,0.0,0.0,0.0,0.0,0.0,0.0,0.0,0.0,0.0,0.0,0.0,0.0,0.0,0.0,0.0,0.0,0.0,0.0,0.0,0.0,0.0,0.0,0.0,0.0,0.0,0.0,0.0,0.0,0.0,0.0,0.0,0.0,0.0,0.0,0.0,0.0,0.0,0.0,4.7595,4.8535,4.9484,5.0345,5.1198,5.1271,5.1296,5.1353,5.1019,5.0602,0.0,0.0,0.0,0.0,0.0,0.0,0.0,0.0,0.0,0.0,0.0,0.0,0.0,0.0,0.0,0.0,0.0,0.0,0.0,0.0,0.0,0.0,0.0,0.0,0.0,0.0,0.0,0.0,4.7366,4.7388,4.7198,0.0,0.0,0.0,0.0,0.0,0.0,0.0,0.0,0.0,0.0,5.8282,5.9938,6.0076,0.0,0.0,5.9893,5.9874,5.9874,5.8362,5.7208,5.7208,5.509,0.0,0.0,0.0,0.0,0.0,0.0,0.0,0.0,0.0,0.0,0.0,0.0,0.0,0.0,0.0,0.0,0.0,0.0,0.0,0.0,0.0,0.0,0.0,0.0,0.0,0.0,0.0,0.0,0.0,0.0,0.0,0.0,0.0,0.0,0.0,0.0,0.0,0.0,0.0,0.0,0.0,0.0,0.0,0.0,0.0,0.0,0.0,0.0,0.0,0.0,0.0,0.0,4.8192,4.8858,4.9795,5.0545,5.1144,5.1206,5.1271,5.1258,5.1277,5.1021,0.0,0.0,0.0,0.0,0.0,0.0,0.0,0.0,0.0,0.0,0.0,0.0,0.0,0.0,0.0,0.0,0.0,0.0,0.0,0.0,0.0,0.0,0.0,0.0,0.0,0.0,0.0,0.0,4.8577,4.8601,4.7767,0.0,0.0,0.0,0.0,0.0,0.0,0.0,0.0,0.0,0.0,5.8672,6.0101,6.0212,6.0076,6.0014,5.9982,5.9926,5.9934,5.8686,5.7721,5.7721,0.0,0.0,0.0,0.0,0.0,0.0,0.0,0.0,0.0,0.0,0.0,0.0,0.0,0.0,0.0,0.0,0.0,0.0,0.0,0.0,0.0,0.0,0.0,0.0,0.0,0.0,0.0,0.0,0.0,0.0,4.9911,0.0,0.0,0.0,0.0,0.0,0.0,0.0,0.0,0.0,0.0,0.0,0.0,0.0,0.0,0.0,0.0,0.0,0.0,0.0,0.0,0.0,0.0,4.9552,4.9668,5.0601,5.1095,5.1122,5.1125,5.1195,5.1247,5.1211,5.1225,5.1291,0.0,0.0,0.0,0.0,0.0,0.0,0.0,0.0,0.0,0.0,0.0,0.0,0.0,0.0,0.0,0.0,0.0,0.0,0.0,0.0,0.0,0.0,0.0,0.0,0.0,0.0,4.9739,4.9847,4.9498,0.0,0.0,0.0,0.0,0.0,0.0,0.0,0.0,0.0,0.0,5.8227,5.9464,6.0269,6.0337,6.0257,6.0144,6.0022,6.0013,6.0013,5.9229,5.868,0.0,0.0,0.0,0.0,0.0,0.0,0.0,0.0,0.0,0.0,0.0,0.0,0.0,0.0,0.0,0.0,0.0,0.0,0.0,0.0,0.0,0.0,0.0,0.0,0.0,0.0,0.0,5.3471,5.3403,0.0,0.0,0.0,0.0,0.0,0.0,0.0,0.0,0.0,0.0,0.0,5.2331,5.2331,0.0,0.0,0.0,0.0,0.0,0.0,0.0,0.0,0.0,0.0,0.0,0.0,4.9601,4.9742,5.1149,5.1897,5.191,5.2515,5.2822,5.2858,5.288,5.2674,5.2118,0.0,0.0,0.0,0.0,0.0,0.0,0.0,0.0,0.0,0.0,0.0,0.0,0.0,0.0,0.0,0.0,0.0,0.0,0.0,0.0,0.0,0.0,0.0,0.0,0.0,4.9903,0.0,0.0,0.0,0.0,0.0,0.0,0.0,0.0,0.0,0.0,0.0,5.5941,5.7566,5.864,5.953,6.0338,6.0384,6.0344,0.0,0.0,0.0,0.0,0.0,0.0,0.0,0.0,0.0,0.0,0.0,0.0,0.0,0.0,5.4672,5.2833,5.1929,5.1387,5.1232,0.0,0.0,0.0,0.0,0.0,0.0,0.0,0.0,0.0,0.0,0.0,0.0,0.0,0.0,5.5357,0.0,5.446,0.0,0.0,0.0,0.0,0.0,0.0,0.0,0.0,5.4951,5.4967,5.4934,5.4664,5.4511,0.0,5.3897,5.2717,0.0,0.0,0.0,0.0,0.0,0.0,0.0,0.0,5.0555,5.0974,5.2101,5.269,5.2746,5.3314,5.3652,5.365,5.3733,5.35,5.2985,5.2463,5.1621,0.0,0.0,0.0,0.0,0.0,0.0,0.0,0.0,0.0,0.0,0.0,0.0,0.0,0.0,0.0,0.0,0.0,0.0,0.0,0.0,0.0,0.0,0.0,5.0713,0.0,0.0,0.0,0.0,0.0,0.0,0.0,0.0,0.0,5.4463,5.5569,5.6942,5.8538,5.9367,5.9995,6.0521,0.0,0.0,0.0,0.0,0.0,0.0,0.0,5.9772,5.9726,5.8973,5.8357,5.8271,5.8216,5.8205,5.8173,0.0,0.0,5.4733,5.3762,5.3237,5.3013,5.2858,5.2669,5.2495,5.2232,5.2145,0.0,0.0,0.0,0.0,0.0,0.0,0.0,0.0,5.8042,5.8074,0.0,5.7172,0.0,0.0,0.0,0.0,0.0,5.5698,0.0,0.0,5.8198,5.8275,5.8204,5.7363,5.7022,5.6945,5.5395,5.4626,5.4505,5.2834,0.0,0.0,0.0,0.0,0.0,0.0,5.2463,5.3213,5.3369,5.3468,5.355,5.3596,5.3615,5.3698,5.3764,5.3814,5.3847,5.3833,5.3032,5.1361,5.1288,0.0,0.0,0.0,0.0,0.0,0.0,0.0,0.0,0.0,0.0,0.0,0.0,0.0,0.0,0.0,0.0,0.0,0.0,0.0,0.0,5.0993,0.0,0.0,0.0,0.0,0.0,0.0,0.0,0.0,0.0,0.0,5.6353,5.6951,5.7981,5.9597,0.0,0.0,0.0,0.0,6.1837,6.1756,6.2338,6.2762,6.2727,6.1949,6.1324,6.1317,0.0,0.0,5.9872,5.9893,5.9823,5.9807,5.9005,5.8139,5.7166,5.663,5.6397,5.6204,5.5848,5.5722,5.557,5.501,5.4806,6.2551,0.0,0.0,0.0,0.0,6.0366,6.0358,5.9811,5.9869,5.953,5.8971,5.8123,0.0,0.0,0.0,0.0,0.0,0.0,5.7796,5.8275,5.8275,5.8275,5.828,5.805,5.7934,5.7896,5.7434,5.7203,5.7159,5.6061,5.4358,5.2085,0.0,0.0,0.0,0.0,5.3041,5.3329,5.3987,5.4345,5.4404,5.5017,5.5401,5.5443,5.5451,5.5207,5.4595,5.461,5.4175,5.3125,5.3063,0.0,0.0,0.0,0.0,0.0,0.0,0.0,0.0,0.0,0.0,0.0,0.0,0.0,0.0,0.0,0.0,0.0,0.0,0.0,5.2766,5.3111,5.3266,0.0,0.0,0.0,0.0,0.0,0.0,0.0,0.0,0.0,5.8873,5.9176,5.9405,0.0,0.0,6.1152,6.1731,6.1432,6.1516,6.2612,6.188,0.0,6.2,6.1318,6.0666,6.0608,6.0258,6.0005,5.9982,5.9934,5.9885,5.989,5.9627,5.9261,5.8838,5.7629,5.6687,5.6403,5.6273,5.608,5.5807,5.5563,5.5373,6.549,6.3985,6.2648,6.1836,6.1472,6.2076,6.2067,6.1633,6.1633,6.1358,6.0914,6.0384,5.9814,5.9184,5.8502,0.0,0.0,0.0,5.8973,5.9281,5.9281,5.9281,5.9281,5.8934,5.8775,5.8781,5.8473,5.8275,5.828,5.778,5.6747,5.5236,0.0,0.0,5.3703,5.3738,5.3937,5.4299,5.4882,5.5353,5.5754,5.6648,5.712,5.716,5.7149,5.6942,5.6467,5.6159,5.5605,5.4843,5.4469,5.39,0.0,0.0,0.0,0.0,0.0,0.0,0.0,0.0,0.0,0.0,0.0,4.8983,4.9805,0.0,0.0,0.0,5.2452,5.2869,5.3911,5.4296,0.0,0.0,0.0,0.0,0.0,0.0,0.0,5.7359,5.7847,5.8601,6.0092,6.0463,6.0597,6.0546,6.0833,6.1215,6.1687,0.0,6.1645,6.2623,6.2062,6.174,6.2184,6.1524,6.0759,6.0346,6.0212,6.0083,6.0021,5.9974,5.9934,5.9893,5.9849,5.9757,5.9624,5.8619,5.7725,5.7489,5.7322,5.7167,5.6884,5.6687,5.6461,6.8036,6.7806,6.4712,6.341,6.3302,6.337,6.3367,6.331,6.331,6.3303,6.3314,6.3314,6.2435,6.0935,5.939,0.0,5.9781,5.9775,6.0242,6.1018,6.0979,6.0979,6.0864,6.0089,5.9665,5.9583,5.8858,5.8506,5.8506,5.8434,5.839,5.8313,5.6011,5.4818,5.478,5.4818,5.5196,5.5984,5.6068,5.6469,5.7303,5.816,5.8587,5.8592,5.8596,5.8637,5.8749,5.8019,5.7261,5.6524,5.567,5.4866,5.4122,0.0,0.0,0.0,0.0,0.0,0.0,0.0,0.0,0.0,0.0,0.0,0.0,0.0,0.0,0.0,5.4327,0.0,5.4396,5.5129,0.0,0.0,0.0,5.5903,5.6722,5.68,5.7415,5.9027,0.0,0.0,6.0408,6.1056,6.146,6.1394,6.1212,6.1132,6.1209,6.1657,6.2061,6.219,6.2617,6.2951,6.271,6.2042,6.1176,6.0444,6.0294,6.0227,6.006,6.0013,5.9982,5.9902,5.9857,5.9765,5.9633,5.9461,5.9401,5.8988,5.8808,5.8619,5.83,5.8079,5.7827,6.8618,6.8043,6.7316,6.6674,6.6053,6.6074,6.5384,6.4295,6.4257,6.3917,6.3314,6.3314,6.3083,6.2698,6.2314,6.2198,6.2391,6.2391,6.2506,6.2698,6.2698,6.2397,6.1787,6.1595,6.1133,6.0512,6.0281,6.021,6.0165,5.955,5.9204,5.9165,5.8011,5.739,5.739,5.7396,5.75,5.7708,5.776,5.795,5.8237,5.8488,5.8617,5.8587,5.8579,5.8659,5.8711,5.8587,5.8429,5.8192,5.7418,5.689,5.6685,5.528,0.0,0.0,0.0,0.0,0.0,0.0,0.0,0.0,0.0,5.1755,5.3242,0.0,5.4336,0.0,5.7144,5.7878,5.7872,5.8058,0.0,0.0,5.8049,5.8284,5.8479,5.8479,5.8941,5.9979,6.0277,6.0648,6.1207,6.1417,6.1478,6.146,6.132,6.1457,6.2039,6.164,6.1798,6.2734,6.213,6.1599,6.2003,6.1353,6.0658,6.0394,6.033,6.0257,6.0076,6.0014,5.9952,5.991,5.9915,5.9832,5.9642,5.9589,5.9474,5.9215,5.9041,5.8832,5.8454,5.8349,5.8193,7.0248,6.9871,6.9529,6.8932,6.8184,6.78,6.7128,6.6314,6.6282,6.582,6.4936,6.4199,6.3891,6.3852,6.3468,6.3314,6.3314,6.3314,6.3314,6.3314,6.3314,6.3045,6.2627,6.2627,6.2397,6.1935,6.1897,6.1743,6.1364,6.0902,6.0473,6.0089,5.9627,5.9396,5.9396,5.866,5.8292,5.8286,5.8757,5.9031,5.9152,5.9523,5.9687,5.9725,5.9714,5.9758,5.9863,5.9537,5.9339,5.9357,5.8603,5.8153,5.8168,5.6967,5.6069,0.0,0.0,0.0,0.0,0.0,0.0,0.0,0.0,0.0,0.0,0.0,5.5859,5.7617,5.8551,5.9131,5.9127,5.9465,5.9533,5.9142,5.9455,5.965,5.9689,5.9684,6.0028,6.0833,6.093,6.1101,6.1497,6.1523,6.1478,6.1463,6.1345,6.1462,6.184,6.1435,6.136,6.2165,6.1538,6.0923,6.1301,6.0817,6.0377,6.0415,6.0373,6.0308,6.0114,6.0061,5.9991,5.9926,5.9893,5.9836,5.965,5.9607,5.9519,5.9262,5.91,5.8855,5.8519,5.8389,5.826,7.2225,7.2176,7.1454,7.0766,7.0129,6.9244,6.8699,6.8391,6.8391,6.7975,6.7173,6.5718,6.5025,6.4871,6.4146,6.3761,6.3646,6.3646,6.3646,6.3646,6.3646,6.3607,6.3498,6.3498,6.3454,6.3306,6.3338,6.2959,6.2272,6.2272,6.1888,6.1195,6.1156,6.1156,6.1079,5.9694,5.888,5.8649,5.9451,5.9914,5.9974,6.0703,6.1109,6.1113,6.1084,6.1173,6.1263,6.0573,6.0224,6.0264,5.9526,5.9078,5.9042,5.8317,5.7537,0.0,5.6078,0.0,0.0,0.0,0.0,0.0,0.0,0.0,0.0,5.7031,5.7695,5.9219,5.941,5.9444,5.9404,6.0132,6.0276,5.9572,6.0119,6.0588,6.0586,6.0536,6.0834,6.1517,6.1576,6.1584,6.1502,6.1504,6.1469,6.1431,6.1363,6.1295,6.1289,6.1146,6.1074,6.1003,6.0922,6.079,6.0687,6.0504,6.0377,6.0377,6.0415,6.032,6.0121,6.0091,6.0045,5.9934,5.9893,5.9828,5.9642,5.9607,5.9528,5.9272,5.9119,5.8895,5.8625,5.8443,5.8249,7.3038,7.3053,7.3003,7.2923,7.2699,7.186,7.0321,6.8391,6.8391,6.8314,6.8129,6.7885,6.7365,6.671,6.6616,6.6171,6.551,6.551,6.5471,6.5471,6.5471,6.513,6.4519,6.4519,6.4133,6.3477,6.3439,6.3362,6.3252,6.3252,6.3136,6.2982,6.2976,6.2982,6.2982,0.0,0.0,0.0,6.0673,6.0774,6.0867,6.0954,6.1036,6.1113,6.1155,0.0,6.1306,6.1221,6.1158,6.1226,6.0424,0.0,0.0,0.0,0.0,0.0,0.0,0.0,0.0,0.0,0.0,0.0,5.8395,5.8358,5.8711,5.9297,5.9804,6.0155,6.0815,6.1199,6.1193,6.1337,6.1407,6.125,6.1368,6.1442,6.147,6.1427,6.1532,6.1575,6.1603,6.1584,6.15,6.1504,6.1457,6.1394,6.1361,6.1259,6.1208,6.1141,6.1065,6.1003,6.0831,6.068,6.0623,6.0504,6.0377,6.0377,6.0377,6.0313,6.0136,6.0091,6.0038,5.9926,5.9893,5.9836,5.9613,5.9607,5.9545,5.9346,5.912,5.8925,5.8708,5.8497,5.8282,7.3988,7.3957,7.3689,7.357,0.0,7.3117,7.2206,7.0966,7.008,6.947,6.9123,6.8736,6.8286,6.7894,6.7936,6.7716,6.7286,6.7286,6.7055,6.663,6.663,6.6167,6.5396,6.5396,6.5164,6.4745,6.474,6.4514,6.4172,6.4172,6.3941,6.3511,6.3511,6.3511,6.3516,6.3538,6.3113,6.2232,6.2259,6.23,6.2356,6.2385,6.2409,6.2432,6.2504,0.0,0.0,0.0,0.0,0.0,0.0,0.0,0.0,6.0337,0.0,5.9684,5.931,5.9133,5.9113,5.9123,5.9288,5.9763,6.0194,6.0234,5.9844,6.0547,6.1054,6.1053,6.1478,6.1706,6.1698,6.1727,6.1719,6.1718,6.1713,6.1706,6.1699,6.1683,6.1627,6.1606,6.1543,6.1515,6.1512,6.1463,6.1411,6.1355,6.1279,6.1208,6.1159,6.1075,6.1041,6.0965,6.0772,6.0623,6.0604,6.0504,6.0377,6.0415,6.038,6.027,6.0114,6.0061,6.0037,5.9926,5.9893,5.9836,5.9659,5.9607,5.9554,5.9327,5.914,5.8975,5.8872,5.8604,5.8316,7.4959,7.4903,7.4318,7.4068,7.4075,7.3941,7.3832,7.3619,0.0,0.0,0.0,6.9432,6.8969,6.8853,6.8826,6.8755,6.8639,6.8639,6.8253,6.7558,6.7558,6.7205,6.6499,6.635,6.6267,6.6273,6.6118,6.5694,6.5087,6.5049,6.4668,6.4061,6.3984,6.3989,6.4005,6.408,6.408,6.4005,6.375,6.3616,6.3636,6.3748,6.3795,6.3813,6.3859,6.3922,6.3927,6.3972,6.4049,6.4076,6.3426,6.3063,6.2985,6.1777,6.1062,6.1035,6.0417,6.0,6.0021,6.0029,6.0308,6.1053,6.1757,6.1719,6.0742,6.1289,6.1718,6.1716,6.1711,6.1704,6.1697,6.1726,6.1718,6.1715,6.1706,6.1697,6.169,6.1625,6.1599,6.1589,6.1517,6.1515,6.1469,6.1454,6.1355,6.1303,6.1225,6.1146,6.109,6.0997,6.0931,6.0883,6.0691,6.0617,6.0546,6.0459,6.0384,6.0377,6.0344,6.0264,6.0144,6.0068,5.999,5.991,5.9885,5.9795,5.965,5.9589,5.9528,5.9337,5.913,5.8984,5.8972,5.8667,5.8338,7.5918,7.5972,7.587,7.5831,7.5754,7.5047,7.4383,7.3777,7.266,7.2147,7.2005,7.1172,7.0417,6.9722,6.9778,6.9413,6.8789,6.8789,6.8712,6.8596,6.8596,6.8518,6.8364,6.7668,6.7281,6.7242,6.6546,6.6121,6.601,6.601,6.5958,6.5921,6.593,6.5949,6.5991,6.6001,6.6001,6.5953,6.4484,6.3709,6.3748,6.3731,6.3757,6.3871,6.3918,6.3934,6.3998,6.406,6.4101,6.4164,6.4072,6.4008,6.401,6.3754,6.3649,6.3691,6.3596,6.3573,6.3544,6.355,6.3631,6.375,6.3867,6.3242,6.168,6.164,6.1716,6.1711,6.1783,6.1696,6.1723,6.1758,6.1753,6.1744,6.17,6.1688,6.1617,6.1603,6.1586,6.151,6.1497,6.1456,6.1415,6.1381,6.1326,6.1229,6.1155,6.1075,6.0953,6.0905,6.085,6.074,6.0642,6.0565,6.0506,6.0432,6.0422,6.0377,6.0344,6.025,6.0099,6.006,5.9982,5.991,5.9866,5.9774,5.9624,5.9545,5.94,5.9225,5.9007,5.89,5.8753,5.8445,5.8238,7.6596,7.6205,7.6276,7.6307,7.6275,7.596,7.5636,7.5298,7.4359,7.3718,7.3176,7.2429,7.1854,7.1466,7.1022,7.0607,7.0258,7.0258,6.9987,6.9561,6.9561,6.929,6.883,6.8443,6.8249,6.8249,6.7862,6.7673,6.7673,6.7673,6.7682,6.7706,6.7706,6.7715,6.7742,6.7803,6.7829,6.7812,6.6101,6.5187,6.5209,6.5217,6.5254,6.5315,6.5368,6.542,6.5464,6.5506,6.5537,6.5599,6.515,6.4888,6.4888,6.4481,6.4259,6.4259,6.4275,6.4286,6.4292,6.4295,6.4297,6.4297,6.4296,6.3983,6.3202,6.3123,6.3081,6.3111,6.3106,6.3139,6.3088,6.269,6.2409,6.2403,6.1956,6.1658,6.1591,6.1573,6.1549,6.1512,6.1475,6.1434,6.1423,6.1318,6.125,6.1155,6.1065,6.0948,6.0883,6.0798,6.0763,6.0697,6.0597,6.0526,6.048,6.0425,6.0408,6.0359,6.0241,6.0159,6.0083,6.0005,5.9942,5.9893,5.9849,5.9748,5.9624,5.9574,5.926,5.8644,5.8436,5.8198,5.7647,5.718,5.714,7.7447,7.688,7.6984,7.6919,7.6704,7.6635,7.6604,7.6589,7.593,7.528,7.4552,7.3539,7.306,7.303,7.2405,7.1983,7.1837,7.1799,7.1333,7.0562,7.0523,7.0135,6.9519,6.9325,6.9209,6.917,6.9015,6.8898,6.8937,6.8898,6.8942,6.895,6.8963,6.8968,6.8968,6.904,6.9076,6.9022,6.7724,6.7044,6.7033,6.7103,6.7104,6.7152,6.7202,6.7283,6.7275,6.73,6.7319,6.7335,6.673,6.631,6.608,6.5514,6.5096,6.4942,6.4872,6.4878,6.4881,6.4883,6.4883,6.4883,6.4881,6.4879,6.4877,6.4877,6.4678,6.4394,6.4233,6.4228,6.4138,6.3659,6.3258,6.3211,6.2438,6.1937,6.1875,6.1656,6.1507,6.1463,6.145,6.137,6.1326,6.1242,6.1146,6.106,6.0943,6.0871,6.0808,6.0703,6.0648,6.0629,6.0552,6.0518,6.0498,6.0436,6.0366,6.0294,6.0167,6.0053,6.0021,5.995,5.9877,5.9853,5.9778,5.9714,5.9589,5.9313,5.8885,5.8185,5.7781,5.7283,5.6523,5.6003,5.5863,7.8823,7.8829,7.8767,7.8411,7.7715,7.6992,7.6738,7.6807,7.6699,7.6646,7.6428,7.4691,7.3942,7.397,7.3858,7.3419,7.2794,7.2759,7.2327,7.1551,7.1473,7.1434,7.124,7.0545,7.0195,7.0079,6.9418,6.9142,6.9142,6.9107,6.9088,6.9083,6.9158,6.9246,6.9211,6.9214,6.9218,6.9185,6.9023,6.8942,6.8945,6.8949,6.8981,6.9039,6.9045,6.9075,6.896,6.9139,6.9149,6.9153,6.9011,6.8634,6.7941,6.7749,6.7402,6.6745,6.6635,6.6678,6.664,6.668,6.6601,6.6678,6.656,6.6556,6.6505,6.6502,6.5916,6.4779,6.4344,6.4411,6.4201,6.4157,6.4104,6.4033,6.3265,6.2691,6.2546,6.1974,6.1502,6.1394,6.137,6.1376,6.1229,6.1155,6.106,6.0932,6.0888,6.0763,6.0697,6.0604,6.0558,6.0506,6.0518,6.0446,6.0436,6.0359,6.0301,6.0272,6.0122,6.0045,5.9998,5.9934,5.9869,5.9832,5.9685,5.9589,5.9284,5.8884,5.8193,5.7548,5.6986,5.647,5.6006,5.5525,5.5359,7.9595,7.9189,7.9214,7.907,7.872,7.8375,7.8279,7.8311,7.7831,7.7658,7.751,7.6267,7.5452,7.4958,7.4448,7.4032,7.3737,7.3737,7.3538,7.3227,7.3192,7.292,7.2411,7.21,7.1637,7.1127,7.0781,7.0583,7.0587,7.0625,7.0629,7.0647,7.0661,7.072,7.0739,7.0722,7.0739,7.0795,7.0814,7.0783,7.0661,6.9774,6.9278,6.9287,6.9294,6.9309,6.9373,6.9385,6.9396,6.9413,6.938,6.9233,6.8891,6.8857,6.8703,6.8393,6.7928,6.7656,6.7655,6.7186,6.6912,6.6907,6.6865,6.682,6.6812,6.68,6.6479,6.5931,6.5771,6.5762,6.5665,6.5264,6.4932,6.4822,6.4091,6.3356,6.2801,6.2455,6.2023,6.1465,6.1279,6.1217,6.1146,6.1051,6.0943,6.0877,6.0769,6.0697,6.0591,6.052,6.0511,6.0464,6.0422,6.0373,6.0344,6.0316,6.025,6.0129,6.006,6.0005,5.9942,5.9869,5.9832,5.982,5.9662,5.931,5.8739,5.837,5.7782,5.6837,5.546,5.4679,5.4509,5.4153,5.388,8.0562,7.9993,7.9756,7.9742,7.9746,7.9552,7.9442,7.9416,7.8815,7.8594,7.8516,7.7913,7.7314,7.6612,7.5547,7.4921,7.4736,7.4697,7.458,7.4382,7.4347,7.3993,7.3448,7.3409,7.31,7.2555,7.2477,7.2477,7.2474,7.2477,7.2357,7.2166,7.2088,7.2022,7.185,7.1833,7.185,7.1867,7.1885,7.1895,7.1741,7.0669,7.0006,6.999,7.0033,7.0043,7.0103,7.0103,7.0116,7.0135,7.0098,7.0023,6.9757,6.9761,6.9647,6.9374,6.8867,6.8515,6.8511,6.7925,6.7571,6.7565,6.7361,6.7157,6.7112,6.6937,6.6801,6.6711,6.675,6.6701,6.6689,6.6204,6.583,6.5678,6.4938,6.4111,6.3521,6.3203,6.2645,6.1775,6.1612,6.1326,6.1084,6.0943,6.0866,6.0769,6.0691,6.061,6.0506,6.0504,6.0464,6.0394,6.033,6.0301,6.0286,6.0235,6.0129,6.006,5.9998,5.9942,5.9877,5.9824,5.9731,5.9688,5.9574,5.9305,5.8847,5.8315,5.7024,5.5426,5.4201,5.3612,5.3652,5.3114,5.2897,8.1902,8.1715,8.0982,8.0689,8.0667,7.9962,7.9666,7.9759,7.9574,7.9537,7.9535,7.942,7.942,7.9142,7.756,7.6469,7.5827,7.5746,7.5315,7.4689,7.4611,7.4498,7.4464,7.4422,7.4381,7.4138,7.4097,7.4179,7.4221,7.4301,7.3957,7.3172,7.3129,7.2704,7.216,7.2082,7.1928,7.2094,7.2094,7.1983,7.2003,7.1938,7.1858,7.1811,7.173,7.1668,7.1767,7.1848,7.1853,7.1862,7.1745,7.1476,7.0778,7.0622,7.0312,6.9608,6.9412,6.9331,6.9365,6.9207,6.9165,6.9118,6.8441,6.8039,6.7985,6.7419,6.7001,6.6761,6.68,6.6795,6.6709,6.6551,6.653,6.6396,6.5708,6.516,6.499,6.4174,6.3391,6.2587,6.2235,6.1847,6.1098,6.0827,6.0763,6.0685,6.0585,6.0531,6.0473,6.0425,6.0394,6.033,6.0286,6.0317,6.0272,6.0152,6.006,5.999,5.9934,5.9907,5.9841,5.9765,5.9671,5.9592,5.9492,5.9307,5.8971,5.7866,5.6155,5.4764,5.4022,5.3481,5.3359,5.3045,5.2828,8.2113,8.2092,8.1795,8.1694,8.1673,8.1361,8.1248,8.1221,8.0651,8.0421,8.0347,7.9888,7.9667,7.9637,7.9045,7.8246,7.7398,7.685,7.6382,7.6108,7.6106,7.5835,7.5367,7.5328,7.5016,7.4546,7.4507,7.4507,7.4507,7.4507,7.4351,7.4117,7.4039,7.3858,7.3605,7.3571,7.3581,7.3598,7.3639,7.3642,7.3566,7.365,7.365,7.3568,7.2552,7.1969,7.1976,7.1976,7.198,7.1987,7.1987,7.1873,7.1562,7.1522,7.1402,7.1047,7.0539,7.0224,7.0178,6.97,6.9417,6.9365,6.9075,6.8868,6.8816,6.8555,6.8171,6.7681,6.7489,6.7262,6.6724,6.6591,6.663,6.6486,6.6213,6.574,6.5217,6.4751,6.4174,6.3352,6.2697,6.2029,6.1689,6.1118,6.0724,6.0578,6.0551,6.0504,6.0457,6.0349,6.0323,6.0279,6.0167,6.0099,6.0099,6.0068,5.9998,5.9926,5.9869,5.9849,5.9782,5.9671,5.9565,5.9492,5.9438,5.9037,5.8597,5.7351,5.5612,5.4443,5.3699,5.3558,5.3256,5.298,5.2806,8.2143,8.2203,8.2173,8.2218,8.2224,8.2232,8.2236,8.2159,8.1625,8.1356,8.1242,8.0782,8.0557,8.0485,8.0251,7.981,7.9117,7.8297,7.7868,7.7866,7.7866,7.7438,7.6736,7.6658,7.6189,7.5485,7.5327,7.5327,7.5327,7.5329,7.521,7.4978,7.4976,7.4792,7.4574,7.4538,7.4547,7.4596,7.4598,7.4558,7.4598,7.4601,7.4602,7.4446,7.3433,7.2691,7.2453,7.218,7.1988,7.1991,7.1992,7.1992,7.1988,7.1984,7.1979,7.1938,7.1426,7.1108,7.102,7.0536,7.0208,7.0194,6.9859,6.9686,6.9681,6.9442,6.8975,6.8478,6.8287,6.7875,6.7118,6.6897,6.6784,6.6547,6.6445,6.617,6.5561,6.5349,6.4892,6.4072,6.3108,6.2557,6.2311,6.1838,6.139,6.0946,6.0887,6.0763,6.0425,6.033,6.0257,6.0212,6.0091,6.0021,5.9998,5.9974,5.9958,5.9902,5.9849,5.9791,5.9705,5.9583,5.9456,5.942,5.9187,5.87,5.7893,5.6722,5.5579,5.438,5.3961,5.3891,5.3455,5.2959,5.2772,8.221,8.2193,8.2168,8.2223,8.2273,8.2283,8.2291,8.2289,8.225,8.2171,8.2092,8.2135,8.2018,8.2019,8.1316,8.0963,8.0728,8.0026,7.9595,7.9438,7.9478,7.9048,7.8305,7.8265,7.7914,7.7133,7.7136,7.7096,7.7093,7.7093,7.6742,7.608,7.6,7.5687,7.4715,7.4871,7.4754,7.4834,7.4874,7.4796,7.4638,7.4801,7.4842,7.4764,7.4609,7.414,7.3397,7.2576,7.2226,7.2186,7.2185,7.2065,7.2098,7.2016,7.1976,7.2003,7.1955,7.1943,7.1849,7.1749,7.1618,7.1532,7.099,7.0489,7.04,6.9886,6.9353,6.9104,6.8995,6.8605,6.7824,6.7628,6.7275,6.6557,6.6307,6.6167,6.6093,6.6041,6.5676,6.4769,6.3852,6.3271,6.3149,6.2885,6.2414,6.1875,6.1628,6.1342,6.0666,6.0508,6.0281,6.0076,6.0013,5.9974,5.9934,5.9893,5.9893,5.9915,5.9824,5.974,5.9645,5.9501,5.9401,5.9346,5.9206,5.8754,5.8012,5.6913,5.626,5.5299,5.4859,5.4175,5.3631,5.3142,5.2756,8.2274,8.2279,8.2282,8.2285,8.2328,8.2291,8.2293,8.2293,8.2293,8.2293,8.2293,8.2293,8.2295,8.226,8.1987,8.191,8.1874,8.1561,8.0856,7.9912,7.9755,7.9599,7.9364,7.9286,7.9169,7.8935,7.8896,7.8896,7.8856,7.8856,7.8465,7.7801,7.7607,7.7179,7.6441,7.6401,7.6402,7.6366,7.6406,7.6406,7.6367,7.6326,7.6325,7.6285,7.5814,7.5345,7.5074,7.4254,7.3823,7.3742,7.3781,7.3502,7.2861,7.2265,7.194,7.1924,7.1916,7.195,7.1899,7.1867,7.1843,7.1794,7.1516,7.1352,7.1326,7.1011,7.0483,7.0037,6.9852,6.9444,6.8617,6.8344,6.7797,6.6429,6.6175,6.6146,6.6058,6.5922,6.5743,6.5442,6.4628,6.4094,6.3848,6.3511,6.2985,6.2615,6.2442,6.2078,6.1354,6.1073,6.0654,6.0173,6.005,5.9964,5.9885,5.9874,5.9841,5.9816,5.974,5.9679,5.9554,5.9438,5.9346,5.9215,5.9081,5.8729,5.7948,5.736,5.6751,5.5929,5.517,5.4499,5.3803,5.3333,5.2979,8.28,8.2761,8.2413,8.2297,8.2297,8.2299,8.23,8.23,8.23,8.23,8.2339,8.2652,8.277,8.2772,8.2772,8.2773,8.2773,8.2461,8.1718,8.0778,8.066,8.0504,8.0152,7.98,7.9722,7.9722,7.9722,7.9722,7.9722,7.9683,7.941,7.8943,7.8865,7.8632,7.8164,7.8125,7.8007,7.7732,7.7613,7.7494,7.722,7.7139,7.7098,7.7019,7.6584,7.6384,7.6306,7.5791,7.5204,7.4702,7.4541,7.4253,7.3686,7.3169,7.2723,7.239,7.234,7.2213,7.1928,7.1769,7.1776,7.1758,7.1711,7.1618,7.1618,7.1577,7.1253,7.0796,7.0603,7.0194,6.9353,6.9109,6.8447,6.7211,6.6747,6.6381,6.6067,6.5833,6.5756,6.5575,6.5155,6.4862,6.459,6.4348,6.37,6.3466,6.3261,6.2887,6.2201,6.1833,6.1245,6.0741,6.0503,6.0302,5.9912,5.9816,5.9757,5.9697,5.9598,5.9592,5.953,5.9365,5.9244,5.909,5.898,5.8832,5.8161,5.7942,5.7486,5.6524,5.5673,5.5206,5.4675,5.3747,5.326,8.3661,8.3545,8.2808,8.2576,8.2576,8.2578,8.2656,8.2539,8.2578,8.2617,8.2734,8.3398,8.3672,8.3672,8.3672,8.3671,8.3554,8.3008,8.2695,8.25,8.2383,8.2031,8.1094,8.0429,8.0195,8.0078,8.0039,8.0,8.0156,8.0117,7.9804,7.9802,7.9763,7.9682,7.9484,7.9637,7.917,7.8545,7.8464,7.8111,7.7486,7.7367,7.7366,7.7364,7.7268,7.7176,7.7134,7.6874,7.6166,7.4903,7.4767,7.4667,7.4583,7.4542,7.39,7.3207,7.315,7.2774,7.216,7.2163,7.2005,7.1894,7.1855,7.1573,7.152,7.147,7.1368,7.1192,7.117,7.0888,7.0121,6.9893,6.9393,6.8636,6.7596,6.6775,6.6005,6.5864,6.5701,6.5639,6.5537,6.5448,6.5357,6.5222,6.4803,6.4367,6.4054,6.3586,6.2935,6.2482,6.2099,6.1641,6.1098,6.0678,6.0287,5.9723,5.97,5.9618,5.9501,5.9447,5.9421,5.9244,5.9129,5.901,5.8859,5.8708,5.8519,5.8243,5.7917,5.721,5.6565,5.6177,5.542,5.4467,5.3735,8.4569,8.453,8.4296,8.4218,8.4217,8.4214,8.4211,8.4211,8.4173,8.4095,8.4251,8.4446,8.4563,8.4563,8.4563,8.4563,8.4485,8.4251,8.4211,8.4211,8.4211,8.3313,8.222,8.1751,8.1634,8.1635,8.1635,8.1634,8.1634,8.1556,8.1282,8.0694,8.0693,8.0341,7.9831,7.979,7.9597,7.9399,7.9345,7.926,7.9023,7.8884,7.8948,7.8909,7.8314,7.8035,7.7914,7.7326,7.6856,7.639,7.5705,7.5364,7.5307,7.482,7.4365,7.4064,7.397,7.3869,7.3596,7.348,7.3203,7.2578,7.2447,7.2076,7.141,7.1389,7.128,7.119,7.1154,7.1047,7.0767,7.0619,7.0115,6.9212,6.8042,6.7043,6.6577,6.6009,6.5583,6.5523,6.5457,6.542,6.539,6.5337,6.5199,6.4923,6.469,6.4448,6.3689,6.3327,6.3027,6.2151,6.1578,6.1119,6.0597,5.9955,5.9612,5.9538,5.942,5.9318,5.9225,5.9128,5.902,5.8899,5.8719,5.8556,5.846,5.8304,5.794,5.7588,5.7015,5.6403,5.5909,5.516,5.4532,8.5388,8.5349,8.5033,8.4914,8.4914,8.491,8.4909,8.4909,8.4909,8.4909,8.4987,8.5299,8.5377,8.5416,8.5416,8.5416,8.5377,8.5065,8.487,8.4868,8.4821,8.4237,8.354,8.3386,8.3386,8.3386,8.3386,8.3386,8.3308,8.3034,8.2522,8.2086,8.1694,8.122,8.0893,8.0739,8.0544,8.0265,8.021,8.0045,7.9691,7.9622,7.9566,7.9515,7.9034,7.8821,7.8645,7.7936,7.7319,7.6933,7.6496,7.6196,7.6141,7.5715,7.5171,7.4826,7.4767,7.4575,7.4188,7.4114,7.3835,7.3345,7.3178,7.2877,7.2484,7.2295,7.2209,7.1737,7.1576,7.1332,7.1002,7.085,7.052,6.9888,6.8745,6.7678,6.6976,6.6365,6.5862,6.5596,6.5413,6.536,6.536,6.529,6.5226,6.5139,6.4989,6.4723,6.436,6.4194,6.3839,6.2971,6.2351,6.1995,6.134,6.0667,6.0125,5.9966,5.944,5.9317,5.9202,5.9054,5.8879,5.8739,5.8604,5.8476,5.8367,5.8246,5.8026,5.7622,5.7119,5.6782,5.6357,5.581,5.5213,8.6237,8.6159,8.5455,8.5141,8.5259,8.5178,8.533,8.5215,8.5328,8.529,8.5447,8.5958,8.6229,8.6234,8.6266,8.623,8.6191,8.5677,8.5366,8.532,8.5309,8.5148,8.5127,8.4659,8.4581,8.4622,8.4862,8.4743,8.4465,8.396,8.3717,8.3426,8.2833,8.2544,8.2409,8.2355,8.1877,8.1334,8.1088,8.0729,8.0256,8.0154,8.0174,8.009,7.9773,7.9449,7.9178,7.8594,7.7941,7.7184,7.7007,7.6762,7.679,7.6754,7.6367,7.5702,7.5502,7.5183,7.4513,7.4493,7.4214,7.4005,7.3905,7.3814,7.3523,7.3369,7.3093,7.2435,7.2342,7.1881,7.1202,7.0898,7.0747,7.0394,6.9735,6.8694,6.7508,6.6972,6.6559,6.5681,6.5482,6.545,6.5296,6.521,6.5128,6.5103,6.4989,6.4862,6.4696,6.4568,6.4249,6.3759,6.331,6.2973,6.2193,6.1366,6.0933,6.0517,5.9771,5.941,5.9288,5.9092,5.8793,5.8593,5.8476,5.8345,5.8201,5.8077,5.7939,5.769,5.7255,5.7169,5.7043,5.6371,5.5734,8.7136,8.7096,8.6931,8.6888,8.6885,8.6863,8.6851,8.6811,8.6755,8.6685,8.6849,8.7047,8.7095,8.7103,8.7015,8.7124,8.7047,8.6763,8.6786,8.6784,8.6779,8.6775,8.6435,8.5576,8.4915,8.4917,8.4876,8.4876,8.4798,8.4763,8.4518,8.4471,8.4191,8.4227,8.4057,8.3407,8.3095,8.2775,8.2191,8.1776,8.1611,8.1506,8.1445,8.1356,8.073,7.9964,7.9392,7.9092,7.8845,7.837,7.7496,7.6884,7.6772,7.6735,7.6546,7.6322,7.6204,7.6106,7.5902,7.5662,7.5443,7.4757,7.4655,7.4353,7.3658,7.3622,7.3451,7.3104,7.2984,7.2571,7.1774,7.1589,7.1228,7.0705,7.0329,6.9793,6.8838,6.8081,6.7278,6.6566,6.6213,6.599,6.5354,6.5234,6.5129,6.5019,6.4967,6.4915,6.4871,6.4817,6.4527,6.4132,6.3794,6.3399,6.2936,6.2097,6.1424,6.1005,6.0245,5.9795,5.9663,5.9133,5.881,5.8565,5.8367,5.8223,5.8065,5.7916,5.7775,5.7547,5.7363,5.7213,5.6976,5.6554,5.6289,8.7333,8.7333,8.7362,8.7356,8.7352,8.7334,8.7362,8.7358,8.7307,8.7309,8.7358,8.7362,8.7369,8.7336,8.7367,8.7362,8.7358,8.7309,8.7294,8.7245,8.7231,8.7214,8.7118,8.6452,8.5912,8.5921,8.6015,8.5968,8.588,8.556,8.5357,8.525,8.4977,8.4572,8.4682,8.4156,8.3951,8.3828,8.3488,8.3182,8.3194,8.3157,8.2828,8.2373,8.1602,8.082,8.0464,7.9891,7.9698,7.9315,7.8369,7.7429,7.7178,7.7107,7.6909,7.6521,7.6392,7.635,7.6262,7.6237,7.5993,7.5496,7.5424,7.5163,7.4752,7.4564,7.4236,7.3983,7.3729,7.3373,7.2489,7.2366,7.1912,7.1268,7.0989,7.062,6.9827,6.8949,6.8093,6.7341,6.7008,6.6531,6.6045,6.5673,6.5203,6.5169,6.4917,6.4864,6.479,6.4698,6.4615,6.4313,6.4049,6.3764,6.3486,6.281,6.1908,6.14,6.0827,6.0545,6.0416,5.9656,5.8847,5.8585,5.8334,5.8088,5.7927,5.7775,5.7595,5.7449,5.7276,5.71,5.6871,5.6593,5.6447,8.7416,8.7294,8.7294,8.7292,8.7289,8.7284,8.7278,8.7278,8.7278,8.7264,8.7242,8.7281,8.7278,8.7286,8.7281,8.7278,8.7273,8.7267,8.7244,8.7225,8.7205,8.7181,8.7074,8.6946,8.6887,8.7225,8.7067,8.7055,8.6884,8.6572,8.6147,8.5984,8.542,8.5257,8.5027,8.4725,8.4682,8.4639,8.4311,8.4172,8.4218,8.4175,8.3799,8.317,8.2605,8.1995,8.16,8.1064,8.0544,8.0344,7.9539,7.8806,7.823,7.7835,7.7587,7.6752,7.6817,7.6739,7.6571,7.6422,7.6297,7.6132,7.5952,7.5879,7.5726,7.551,7.5186,7.4886,7.4522,7.418,7.3331,7.3187,7.275,7.2066,7.174,7.1239,7.0565,6.968,6.8816,6.8113,6.7799,6.7388,6.6833,6.6353,6.5778,6.527,6.5055,6.4811,6.4737,6.4643,6.4558,6.4424,6.4168,6.3934,6.3668,6.343,6.2561,6.2022,6.1456,6.1219,6.1029,6.0243,5.9405,5.8635,5.8286,5.8037,5.7786,5.7595,5.7449,5.7338,5.7163,5.6946,5.6812,5.6667,5.6546,8.7952,8.7306,8.7306,8.7253,8.7225,8.7153,8.7142,8.7135,8.7156,8.7152,8.7142,8.7139,8.7163,8.7212,8.7153,8.7128,8.716,8.7156,8.7141,8.7129,8.7109,8.7093,8.7076,8.7064,8.7076,8.7085,8.7113,8.7125,8.7125,8.6966,8.6755,8.6778,8.6588,8.6406,8.6141,8.5865,8.5437,8.5359,8.4896,8.4554,8.4527,8.4377,8.4249,8.3824,8.3502,8.307,8.2598,8.228,8.1866,8.1203,8.0958,8.039,7.958,7.8906,7.8488,7.8121,7.7982,7.7663,7.727,7.7061,7.6616,7.611,7.6018,7.5863,7.5816,7.5712,7.5586,7.5408,7.5204,7.4915,7.4125,7.3993,7.3539,7.2799,7.2107,7.1568,7.1125,7.0378,6.9534,6.8803,6.853,6.8267,6.7643,6.7096,6.6624,6.6153,6.5813,6.5304,6.4917,6.4737,6.4537,6.4402,6.4199,6.4004,6.3803,6.3635,6.3193,6.2821,6.2299,6.184,6.1513,6.0783,6.0014,5.9369,5.8565,5.797,5.7717,5.7546,5.7301,5.7163,5.6972,5.6812,5.6693,5.6586,5.6492,8.8244,8.784,8.7373,8.7171,8.7148,8.7129,8.7117,8.7117,8.7101,8.7101,8.7113,8.7082,8.7129,8.7141,8.7133,8.7109,8.7089,8.7064,8.7042,8.7024,8.6996,8.6962,8.6948,8.6943,8.6923,8.6907,8.6928,8.6958,8.7016,8.6977,8.6972,8.6933,8.6907,8.6897,8.6848,8.6417,8.6223,8.6051,8.57,8.542,8.5339,8.5017,8.4655,8.4505,8.413,8.367,8.3389,8.3169,8.2738,8.2075,8.1846,8.1285,8.0623,8.0046,7.9475,7.8835,7.8591,7.8385,7.7985,7.7807,7.756,7.7275,7.6972,7.67,7.6407,7.6242,7.6037,7.5676,7.5514,7.5292,7.4781,7.4772,7.4308,7.3579,7.2915,7.2298,7.1549,7.0896,7.0222,6.9559,6.935,6.8981,6.828,6.7808,6.7449,6.7033,6.6607,6.5983,6.5283,6.5083,6.4908,6.4363,6.4175,6.3883,6.3714,6.3568,6.3454,6.319,6.29,6.2437,6.2022,6.1374,6.0847,6.0344,5.9394,5.8397,5.7897,5.7773,5.7404,5.7033,5.6865,5.6707,5.6613,5.6519,5.6437,8.8684,8.8286,8.7591,8.7197,8.7037,8.7033,8.7033,8.7033,8.7028,8.7024,8.7033,8.7028,8.7024,8.7033,8.7028,8.7028,8.7028,8.6982,8.6943,8.6912,8.6876,8.6854,8.682,8.6797,8.6803,8.6785,8.6741,8.6809,8.6882,8.6893,8.6854,8.6832,8.6803,8.6767,8.6729,8.6609,8.6737,8.6674,8.6642,8.6616,8.6356,8.5832,8.5327,8.532,8.4618,8.4271,8.4034,8.395,8.3487,8.2879,8.2485,8.2191,8.1533,8.1209,8.0512,7.9438,7.9044,7.8828,7.8604,7.8547,7.8382,7.799,7.8067,7.7687,7.7326,7.6976,7.6732,7.6112,7.578,7.5753,7.5567,7.5378,7.4894,7.4315,7.3821,7.3336,7.232,7.1551,7.1029,7.0517,7.0261,6.9702,6.8991,6.8669,6.8347,6.773,6.7301,6.6779,6.6154,6.5827,6.5489,6.4609,6.4123,6.3784,6.3568,6.3382,6.3265,6.3134,6.2929,6.2598,6.2327,6.1994,6.1536,6.1041,6.0186,5.9263,5.8665,5.8019,5.766,5.7323,5.6913,5.6635,5.6519,5.6465,5.641,8.9569,8.8129,8.8051,8.7553,8.6938,8.6904,8.6854,8.686,8.6866,8.6849,8.6838,8.686,8.6866,8.6871,8.6832,8.6821,8.6821,8.6821,8.6888,8.6942,8.6919,8.6979,8.6902,8.6803,8.6977,8.6991,8.6862,8.6706,8.6916,8.694,8.6797,8.6761,8.6675,8.6629,8.6623,8.6556,8.6443,8.6443,8.6443,8.6428,8.6368,8.6261,8.61,8.5984,8.5807,8.539,8.4834,8.4717,8.4261,8.3418,8.3286,8.3159,8.2936,8.2258,8.1913,8.1423,8.0924,8.0187,7.9519,7.9305,7.9024,7.8623,7.8285,7.8011,7.7888,7.7726,7.7584,7.7746,7.6995,7.6502,7.6265,7.5684,7.5219,7.4733,7.4285,7.3885,7.3153,7.2432,7.1862,7.1283,7.096,7.0343,6.9689,6.949,6.9234,6.8566,6.7954,6.743,6.6896,6.648,6.6042,6.5157,6.4331,6.3951,6.3544,6.3379,6.3124,6.3051,6.2842,6.2667,6.2406,6.218,6.2172,6.159,6.0795,6.0168,5.9641,5.8956,5.8187,5.7671,5.7307,5.6877,5.6473,5.6396,5.6432,9.0572,8.9487,8.8976,8.8306,8.7584,8.7545,8.7229,8.6842,8.6803,8.6803,8.6803,8.6803,8.6803,8.6791,8.6803,8.6803,8.6797,8.6839,8.6996,8.7339,8.7397,8.759,8.7968,8.8,8.7951,8.7828,8.7915,8.8038,8.7768,8.7047,8.6576,8.6653,8.656,8.6479,8.6679,8.646,8.6391,8.6376,8.6346,8.6254,8.6261,8.6238,8.6183,8.6151,8.611,8.5829,8.5595,8.5411,8.5001,8.4258,8.4066,8.3754,8.3346,8.2889,8.265,8.2509,8.228,8.1456,8.0381,8.0128,7.9786,7.9615,7.9349,7.9254,7.8816,7.8273,7.7931,7.7854,7.7494,7.7237,7.6998,7.6321,7.59,7.5423,7.4824,7.4235,7.3805,7.3416,7.279,7.22,7.161,7.1048,7.0438,6.9961,6.9601,6.8991,6.8505,6.8098,6.7353,6.6671,6.6217,6.5712,6.4905,6.4209,6.3785,6.3444,6.3027,6.289,6.2715,6.2511,6.237,6.2215,6.2158,6.2087,6.1494,6.0973,6.0525,5.9722,5.8776,5.8222,5.7763,5.7394,5.7003,5.6504,5.649,9.1248,9.074,8.9882,8.9036,8.83,8.83,8.7791,8.7055,8.7003,8.6894,8.6745,8.6694,8.67,8.6784,8.6881,8.7062,8.7042,8.7159,8.7538,8.7933,8.8123,8.8381,8.8597,8.8791,8.8776,8.8892,8.8637,8.8668,8.8336,8.7804,8.7171,8.7032,8.731,8.7171,8.7079,8.7133,8.7187,8.7187,8.7062,8.6844,8.6508,8.6445,8.6274,8.6086,8.5966,8.597,8.5914,8.5831,8.5355,8.5051,8.485,8.4545,8.404,8.3677,8.3467,8.3267,8.3028,8.2397,8.1545,8.1097,8.0859,8.0764,8.0516,8.0001,7.961,7.8771,7.8399,7.859,7.815,7.7984,7.7696,7.7096,7.6465,7.5997,7.5511,7.4781,7.4154,7.3944,7.3525,7.2906,7.2322,7.182,7.1207,7.0471,6.9891,6.938,6.8999,6.8657,6.7912,6.7078,6.6619,6.6219,6.5445,6.4746,6.4389,6.3858,6.3328,6.2894,6.2751,6.2513,6.2434,6.2231,6.2114,6.1978,6.1926,6.1612,6.1082,6.0192,5.9376,5.8972,5.8559,5.8138,5.7667,5.7096,5.6597,9.1377,9.1277,9.0466,8.9671,8.8868,8.8845,8.8351,8.7616,8.7555,8.7215,8.6728,8.6544,8.6689,8.6752,8.7314,8.7577,8.7586,8.8382,8.866,8.8729,8.8861,8.8961,8.9169,8.9192,8.9069,8.9013,8.9151,8.9079,8.8837,8.8931,8.865,8.8707,8.8335,8.8504,8.8441,8.8131,8.8136,8.8128,8.8102,8.7782,8.7337,8.7072,8.6776,8.6129,8.591,8.5825,8.5825,8.5788,8.5713,8.5456,8.5446,8.538,8.492,8.448,8.4232,8.4107,8.3677,8.3238,8.2818,8.213,8.1729,8.1471,8.1013,8.0535,8.0287,8.0161,7.9987,7.97,7.9039,7.8749,7.8432,7.7897,7.7124,7.6686,7.6287,7.5622,7.5071,7.4754,7.4296,7.3601,7.3042,7.2601,7.2045,7.1343,7.0334,6.9787,6.9009,6.8625,6.8327,6.7626,6.7221,6.6729,6.6013,6.5457,6.5193,6.4658,6.4011,6.3636,6.3407,6.2989,6.2608,6.2418,6.2336,6.2118,6.2029,6.1822,6.1551,6.069,6.001,5.9702,5.9295,5.8759,5.8345,5.781,5.7239,9.1358,9.1311,9.0953,9.0378,8.9702,8.9702,8.92,8.8506,8.839,8.8236,8.7881,8.7927,8.7927,8.8035,8.8151,8.8383,8.8421,8.8691,8.9162,8.9477,8.9577,8.9861,9.0067,9.0243,9.0325,9.0223,9.0223,9.0253,9.0295,9.0047,9.0227,9.0086,8.9346,8.8807,8.8696,8.879,8.8708,8.8652,8.857,8.8285,8.8113,8.7942,8.777,8.7464,8.6614,8.6528,8.6403,8.5887,8.5686,8.5628,8.5657,8.5627,8.5559,8.5167,8.5015,8.4976,8.4518,8.4403,8.4126,8.3324,8.2588,8.232,8.1708,8.1087,8.0989,8.0497,8.0141,7.991,7.9782,7.9491,7.9307,7.8679,7.8002,7.7623,7.7072,7.6445,7.59,7.5534,7.4984,7.4266,7.3866,7.347,7.2883,7.2257,7.1185,7.014,6.9346,6.8613,6.8395,6.8049,6.7616,6.7255,6.6535,6.6109,6.5817,6.5277,6.4699,6.4385,6.4106,6.3679,6.3289,6.2957,6.2838,6.2546,6.2189,6.1939,6.1566,6.1084,6.0682,6.0394,5.9901,5.9295,5.8902,5.851,5.8046,9.1266,9.1258,9.1236,9.0933,9.0548,9.051,9.0009,8.9315,8.9191,8.9006,8.886,8.8814,8.8822,8.8891,8.9114,8.9191,8.926,8.956,8.9921,9.0205,9.0441,9.0723,9.1035,9.1133,9.0958,9.1201,9.1201,9.1086,9.0965,9.1089,9.0947,9.0592,9.0054,8.9592,8.9456,8.927,8.9177,8.9197,8.916,8.8893,8.8807,8.8721,8.8424,8.8251,8.7523,8.7312,8.7139,8.6794,8.6535,8.6362,8.6209,8.597,8.5807,8.5692,8.555,8.5511,8.5501,8.5491,8.509,8.4306,8.3197,8.2726,8.2274,8.1842,8.159,8.1077,8.0937,8.0433,8.0293,8.0174,8.0011,7.9291,7.8723,7.8268,7.789,7.7328,7.6647,7.6166,7.5554,7.4926,7.4613,7.4223,7.3382,7.2654,7.1651,7.057,6.9692,6.9026,6.8665,6.8303,6.783,6.7503,6.71,6.6755,6.6432,6.6038,6.5621,6.5073,6.4771,6.4525,6.417,6.383,6.3521,6.3321,6.2875,6.2198,6.1838,6.1634,6.1346,6.1058,6.0522,5.9972,5.9509,5.9116,5.8866,9.121,9.1171,9.121,9.1171,9.1082,9.1142,9.0642,8.9966,8.9889,8.9543,8.906,8.8936,8.8936,8.909,8.9714,8.9915,9.006,9.0591,9.0958,9.0967,9.0928,9.1133,9.1163,9.1201,9.1175,9.1201,9.1166,9.1112,9.1028,9.1028,9.0981,9.0925,9.0618,9.056,9.0856,9.0848,9.08,9.08,9.0666,9.01,8.9629,8.9456,8.911,8.8677,8.8237,8.8074,8.7987,8.7709,8.7498,8.746,8.7001,8.68,8.6724,8.6151,8.5883,8.5797,8.5682,8.5528,8.5332,8.451,8.3791,8.3174,8.2845,8.2553,8.2489,8.2222,8.1826,8.1192,8.1084,8.0694,8.0277,7.986,7.9443,7.8945,7.8566,7.811,7.7428,7.6934,7.6406,7.5692,7.5302,7.4846,7.3913,7.2982,7.2012,7.1031,7.0102,6.9492,6.916,6.8596,6.8135,6.777,6.7474,6.7067,6.679,6.6872,6.654,6.5953,6.5533,6.5337,6.5011,6.4613,6.4346,6.4145,6.3603,6.2938,6.2648,6.2355,6.201,6.1628,6.12,6.0701,6.0201,5.983,5.9651,9.1201,9.1201,9.1201,9.1201,9.1201,9.1201,9.1018,9.0787,9.074,9.0594,9.0402,9.0364,9.0364,9.0479,9.0517,9.0701,9.0816,9.0893,9.1201,9.1201,9.1192,9.1201,9.1183,9.11,9.1073,9.1055,9.1018,9.102,9.0925,9.0925,9.0954,9.0906,9.0799,9.0828,9.0867,9.0828,9.0769,9.0749,9.0661,9.0523,9.0273,9.0186,9.0023,8.9638,8.9141,8.8912,8.8874,8.8568,8.8339,8.8301,8.7804,8.7689,8.7651,8.7116,8.7075,8.6882,8.666,8.5842,8.5382,8.4774,8.4611,8.4111,8.3661,8.3329,8.3236,8.2671,8.2259,8.2069,8.1955,8.1501,8.0932,8.0731,8.0331,7.9647,7.9142,7.8663,7.8168,7.7823,7.7368,7.6539,7.5944,7.5334,7.451,7.3586,7.2622,7.1857,7.0988,7.032,6.9888,6.9096,6.8481,6.8128,6.7769,6.7322,6.7033,6.6961,6.6903,6.6431,6.6315,6.6351,6.5953,6.5446,6.5135,6.4865,6.4315,6.3714,6.334,6.2974,6.2587,6.2215,6.1807,6.1272,6.0736,6.0594,6.0629,9.1112,9.1103,9.1103,9.1103,9.1121,9.1175,9.1201,9.1201,9.1201,9.1201,9.1163,9.1163,9.1124,9.1124,9.1201,9.1136,9.1166,9.1118,9.1112,9.1112,9.1103,9.1084,9.1028,9.1009,9.0981,9.0953,9.0915,9.0906,9.0819,9.0809,9.0827,9.0778,9.0727,9.0737,9.0758,9.0727,9.0697,9.0676,9.0635,9.0614,9.0527,9.0555,9.0555,9.0353,9.0048,8.9742,8.9638,8.9332,8.895,8.8874,8.8683,8.8568,8.8492,8.8221,8.8065,8.7697,8.7302,8.6426,8.5784,8.5455,8.5227,8.4825,8.4408,8.4184,8.4014,8.3699,8.3206,8.2979,8.2865,8.2323,8.1755,8.1592,8.1086,8.039,7.9871,7.9427,7.8843,7.8497,7.8052,7.723,7.6567,7.5913,7.5118,7.4236,7.3278,7.2609,7.194,7.1287,7.062,6.9741,6.8958,6.853,6.8101,6.7644,6.7201,6.6859,6.6815,6.6822,6.6822,6.6822,6.6677,6.612,6.5886,6.565,6.5235,6.474,6.4015,6.3555,6.3163,6.2842,6.2485,6.1914,6.1272,6.12,6.1307,9.0915,9.0906,9.0906,9.0915,9.0944,9.1103,9.1183,9.1192,9.1183,9.1183,9.1192,9.1175,9.1118,9.1145,9.1183,9.1091,9.1028,9.1018,9.0972,9.0963,9.0963,9.0944,9.0935,9.0915,9.0867,9.0867,9.0867,9.0759,9.0709,9.0939,9.0888,9.0941,9.116,9.117,9.1132,9.1121,9.0958,9.0756,9.0604,9.0621,9.0621,9.0621,9.0621,9.0506,9.043,9.0353,9.0326,9.0249,9.0287,9.0124,8.978,8.9475,8.9061,8.8453,8.8144,8.7868,8.7702,8.7118,8.6491,8.621,8.5758,8.5341,8.5064,8.4939,8.4749,8.4484,8.4143,8.379,8.3639,8.307,8.2577,8.221,8.1853,8.1257,8.0724,8.0138,7.9477,7.8978,7.8529,7.7939,7.7321,7.6598,7.568,7.4778,7.3995,7.3529,7.287,7.2138,7.1414,7.0419,6.9646,6.8976,6.8487,6.7963,6.7548,6.7308,6.7148,6.7257,6.6895,6.6822,6.6735,6.672,6.6385,6.6157,6.6201,6.5766,6.4878,6.4234,6.377,6.3448,6.327,6.2735,6.2164,6.1771,6.1736,9.0906,9.0906,9.0906,9.0906,9.0915,9.0973,9.1001,9.1001,9.0992,9.1001,9.1001,9.1001,9.102,9.1001,9.0992,9.0982,9.1002,9.0915,9.0944,9.0982,9.1145,9.0973,9.0953,9.0981,9.0808,9.0806,9.0804,9.0916,9.0875,9.1142,9.1907,9.2323,9.2121,9.2198,9.2236,9.234,9.1614,9.1003,9.0812,9.0735,9.0659,9.0621,9.0621,9.0621,9.0621,9.0621,9.0621,9.0583,9.0572,9.0457,9.0241,9.0056,9.0007,8.9681,8.9401,8.8604,8.8314,8.7943,8.726,8.7047,8.6682,8.595,8.5723,8.5344,8.5117,8.4878,8.4764,8.4449,8.4202,8.3724,8.3311,8.2926,8.2429,8.1818,8.1369,8.0894,8.023,7.9716,7.9224,7.8389,7.7801,7.7033,7.6158,7.5402,7.4654,7.4316,7.3771,7.3021,7.2149,7.1134,7.0258,6.9584,6.9146,6.8687,6.8404,6.8162,6.7873,6.7655,6.7402,6.7076,6.6931,6.6901,6.6719,6.6563,6.6376,6.6079,6.5617,6.5034,6.4566,6.4376,6.4147,6.3627,6.3092,6.2699,6.2307,9.0788,9.0788,9.0788,9.0788,9.0788,9.0788,9.0941,9.1181,9.103,9.0906,9.0906,9.0915,9.1069,9.1375,9.1462,9.1586,9.192,9.1997,9.1967,9.1916,9.1679,9.1878,9.1781,9.1646,9.1768,9.1611,9.1591,9.1837,9.1701,9.1969,9.2656,9.2924,9.3115,9.3153,9.3038,9.2886,9.2542,9.1854,9.1395,9.1117,9.1003,9.0812,9.0621,9.0659,9.0621,9.0621,9.0572,9.0561,9.053,9.0508,9.0383,9.0328,9.0257,9.0129,8.9927,8.9251,8.913,8.8665,8.8059,8.7895,8.7402,8.6784,8.6329,8.5839,8.5399,8.5073,8.4883,8.4682,8.4599,8.4402,8.4051,8.3613,8.2962,8.2298,8.1971,8.1605,8.1063,8.0557,7.9745,7.8866,7.8094,7.7369,7.6626,7.5897,7.536,7.5055,7.4434,7.3571,7.2735,7.1799,7.0923,7.0184,6.9833,6.9533,6.9264,6.8923,6.8669,6.8452,6.8358,6.7996,6.751,6.7227,6.7204,6.6816,6.6376,6.6146,6.5978,6.5859,6.5522,6.526,6.4999,6.4713,6.4142,6.352,6.3163,9.0669,9.0746,9.0735,9.0947,9.0822,9.0947,9.1291,9.1799,9.14,9.1107,9.1183,9.1145,9.1585,9.2063,9.2178,9.2444,9.2672,9.2804,9.2735,9.3087,9.2776,9.2748,9.2814,9.3038,9.265,9.2935,9.3,9.2695,9.3077,9.3229,9.3268,9.3268,9.3497,9.365,9.3726,9.3688,9.3535,9.3344,9.2618,9.216,9.1778,9.1308,9.0774,9.0774,9.0763,9.0714,9.0578,9.0487,9.0383,9.034,9.0284,9.0205,9.0087,9.0041,8.9873,8.9775,8.9651,8.9297,8.888,8.8691,8.8212,8.753,8.6772,8.6386,8.6023,8.5165,8.4824,8.4689,8.4554,8.4443,8.4167,8.3916,8.3399,8.2995,8.2678,8.2171,8.1551,8.0874,7.999,7.9154,7.8433,7.7717,7.7119,7.6425,7.6127,7.5796,7.5114,7.4212,7.3483,7.2605,7.1708,7.0905,7.0584,7.0315,6.9989,6.9699,6.9445,6.9264,6.9119,6.8793,6.825,6.7951,6.7761,6.7424,6.7106,6.6623,6.6397,6.6227,6.6077,6.5835,6.5681,6.5744,6.5264,6.453,6.3984,9.0965,9.1586,9.2236,9.2493,9.2504,9.2504,9.258,9.2771,9.2661,9.2588,9.2578,9.2588,9.2627,9.2839,9.2877,9.3113,9.3217,9.3485,9.3175,9.324,9.3306,9.3497,9.3229,9.3421,9.3268,9.3115,9.3191,9.3573,9.3955,9.4146,9.4414,9.4872,9.4834,9.472,9.4758,9.4758,9.472,9.4605,9.4048,9.3322,9.2864,9.2607,9.2274,9.1784,9.1457,9.1048,9.0814,9.0394,9.0311,9.0239,9.0125,9.0032,8.9887,8.9889,8.9864,8.979,8.979,8.9601,8.9513,8.9311,8.8933,8.8418,8.7801,8.7311,8.6605,8.5395,8.4728,8.4593,8.4469,8.4368,8.4267,8.4024,8.3841,8.3597,8.3352,8.264,8.1965,8.1077,8.0185,7.9512,7.8838,7.8186,7.7586,7.7191,7.6873,7.6334,7.5648,7.4978,7.4538,7.3768,7.2697,7.1909,7.1401,7.1096,7.0698,7.0423,7.017,6.9916,6.9735,6.9373,6.8974,6.8669,6.8407,6.8264,6.7997,6.7508,6.7035,6.6577,6.6392,6.6458,6.6395,6.6475,6.6177,6.5518,6.4974,9.1625,9.2389,9.2886,9.3115,9.3115,9.3115,9.3306,9.365,9.3688,9.3879,9.3994,9.3535,9.3306,9.3612,9.3677,9.3917,9.407,9.4223,9.4387,9.4261,9.407,9.4299,9.4185,9.4108,9.4338,9.4223,9.4261,9.4567,9.4834,9.4949,9.5216,9.5571,9.5609,9.5609,9.5598,9.5598,9.5598,9.5522,9.5008,9.4555,9.3867,9.3448,9.2924,9.2319,9.21,9.1662,9.1149,9.07,9.0452,9.0204,8.997,8.9887,8.9814,8.9802,8.979,8.979,8.979,8.979,8.9766,8.9641,8.9427,8.8974,8.8407,8.7764,8.7409,8.6304,8.5462,8.5209,8.4277,8.4086,8.3996,8.3811,8.3675,8.349,8.326,8.2842,8.2215,8.1466,8.0908,8.0469,7.9658,7.8819,7.827,7.7846,7.7452,7.6664,7.6012,7.5531,7.5146,7.4846,7.3796,7.2963,7.2472,7.1784,7.1241,7.106,7.0931,7.0677,7.0423,7.0134,6.9844,6.9373,6.9053,6.8976,6.8806,6.8435,6.7925,6.7503,6.7482,6.7676,6.7449,6.7258,6.6888,6.6554,6.6113,9.2465,9.3229,9.3421,9.3459,9.3421,9.3459,9.3879,9.449,9.4556,9.4911,9.5255,9.4032,9.3994,9.4327,9.4594,9.5064,9.5293,9.514,9.5369,9.5407,9.5407,9.5178,9.5216,9.5446,9.5293,9.5293,9.5293,9.5331,9.5446,9.5446,9.5446,9.5609,9.5598,9.5609,9.5598,9.5576,9.5565,9.552,9.5311,9.5318,9.4697,9.4022,9.345,9.3099,9.2851,9.2401,9.186,9.1383,9.097,9.0428,8.9989,8.9827,8.979,8.979,8.979,8.9778,8.9741,8.9741,8.9754,8.9616,8.9528,8.9263,8.8644,8.8225,8.7891,8.7246,8.6369,8.566,8.4724,8.4131,8.4039,8.3882,8.3727,8.3384,8.3172,8.2957,8.2366,8.1854,8.1518,8.1198,8.0378,7.9464,7.8929,7.8519,7.7871,7.708,7.6512,7.5993,7.5601,7.5423,7.4826,7.4122,7.3579,7.2855,7.211,7.1712,7.1675,7.1494,7.1241,7.0987,7.0698,7.0351,6.9989,6.9735,6.9529,6.9265,6.9038,6.8703,6.8739,6.8697,6.8325,6.797,6.7831,6.7512,6.7281,9.3344,9.4212,9.4834,9.5102,9.5064,9.5064,9.5216,9.5331,9.5331,9.5484,9.5446,9.5407,9.5255,9.5331,9.5369,9.5522,9.5522,9.5609,9.5609,9.5609,9.5609,9.5609,9.5609,9.5609,9.5609,9.5609,9.5609,9.5609,9.5587,9.5598,9.5598,9.5587,9.5587,9.5587,9.5576,9.5531,9.544,9.5406,9.531,9.5227,9.5253,9.472,9.4427,9.4037,9.3662,9.3081,9.2527,9.2214,9.1633,9.0952,9.0269,8.998,8.9866,8.9866,8.9778,8.9729,8.9692,8.9642,8.9629,8.9489,8.9412,8.9294,8.881,8.874,8.8302,8.7787,8.7169,8.6855,8.5993,8.5208,8.4964,8.458,8.4323,8.3463,8.3008,8.2773,8.2355,8.2113,8.1918,8.1422,8.0821,8.0064,7.9434,7.8995,7.8545,7.7872,7.7408,7.6905,7.6273,7.6002,7.5804,7.5225,7.4665,7.4231,7.3579,7.2726,7.2472,7.2275,7.2058,7.1784,7.1531,7.135,7.1024,7.0589,7.0387,7.0139,6.9927,6.9772,6.9482,6.9333,6.8982,6.8682,6.8615,6.8527,6.8296]}]]